Time,TemperatureF,DewpointF,PressureIn,WindDirection,WindDirectionDegrees,WindSpeedMPH,WindSpeedGustMPH,Humidity,HourlyPrecipIn,Conditions,Clouds,dailyrainin,SoftwareType,DateUTC
2013-05-21 00:00:00,67.6,64.9,29.96,West,268,0.0,0.0,91,0.00,,---,0.01,VWS V14.01,2013-05-21 04:00:00,
2013-05-21 00:01:00,67.4,64.7,29.96,West,268,0.0,0.0,91,0.00,,---,0.00,VWS V14.01,2013-05-21 04:01:00,
2013-05-21 00:02:00,67.4,64.7,29.96,West,268,0.0,0.0,91,0.00,,---,0.00,VWS V14.01,2013-05-21 04:02:00,
2013-05-21 00:03:00,67.4,64.7,29.96,West,268,0.0,0.0,91,0.00,,---,0.00,VWS V14.01,2013-05-21 04:03:00,
2013-05-21 00:04:00,67.4,64.7,29.96,West,268,0.0,0.0,91,0.00,,---,0.00,VWS V14.01,2013-05-21 04:04:00,
2013-05-21 00:05:00,67.4,64.7,29.96,West,268,0.0,0.0,91,0.00,,---,0.00,VWS V14.01,2013-05-21 04:05:00,
2013-05-21 00:06:00,67.4,64.7,29.96,West,268,0.0,0.0,91,0.00,,---,0.00,VWS V14.01,2013-05-21 04:06:00,
2013-05-21 00:07:00,67.4,64.7,29.96,West,268,0.0,0.0,91,0.00,,---,0.00,VWS V14.01,2013-05-21 04:07:00,
2013-05-21 00:08:00,67.4,64.7,29.96,West,268,0.0,0.0,91,0.00,,---,0.00,VWS V14.01,2013-05-21 04:08:00,
2013-05-21 00:09:00,67.3,64.6,29.96,West,268,0.0,1.0,91,0.00,,---,0.00,VWS V14.01,2013-05-21 04:09:00,
2013-05-21 00:10:00,67.3,64.6,29.96,West,268,0.0,1.0,91,0.00,,---,0.00,VWS V14.01,2013-05-21 04:10:00,
2013-05-21 00:11:00,67.3,64.6,29.96,West,268,0.0,0.0,91,0.00,,---,0.00,VWS V14.01,2013-05-21 04:11:00,
2013-05-21 00:12:00,67.3,64.6,29.96,West,268,1.0,1.0,91,0.00,,---,0.00,VWS V14.01,2013-05-21 04:12:00,
2013-05-21 00:13:00,67.3,64.6,29.96,West,268,1.0,2.0,91,0.00,,---,0.00,VWS V14.01,2013-05-21 04:13:00,
2013-05-21 00:14:00,67.3,64.6,29.96,West,268,0.0,2.0,91,0.00,,---,0.00,VWS V14.01,2013-05-21 04:14:00,
2013-05-21 00:15:00,67.3,64.9,29.95,West,268,0.0,2.0,92,0.00,,---,0.00,VWS V14.01,2013-05-21 04:15:00,
2013-05-21 00:16:00,67.3,64.9,29.95,West,268,0.0,0.0,92,0.00,,---,0.00,VWS V14.01,2013-05-21 04:16:00,
2013-05-21 00:17:00,67.3,64.9,29.95,West,268,2.0,2.0,92,0.00,,---,0.00,VWS V14.01,2013-05-21 04:17:00,
2013-05-21 00:18:00,67.3,64.9,29.95,West,268,0.0,2.0,92,0.00,,---,0.00,VWS V14.01,2013-05-21 04:18:00,
2013-05-21 00:19:00,67.3,64.9,29.95,West,268,0.0,2.0,92,0.00,,---,0.00,VWS V14.01,2013-05-21 04:19:00,
2013-05-21 00:20:00,67.3,64.9,29.95,West,268,0.0,2.0,92,0.00,,---,0.00,VWS V14.01,2013-05-21 04:20:00,
2013-05-21 00:21:00,67.3,64.9,29.95,West,268,0.0,0.0,92,0.00,,---,0.00,VWS V14.01,2013-05-21 04:21:00,
2013-05-21 00:22:00,67.3,64.9,29.95,West,268,0.0,1.0,92,0.00,,---,0.00,VWS V14.01,2013-05-21 04:22:00,
2013-05-21 00:23:00,67.3,64.9,29.95,West,268,0.0,1.0,92,0.00,,---,0.00,VWS V14.01,2013-05-21 04:23:00,
2013-05-21 00:24:00,67.1,64.7,29.95,West,268,2.0,3.0,92,0.00,,---,0.00,VWS V14.01,2013-05-21 04:24:00,
2013-05-21 00:25:00,67.1,64.7,29.95,West,268,0.0,3.0,92,0.00,,---,0.00,VWS V14.01,2013-05-21 04:25:00,
2013-05-21 00:26:00,67.1,64.7,29.95,West,268,0.0,0.0,92,0.00,,---,0.00,VWS V14.01,2013-05-21 04:26:00,
2013-05-21 00:27:00,67.1,64.7,29.95,West,268,0.0,1.0,92,0.00,,---,0.00,VWS V14.01,2013-05-21 04:27:00,
2013-05-21 00:28:00,67.1,64.7,29.95,West,268,2.0,4.0,92,0.00,,---,0.00,VWS V14.01,2013-05-21 04:28:00,
2013-05-21 00:29:00,67.1,65.0,29.95,West,268,2.0,4.0,93,0.00,,---,0.00,VWS V14.01,2013-05-21 04:29:00,
2013-05-21 00:30:00,67.1,65.0,29.95,West,268,0.0,4.0,93,0.00,,---,0.00,VWS V14.01,2013-05-21 04:30:00,
2013-05-21 00:31:00,67.1,65.0,29.95,West,268,0.0,0.0,93,0.00,,---,0.00,VWS V14.01,2013-05-21 04:31:00,
2013-05-21 00:32:00,66.9,64.8,29.95,West,268,0.0,1.0,93,0.00,,---,0.00,VWS V14.01,2013-05-21 04:32:00,
2013-05-21 00:33:00,66.9,64.8,29.95,West,268,2.0,2.0,93,0.00,,---,0.00,VWS V14.01,2013-05-21 04:33:00,
2013-05-21 00:34:00,66.9,64.8,29.95,West,268,0.0,2.0,93,0.00,,---,0.00,VWS V14.01,2013-05-21 04:34:00,
2013-05-21 00:35:00,66.9,64.8,29.95,West,268,0.0,2.0,93,0.00,,---,0.00,VWS V14.01,2013-05-21 04:35:00,
2013-05-21 00:36:00,66.9,64.8,29.95,West,268,0.0,0.0,93,0.00,,---,0.00,VWS V14.01,2013-05-21 04:36:00,
2013-05-21 00:37:00,66.9,64.8,29.95,West,268,0.0,0.0,93,0.00,,---,0.00,VWS V14.01,2013-05-21 04:37:00,
2013-05-21 00:38:00,66.8,64.7,29.95,West,268,0.0,0.0,93,0.00,,---,0.00,VWS V14.01,2013-05-21 04:38:00,
2013-05-21 00:39:00,66.8,64.7,29.95,West,268,0.0,0.0,93,0.00,,---,0.00,VWS V14.01,2013-05-21 04:39:00,
2013-05-21 00:40:00,66.8,64.7,29.95,West,268,0.0,0.0,93,0.00,,---,0.00,VWS V14.01,2013-05-21 04:40:00,
2013-05-21 00:41:00,66.8,64.7,29.95,West,268,0.0,0.0,93,0.00,,---,0.00,VWS V14.01,2013-05-21 04:41:00,
2013-05-21 00:42:00,66.8,64.7,29.95,West,268,0.0,0.0,93,0.00,,---,0.00,VWS V14.01,2013-05-21 04:42:00,
2013-05-21 00:43:00,66.8,64.7,29.95,West,268,0.0,0.0,93,0.00,,---,0.00,VWS V14.01,2013-05-21 04:43:00,
2013-05-21 00:44:00,66.8,64.7,29.95,West,268,0.0,0.0,93,0.00,,---,0.00,VWS V14.01,2013-05-21 04:44:00,
2013-05-21 00:45:00,66.8,64.7,29.94,West,268,0.0,0.0,93,0.00,,---,0.00,VWS V14.01,2013-05-21 04:45:00,
2013-05-21 00:46:00,66.8,64.7,29.94,West,268,0.0,0.0,93,0.00,,---,0.00,VWS V14.01,2013-05-21 04:46:00,
2013-05-21 00:47:00,66.6,64.8,29.94,West,268,0.0,0.0,94,0.00,,---,0.00,VWS V14.01,2013-05-21 04:47:00,
2013-05-21 00:48:00,66.6,64.8,29.94,West,268,0.0,0.0,94,0.00,,---,0.00,VWS V14.01,2013-05-21 04:48:00,
2013-05-21 00:49:00,66.6,64.8,29.94,West,268,0.0,0.0,94,0.00,,---,0.00,VWS V14.01,2013-05-21 04:49:00,
2013-05-21 00:50:00,66.6,64.8,29.94,West,268,0.0,0.0,94,0.00,,---,0.00,VWS V14.01,2013-05-21 04:50:00,
2013-05-21 00:51:00,66.6,64.8,29.94,West,268,0.0,0.0,94,0.00,,---,0.00,VWS V14.01,2013-05-21 04:51:00,
2013-05-21 00:52:00,66.6,64.8,29.94,West,268,0.0,0.0,94,0.00,,---,0.00,VWS V14.01,2013-05-21 04:52:00,
2013-05-21 00:53:00,66.6,64.8,29.94,West,268,0.0,0.0,94,0.00,,---,0.00,VWS V14.01,2013-05-21 04:53:00,
2013-05-21 00:54:00,66.6,64.8,29.94,West,268,0.0,0.0,94,0.00,,---,0.00,VWS V14.01,2013-05-21 04:54:00,
2013-05-21 00:55:00,66.6,64.8,29.94,West,268,0.0,0.0,94,0.00,,---,0.00,VWS V14.01,2013-05-21 04:55:00,
2013-05-21 00:56:00,66.4,64.6,29.94,West,268,0.0,0.0,94,0.00,,---,0.00,VWS V14.01,2013-05-21 04:56:00,
2013-05-21 00:57:00,66.4,64.6,29.94,West,268,0.0,0.0,94,0.00,,---,0.00,VWS V14.01,2013-05-21 04:57:00,
2013-05-21 00:58:00,66.4,64.6,29.94,West,268,0.0,0.0,94,0.00,,---,0.00,VWS V14.01,2013-05-21 04:58:00,
2013-05-21 00:59:00,66.4,64.6,29.94,West,268,0.0,0.0,94,0.00,,---,0.00,VWS V14.01,2013-05-21 04:59:00,
2013-05-21 01:00:00,66.4,64.6,29.95,West,268,0.0,0.0,94,0.00,,---,0.00,VWS V14.01,2013-05-21 05:00:00,
2013-05-21 01:01:00,66.4,64.6,29.95,West,268,0.0,0.0,94,0.00,,---,0.00,VWS V14.01,2013-05-21 05:01:00,
2013-05-21 01:02:00,66.4,64.6,29.95,West,268,0.0,0.0,94,0.00,,---,0.00,VWS V14.01,2013-05-21 05:02:00,
2013-05-21 01:03:00,66.4,64.6,29.95,West,268,0.0,0.0,94,0.00,,---,0.00,VWS V14.01,2013-05-21 05:03:00,
2013-05-21 01:04:00,66.4,64.6,29.95,West,268,0.0,0.0,94,0.00,,---,0.00,VWS V14.01,2013-05-21 05:04:00,
2013-05-21 01:05:00,66.4,64.6,29.95,West,268,0.0,0.0,94,0.00,,---,0.00,VWS V14.01,2013-05-21 05:05:00,
2013-05-21 01:06:00,66.4,64.6,29.95,West,268,0.0,0.0,94,0.00,,---,0.00,VWS V14.01,2013-05-21 05:06:00,
2013-05-21 01:07:00,66.4,64.6,29.95,West,268,0.0,0.0,94,0.00,,---,0.00,VWS V14.01,2013-05-21 05:07:00,
2013-05-21 01:08:00,66.3,64.5,29.95,West,268,0.0,0.0,94,0.00,,---,0.00,VWS V14.01,2013-05-21 05:08:00,
2013-05-21 01:09:00,66.3,64.5,29.95,West,268,0.0,0.0,94,0.00,,---,0.00,VWS V14.01,2013-05-21 05:09:00,
2013-05-21 01:10:00,66.3,64.5,29.95,West,268,0.0,0.0,94,0.00,,---,0.00,VWS V14.01,2013-05-21 05:10:00,
2013-05-21 01:11:00,66.3,64.5,29.95,West,268,0.0,0.0,94,0.00,,---,0.00,VWS V14.01,2013-05-21 05:11:00,
2013-05-21 01:12:00,66.3,64.5,29.95,West,268,0.0,0.0,94,0.00,,---,0.00,VWS V14.01,2013-05-21 05:12:00,
2013-05-21 01:13:00,66.3,64.5,29.95,West,268,0.0,0.0,94,0.00,,---,0.00,VWS V14.01,2013-05-21 05:13:00,
2013-05-21 01:14:00,66.3,64.5,29.95,West,268,0.0,0.0,94,0.00,,---,0.00,VWS V14.01,2013-05-21 05:14:00,
2013-05-21 01:15:00,66.3,64.5,29.94,West,268,0.0,0.0,94,0.00,,---,0.00,VWS V14.01,2013-05-21 05:15:00,
2013-05-21 01:16:00,66.3,64.5,29.94,West,268,0.0,0.0,94,0.00,,---,0.00,VWS V14.01,2013-05-21 05:16:00,
2013-05-21 01:17:00,66.3,64.5,29.94,West,268,0.0,0.0,94,0.00,,---,0.00,VWS V14.01,2013-05-21 05:17:00,
2013-05-21 01:18:00,66.3,64.5,29.94,West,268,0.0,0.0,94,0.00,,---,0.00,VWS V14.01,2013-05-21 05:18:00,
2013-05-21 01:19:00,66.3,64.5,29.94,West,268,0.0,0.0,94,0.00,,---,0.00,VWS V14.01,2013-05-21 05:19:00,
2013-05-21 01:20:00,66.1,64.3,29.94,West,268,0.0,0.0,94,0.00,,---,0.00,VWS V14.01,2013-05-21 05:20:00,
2013-05-21 01:21:00,66.1,64.3,29.94,West,268,0.0,0.0,94,0.00,,---,0.00,VWS V14.01,2013-05-21 05:21:00,
2013-05-21 01:22:00,66.1,64.3,29.94,West,268,0.0,0.0,94,0.00,,---,0.00,VWS V14.01,2013-05-21 05:22:00,
2013-05-21 01:23:00,66.1,64.3,29.94,West,268,0.0,0.0,94,0.00,,---,0.00,VWS V14.01,2013-05-21 05:23:00,
2013-05-21 01:24:00,66.1,64.3,29.94,West,268,0.0,0.0,94,0.00,,---,0.00,VWS V14.01,2013-05-21 05:24:00,
2013-05-21 01:25:00,66.1,64.3,29.94,West,268,0.0,0.0,94,0.00,,---,0.00,VWS V14.01,2013-05-21 05:25:00,
2013-05-21 01:26:00,66.1,64.3,29.94,West,268,0.0,0.0,94,0.00,,---,0.00,VWS V14.01,2013-05-21 05:26:00,
2013-05-21 01:27:00,66.1,64.3,29.94,West,268,0.0,0.0,94,0.00,,---,0.00,VWS V14.01,2013-05-21 05:27:00,
2013-05-21 01:28:00,66.1,64.3,29.94,West,268,0.0,0.0,94,0.00,,---,0.00,VWS V14.01,2013-05-21 05:28:00,
2013-05-21 01:29:00,66.1,64.3,29.94,West,268,0.0,0.0,94,0.00,,---,0.00,VWS V14.01,2013-05-21 05:29:00,
2013-05-21 01:30:00,66.1,64.3,29.94,West,268,0.0,0.0,94,0.00,,---,0.00,VWS V14.01,2013-05-21 05:30:00,
2013-05-21 01:31:00,66.0,64.2,29.94,West,268,0.0,0.0,94,0.00,,---,0.00,VWS V14.01,2013-05-21 05:31:00,
2013-05-21 01:32:00,66.0,64.2,29.94,West,268,0.0,0.0,94,0.00,,---,0.00,VWS V14.01,2013-05-21 05:32:00,
2013-05-21 01:33:00,66.0,64.2,29.94,West,268,0.0,0.0,94,0.00,,---,0.00,VWS V14.01,2013-05-21 05:33:00,
2013-05-21 01:34:00,66.0,64.2,29.94,West,268,0.0,0.0,94,0.00,,---,0.00,VWS V14.01,2013-05-21 05:34:00,
2013-05-21 01:35:00,66.0,64.2,29.94,West,268,0.0,0.0,94,0.00,,---,0.00,VWS V14.01,2013-05-21 05:35:00,
2013-05-21 01:36:00,66.0,64.2,29.94,West,268,0.0,0.0,94,0.00,,---,0.00,VWS V14.01,2013-05-21 05:36:00,
2013-05-21 01:37:00,65.8,64.0,29.94,West,268,0.0,0.0,94,0.00,,---,0.00,VWS V14.01,2013-05-21 05:37:00,
2013-05-21 01:38:00,65.8,64.0,29.94,West,268,0.0,0.0,94,0.00,,---,0.00,VWS V14.01,2013-05-21 05:38:00,
2013-05-21 01:39:00,65.8,64.0,29.94,West,268,0.0,0.0,94,0.00,,---,0.00,VWS V14.01,2013-05-21 05:39:00,
2013-05-21 01:40:00,65.8,64.0,29.94,West,268,0.0,0.0,94,0.00,,---,0.00,VWS V14.01,2013-05-21 05:40:00,
2013-05-21 01:41:00,65.8,64.0,29.94,West,268,0.0,0.0,94,0.00,,---,0.00,VWS V14.01,2013-05-21 05:41:00,
2013-05-21 01:42:00,65.8,64.0,29.94,West,268,0.0,0.0,94,0.00,,---,0.00,VWS V14.01,2013-05-21 05:42:00,
2013-05-21 01:43:00,65.8,64.0,29.94,West,268,0.0,0.0,94,0.00,,---,0.00,VWS V14.01,2013-05-21 05:43:00,
2013-05-21 01:44:00,65.8,64.0,29.94,West,268,0.0,0.0,94,0.00,,---,0.00,VWS V14.01,2013-05-21 05:44:00,
2013-05-21 01:45:00,65.6,63.8,29.94,West,268,0.0,0.0,94,0.00,,---,0.00,VWS V14.01,2013-05-21 05:45:00,
2013-05-21 01:46:00,65.6,63.8,29.94,West,268,0.0,0.0,94,0.00,,---,0.00,VWS V14.01,2013-05-21 05:46:00,
2013-05-21 01:47:00,65.6,63.8,29.94,West,268,0.0,0.0,94,0.00,,---,0.00,VWS V14.01,2013-05-21 05:47:00,
2013-05-21 01:48:00,65.6,63.8,29.94,West,268,0.0,0.0,94,0.00,,---,0.00,VWS V14.01,2013-05-21 05:48:00,
2013-05-21 01:49:00,65.6,63.8,29.94,West,268,0.0,0.0,94,0.00,,---,0.00,VWS V14.01,2013-05-21 05:49:00,
2013-05-21 01:50:00,65.6,63.8,29.94,West,268,0.0,0.0,94,0.00,,---,0.00,VWS V14.01,2013-05-21 05:50:00,
2013-05-21 01:51:00,65.6,63.8,29.94,West,268,0.0,0.0,94,0.00,,---,0.00,VWS V14.01,2013-05-21 05:51:00,
2013-05-21 01:52:00,65.6,63.8,29.94,West,268,0.0,0.0,94,0.00,,---,0.00,VWS V14.01,2013-05-21 05:52:00,
2013-05-21 01:53:00,65.5,63.7,29.94,West,268,0.0,0.0,94,0.00,,---,0.00,VWS V14.01,2013-05-21 05:53:00,
2013-05-21 01:54:00,65.5,63.7,29.94,West,268,0.0,0.0,94,0.00,,---,0.00,VWS V14.01,2013-05-21 05:54:00,
2013-05-21 01:55:00,65.5,63.7,29.94,West,268,0.0,0.0,94,0.00,,---,0.00,VWS V14.01,2013-05-21 05:55:00,
2013-05-21 01:56:00,65.5,63.7,29.94,West,268,0.0,0.0,94,0.00,,---,0.00,VWS V14.01,2013-05-21 05:56:00,
2013-05-21 01:57:00,65.5,63.7,29.94,West,268,0.0,0.0,94,0.00,,---,0.00,VWS V14.01,2013-05-21 05:57:00,
2013-05-21 01:58:00,65.5,63.7,29.94,West,268,0.0,0.0,94,0.00,,---,0.00,VWS V14.01,2013-05-21 05:58:00,
2013-05-21 01:59:00,65.5,63.7,29.94,West,268,0.0,0.0,94,0.00,,---,0.00,VWS V14.01,2013-05-21 05:59:00,
2013-05-21 02:00:00,65.5,63.7,29.93,West,268,0.0,0.0,94,0.00,,---,0.00,VWS V14.01,2013-05-21 06:00:00,
2013-05-21 02:01:00,65.5,63.7,29.93,West,268,0.0,0.0,94,0.00,,---,0.00,VWS V14.01,2013-05-21 06:01:00,
2013-05-21 02:02:00,65.3,63.5,29.93,West,268,0.0,0.0,94,0.00,,---,0.00,VWS V14.01,2013-05-21 06:02:00,
2013-05-21 02:03:00,65.3,63.5,29.93,West,268,0.0,0.0,94,0.00,,---,0.00,VWS V14.01,2013-05-21 06:03:00,
2013-05-21 02:04:00,65.3,63.5,29.93,West,268,0.0,0.0,94,0.00,,---,0.00,VWS V14.01,2013-05-21 06:04:00,
2013-05-21 02:05:00,65.3,63.5,29.93,West,268,0.0,0.0,94,0.00,,---,0.00,VWS V14.01,2013-05-21 06:05:00,
2013-05-21 02:06:00,65.3,63.8,29.93,West,268,0.0,0.0,95,0.00,,---,0.00,VWS V14.01,2013-05-21 06:06:00,
2013-05-21 02:07:00,65.3,63.8,29.93,West,268,0.0,0.0,95,0.00,,---,0.00,VWS V14.01,2013-05-21 06:07:00,
2013-05-21 02:08:00,65.3,63.8,29.93,West,268,0.0,0.0,95,0.00,,---,0.00,VWS V14.01,2013-05-21 06:08:00,
2013-05-21 02:09:00,65.3,63.8,29.93,West,268,0.0,0.0,95,0.00,,---,0.00,VWS V14.01,2013-05-21 06:09:00,
2013-05-21 02:10:00,65.2,63.7,29.93,West,268,0.0,0.0,95,0.00,,---,0.00,VWS V14.01,2013-05-21 06:10:00,
2013-05-21 02:11:00,65.2,63.7,29.93,West,268,0.0,0.0,95,0.00,,---,0.00,VWS V14.01,2013-05-21 06:11:00,
2013-05-21 02:12:00,65.2,63.7,29.93,West,268,0.0,0.0,95,0.00,,---,0.00,VWS V14.01,2013-05-21 06:12:00,
2013-05-21 02:13:00,65.2,63.7,29.93,West,268,0.0,0.0,95,0.00,,---,0.00,VWS V14.01,2013-05-21 06:13:00,
2013-05-21 02:14:00,65.2,63.7,29.93,West,268,0.0,0.0,95,0.00,,---,0.00,VWS V14.01,2013-05-21 06:14:00,
2013-05-21 02:15:00,65.2,63.7,29.93,West,268,0.0,0.0,95,0.00,,---,0.00,VWS V14.01,2013-05-21 06:15:00,
2013-05-21 02:16:00,65.2,63.7,29.93,West,268,0.0,0.0,95,0.00,,---,0.00,VWS V14.01,2013-05-21 06:16:00,
2013-05-21 02:17:00,65.0,63.5,29.93,West,268,0.0,0.0,95,0.00,,---,0.00,VWS V14.01,2013-05-21 06:17:00,
2013-05-21 02:18:00,65.0,63.5,29.93,West,268,0.0,0.0,95,0.00,,---,0.00,VWS V14.01,2013-05-21 06:18:00,
2013-05-21 02:19:00,65.0,63.5,29.93,West,268,0.0,0.0,95,0.00,,---,0.00,VWS V14.01,2013-05-21 06:19:00,
2013-05-21 02:20:00,65.0,63.5,29.93,West,268,0.0,0.0,95,0.00,,---,0.00,VWS V14.01,2013-05-21 06:20:00,
2013-05-21 02:21:00,65.0,63.5,29.93,West,268,0.0,0.0,95,0.00,,---,0.00,VWS V14.01,2013-05-21 06:21:00,
2013-05-21 02:22:00,65.0,63.5,29.93,West,268,0.0,0.0,95,0.00,,---,0.00,VWS V14.01,2013-05-21 06:22:00,
2013-05-21 02:23:00,65.0,63.5,29.93,West,268,0.0,0.0,95,0.00,,---,0.00,VWS V14.01,2013-05-21 06:23:00,
2013-05-21 02:24:00,65.0,63.5,29.93,West,268,0.0,0.0,95,0.00,,---,0.00,VWS V14.01,2013-05-21 06:24:00,
2013-05-21 02:25:00,65.0,63.5,29.93,West,268,0.0,0.0,95,0.00,,---,0.00,VWS V14.01,2013-05-21 06:25:00,
2013-05-21 02:26:00,65.0,63.5,29.93,West,268,0.0,0.0,95,0.00,,---,0.00,VWS V14.01,2013-05-21 06:26:00,
2013-05-21 02:27:00,65.0,63.5,29.93,West,268,0.0,0.0,95,0.00,,---,0.00,VWS V14.01,2013-05-21 06:27:00,
2013-05-21 02:28:00,65.0,63.5,29.93,West,268,0.0,0.0,95,0.00,,---,0.00,VWS V14.01,2013-05-21 06:28:00,
2013-05-21 02:29:00,65.0,63.5,29.93,West,268,0.0,0.0,95,0.00,,---,0.00,VWS V14.01,2013-05-21 06:29:00,
2013-05-21 02:30:00,64.8,63.3,29.92,West,268,0.0,0.0,95,0.00,,---,0.00,VWS V14.01,2013-05-21 06:30:00,
2013-05-21 02:31:00,64.8,63.3,29.92,West,268,0.0,0.0,95,0.00,,---,0.00,VWS V14.01,2013-05-21 06:31:00,
2013-05-21 02:32:00,64.8,63.3,29.92,West,268,0.0,0.0,95,0.00,,---,0.00,VWS V14.01,2013-05-21 06:32:00,
2013-05-21 02:33:00,64.8,63.3,29.92,West,268,0.0,0.0,95,0.00,,---,0.00,VWS V14.01,2013-05-21 06:33:00,
2013-05-21 02:34:00,64.8,63.3,29.92,West,268,0.0,0.0,95,0.00,,---,0.00,VWS V14.01,2013-05-21 06:34:00,
2013-05-21 02:35:00,64.8,63.3,29.92,West,268,0.0,0.0,95,0.00,,---,0.00,VWS V14.01,2013-05-21 06:35:00,
2013-05-21 02:36:00,64.8,63.3,29.92,West,268,0.0,0.0,95,0.00,,---,0.00,VWS V14.01,2013-05-21 06:36:00,
2013-05-21 02:37:00,64.8,63.3,29.92,West,268,0.0,0.0,95,0.00,,---,0.00,VWS V14.01,2013-05-21 06:37:00,
2013-05-21 02:38:00,64.8,63.3,29.92,West,268,0.0,0.0,95,0.00,,---,0.00,VWS V14.01,2013-05-21 06:38:00,
2013-05-21 02:39:00,64.8,63.3,29.92,West,268,0.0,0.0,95,0.00,,---,0.00,VWS V14.01,2013-05-21 06:39:00,
2013-05-21 02:40:00,64.8,63.6,29.92,West,268,0.0,0.0,96,0.00,,---,0.00,VWS V14.01,2013-05-21 06:40:00,
2013-05-21 02:41:00,64.8,63.6,29.92,West,268,0.0,0.0,96,0.00,,---,0.00,VWS V14.01,2013-05-21 06:41:00,
2013-05-21 02:42:00,64.8,63.6,29.92,West,268,0.0,0.0,96,0.00,,---,0.00,VWS V14.01,2013-05-21 06:42:00,
2013-05-21 02:43:00,64.8,63.6,29.92,West,268,0.0,0.0,96,0.00,,---,0.00,VWS V14.01,2013-05-21 06:43:00,
2013-05-21 02:44:00,64.8,63.6,29.92,West,268,0.0,0.0,96,0.00,,---,0.00,VWS V14.01,2013-05-21 06:44:00,
2013-05-21 02:45:00,64.8,63.6,29.92,West,268,0.0,0.0,96,0.00,,---,0.00,VWS V14.01,2013-05-21 06:45:00,
2013-05-21 02:46:00,64.7,63.5,29.92,West,268,0.0,0.0,96,0.00,,---,0.00,VWS V14.01,2013-05-21 06:46:00,
2013-05-21 02:47:00,64.7,63.5,29.92,West,268,0.0,0.0,96,0.00,,---,0.00,VWS V14.01,2013-05-21 06:47:00,
2013-05-21 02:48:00,64.7,63.5,29.92,West,268,0.0,0.0,96,0.00,,---,0.00,VWS V14.01,2013-05-21 06:48:00,
2013-05-21 02:49:00,64.7,63.5,29.92,West,268,0.0,0.0,96,0.00,,---,0.00,VWS V14.01,2013-05-21 06:49:00,
2013-05-21 02:50:00,64.7,63.5,29.92,West,268,0.0,0.0,96,0.00,,---,0.00,VWS V14.01,2013-05-21 06:50:00,
2013-05-21 02:51:00,64.7,63.5,29.92,West,268,0.0,0.0,96,0.00,,---,0.00,VWS V14.01,2013-05-21 06:51:00,
2013-05-21 02:52:00,64.7,63.5,29.92,West,268,0.0,0.0,96,0.00,,---,0.00,VWS V14.01,2013-05-21 06:52:00,
2013-05-21 02:53:00,64.7,63.5,29.92,West,268,0.0,0.0,96,0.00,,---,0.00,VWS V14.01,2013-05-21 06:53:00,
2013-05-21 02:54:00,64.7,63.5,29.92,West,268,0.0,0.0,96,0.00,,---,0.00,VWS V14.01,2013-05-21 06:54:00,
2013-05-21 02:55:00,64.7,63.5,29.92,West,268,0.0,0.0,96,0.00,,---,0.00,VWS V14.01,2013-05-21 06:55:00,
2013-05-21 02:56:00,64.5,63.3,29.92,West,268,0.0,0.0,96,0.00,,---,0.00,VWS V14.01,2013-05-21 06:56:00,
2013-05-21 02:57:00,64.5,63.3,29.92,West,268,0.0,0.0,96,0.00,,---,0.00,VWS V14.01,2013-05-21 06:57:00,
2013-05-21 02:58:00,64.5,63.3,29.92,West,268,0.0,0.0,96,0.00,,---,0.00,VWS V14.01,2013-05-21 06:58:00,
2013-05-21 02:59:00,64.5,63.3,29.92,West,268,0.0,0.0,96,0.00,,---,0.00,VWS V14.01,2013-05-21 06:59:00,
2013-05-21 03:00:00,64.5,63.3,29.92,West,268,0.0,0.0,96,0.00,,---,0.00,VWS V14.01,2013-05-21 07:00:00,
2013-05-21 03:01:00,64.5,63.3,29.92,West,268,0.0,0.0,96,0.00,,---,0.00,VWS V14.01,2013-05-21 07:01:00,
2013-05-21 03:02:00,64.5,63.3,29.92,West,268,0.0,0.0,96,0.00,,---,0.00,VWS V14.01,2013-05-21 07:02:00,
2013-05-21 03:03:00,64.5,63.3,29.92,West,268,0.0,0.0,96,0.00,,---,0.00,VWS V14.01,2013-05-21 07:03:00,
2013-05-21 03:04:00,64.5,63.3,29.92,West,268,0.0,0.0,96,0.00,,---,0.00,VWS V14.01,2013-05-21 07:04:00,
2013-05-21 03:05:00,64.5,63.3,29.92,West,268,0.0,0.0,96,0.00,,---,0.00,VWS V14.01,2013-05-21 07:05:00,
2013-05-21 03:06:00,64.3,63.1,29.92,West,268,0.0,0.0,96,0.00,,---,0.00,VWS V14.01,2013-05-21 07:06:00,
2013-05-21 03:07:00,64.3,63.1,29.92,West,268,0.0,0.0,96,0.00,,---,0.00,VWS V14.01,2013-05-21 07:07:00,
2013-05-21 03:08:00,64.3,63.1,29.92,West,268,0.0,0.0,96,0.00,,---,0.00,VWS V14.01,2013-05-21 07:08:00,
2013-05-21 03:09:00,64.3,63.1,29.92,West,268,0.0,0.0,96,0.00,,---,0.00,VWS V14.01,2013-05-21 07:09:00,
2013-05-21 03:10:00,64.3,63.1,29.92,West,268,0.0,0.0,96,0.00,,---,0.00,VWS V14.01,2013-05-21 07:10:00,
2013-05-21 03:11:00,64.3,63.1,29.92,West,268,0.0,0.0,96,0.00,,---,0.00,VWS V14.01,2013-05-21 07:11:00,
2013-05-21 03:12:00,64.3,63.1,29.92,West,268,0.0,0.0,96,0.00,,---,0.00,VWS V14.01,2013-05-21 07:12:00,
2013-05-21 03:13:00,64.3,63.1,29.92,West,268,0.0,0.0,96,0.00,,---,0.00,VWS V14.01,2013-05-21 07:13:00,
2013-05-21 03:14:00,64.3,63.1,29.92,West,268,0.0,0.0,96,0.00,,---,0.00,VWS V14.01,2013-05-21 07:14:00,
2013-05-21 03:15:00,64.2,63.0,29.92,West,268,0.0,0.0,96,0.00,,---,0.00,VWS V14.01,2013-05-21 07:15:00,
2013-05-21 03:16:00,64.2,63.0,29.92,West,268,0.0,0.0,96,0.00,,---,0.00,VWS V14.01,2013-05-21 07:16:00,
2013-05-21 03:17:00,64.2,63.0,29.92,West,268,0.0,0.0,96,0.00,,---,0.00,VWS V14.01,2013-05-21 07:17:00,
2013-05-21 03:18:00,64.2,63.0,29.92,West,268,0.0,0.0,96,0.00,,---,0.00,VWS V14.01,2013-05-21 07:18:00,
2013-05-21 03:19:00,64.2,63.0,29.92,West,268,0.0,0.0,96,0.00,,---,0.00,VWS V14.01,2013-05-21 07:19:00,
2013-05-21 03:20:00,64.2,63.0,29.92,West,268,0.0,0.0,96,0.00,,---,0.00,VWS V14.01,2013-05-21 07:20:00,
2013-05-21 03:21:00,64.2,63.0,29.92,West,268,0.0,0.0,96,0.00,,---,0.00,VWS V14.01,2013-05-21 07:21:00,
2013-05-21 03:22:00,64.2,63.0,29.92,West,268,0.0,0.0,96,0.00,,---,0.00,VWS V14.01,2013-05-21 07:22:00,
2013-05-21 03:23:00,64.2,63.0,29.92,West,268,0.0,0.0,96,0.00,,---,0.00,VWS V14.01,2013-05-21 07:23:00,
2013-05-21 03:24:00,64.0,62.8,29.92,West,268,0.0,0.0,96,0.00,,---,0.00,VWS V14.01,2013-05-21 07:24:00,
2013-05-21 03:25:00,64.0,62.8,29.92,West,268,0.0,0.0,96,0.00,,---,0.00,VWS V14.01,2013-05-21 07:25:00,
2013-05-21 03:26:00,64.0,62.8,29.92,West,268,0.0,0.0,96,0.00,,---,0.00,VWS V14.01,2013-05-21 07:26:00,
2013-05-21 03:27:00,64.0,62.8,29.92,West,268,0.0,0.0,96,0.00,,---,0.00,VWS V14.01,2013-05-21 07:27:00,
2013-05-21 03:28:00,64.0,62.8,29.92,West,268,0.0,0.0,96,0.00,,---,0.00,VWS V14.01,2013-05-21 07:28:00,
2013-05-21 03:29:00,64.0,62.8,29.92,West,268,0.0,0.0,96,0.00,,---,0.00,VWS V14.01,2013-05-21 07:29:00,
2013-05-21 03:30:00,64.0,62.8,29.92,West,268,0.0,0.0,96,0.00,,---,0.00,VWS V14.01,2013-05-21 07:30:00,
2013-05-21 03:31:00,64.0,62.8,29.92,West,268,0.0,0.0,96,0.00,,---,0.00,VWS V14.01,2013-05-21 07:31:00,
2013-05-21 03:32:00,64.0,62.8,29.92,West,268,0.0,0.0,96,0.00,,---,0.00,VWS V14.01,2013-05-21 07:32:00,
2013-05-21 03:33:00,64.0,62.8,29.92,West,268,0.0,0.0,96,0.00,,---,0.00,VWS V14.01,2013-05-21 07:33:00,
2013-05-21 03:34:00,64.0,62.8,29.92,West,268,0.0,0.0,96,0.00,,---,0.00,VWS V14.01,2013-05-21 07:34:00,
2013-05-21 03:35:00,64.0,62.8,29.92,West,268,0.0,0.0,96,0.00,,---,0.00,VWS V14.01,2013-05-21 07:35:00,
2013-05-21 03:36:00,63.9,62.7,29.92,West,268,0.0,0.0,96,0.00,,---,0.00,VWS V14.01,2013-05-21 07:36:00,
2013-05-21 03:37:00,63.9,62.7,29.92,West,268,0.0,0.0,96,0.00,,---,0.00,VWS V14.01,2013-05-21 07:37:00,
2013-05-21 03:38:00,63.9,62.7,29.92,West,268,0.0,0.0,96,0.00,,---,0.00,VWS V14.01,2013-05-21 07:38:00,
2013-05-21 03:39:00,63.9,62.7,29.92,West,268,0.0,0.0,96,0.00,,---,0.00,VWS V14.01,2013-05-21 07:39:00,
2013-05-21 03:40:00,63.9,62.7,29.92,West,268,0.0,0.0,96,0.00,,---,0.00,VWS V14.01,2013-05-21 07:40:00,
2013-05-21 03:41:00,63.9,62.7,29.92,West,268,0.0,0.0,96,0.00,,---,0.00,VWS V14.01,2013-05-21 07:41:00,
2013-05-21 03:42:00,63.9,62.7,29.92,West,268,0.0,0.0,96,0.00,,---,0.00,VWS V14.01,2013-05-21 07:42:00,
2013-05-21 03:43:00,63.9,62.7,29.92,West,268,0.0,0.0,96,0.00,,---,0.00,VWS V14.01,2013-05-21 07:43:00,
2013-05-21 03:44:00,63.9,62.7,29.92,West,268,0.0,0.0,96,0.00,,---,0.00,VWS V14.01,2013-05-21 07:44:00,
2013-05-21 03:45:00,63.7,62.5,29.92,West,268,0.0,0.0,96,0.00,,---,0.00,VWS V14.01,2013-05-21 07:45:00,
2013-05-21 03:46:00,63.7,62.5,29.92,West,268,0.0,0.0,96,0.00,,---,0.00,VWS V14.01,2013-05-21 07:46:00,
2013-05-21 03:47:00,63.7,62.5,29.92,West,268,0.0,0.0,96,0.00,,---,0.00,VWS V14.01,2013-05-21 07:47:00,
2013-05-21 03:48:00,63.7,62.5,29.92,West,268,0.0,0.0,96,0.00,,---,0.00,VWS V14.01,2013-05-21 07:48:00,
2013-05-21 03:49:00,63.7,62.8,29.92,West,268,0.0,0.0,97,0.00,,---,0.00,VWS V14.01,2013-05-21 07:49:00,
2013-05-21 03:50:00,63.5,62.6,29.92,West,268,0.0,0.0,97,0.00,,---,0.00,VWS V14.01,2013-05-21 07:50:00,
2013-05-21 03:51:00,63.5,62.6,29.92,West,268,0.0,0.0,97,0.00,,---,0.00,VWS V14.01,2013-05-21 07:51:00,
2013-05-21 03:52:00,63.5,62.6,29.92,West,268,0.0,0.0,97,0.00,,---,0.00,VWS V14.01,2013-05-21 07:52:00,
2013-05-21 03:53:00,63.5,62.6,29.92,West,268,0.0,0.0,97,0.00,,---,0.00,VWS V14.01,2013-05-21 07:53:00,
2013-05-21 03:54:00,63.5,62.6,29.92,West,268,0.0,0.0,97,0.00,,---,0.00,VWS V14.01,2013-05-21 07:54:00,
2013-05-21 03:55:00,63.5,62.6,29.92,West,268,0.0,0.0,97,0.00,,---,0.00,VWS V14.01,2013-05-21 07:55:00,
2013-05-21 03:56:00,63.5,62.6,29.92,West,268,0.0,0.0,97,0.00,,---,0.00,VWS V14.01,2013-05-21 07:56:00,
2013-05-21 03:57:00,63.4,62.5,29.92,West,268,0.0,0.0,97,0.00,,---,0.00,VWS V14.01,2013-05-21 07:57:00,
2013-05-21 03:58:00,63.4,62.5,29.92,West,268,0.0,0.0,97,0.00,,---,0.00,VWS V14.01,2013-05-21 07:58:00,
2013-05-21 03:59:00,63.4,62.5,29.92,West,268,0.0,0.0,97,0.00,,---,0.00,VWS V14.01,2013-05-21 07:59:00,
2013-05-21 04:00:00,63.4,62.5,29.93,West,268,0.0,0.0,97,0.00,,---,0.00,VWS V14.01,2013-05-21 08:00:00,
2013-05-21 04:01:00,63.4,62.5,29.93,West,268,0.0,0.0,97,0.00,,---,0.00,VWS V14.01,2013-05-21 08:01:00,
2013-05-21 04:02:00,63.4,62.5,29.93,West,268,0.0,0.0,97,0.00,,---,0.00,VWS V14.01,2013-05-21 08:02:00,
2013-05-21 04:03:00,63.4,62.5,29.93,West,268,0.0,0.0,97,0.00,,---,0.00,VWS V14.01,2013-05-21 08:03:00,
2013-05-21 04:04:00,63.4,62.5,29.93,West,268,0.0,0.0,97,0.00,,---,0.00,VWS V14.01,2013-05-21 08:04:00,
2013-05-21 04:05:00,63.4,62.5,29.93,West,268,0.0,0.0,97,0.00,,---,0.00,VWS V14.01,2013-05-21 08:05:00,
2013-05-21 04:06:00,63.4,62.5,29.93,West,268,0.0,0.0,97,0.00,,---,0.00,VWS V14.01,2013-05-21 08:06:00,
2013-05-21 04:07:00,63.4,62.5,29.93,West,268,0.0,0.0,97,0.00,,---,0.00,VWS V14.01,2013-05-21 08:07:00,
2013-05-21 04:08:00,63.4,62.5,29.93,West,268,0.0,0.0,97,0.00,,---,0.00,VWS V14.01,2013-05-21 08:08:00,
2013-05-21 04:09:00,63.4,62.5,29.93,West,268,0.0,0.0,97,0.00,,---,0.00,VWS V14.01,2013-05-21 08:09:00,
2013-05-21 04:10:00,63.4,62.5,29.93,West,268,0.0,0.0,97,0.00,,---,0.00,VWS V14.01,2013-05-21 08:10:00,
2013-05-21 04:11:00,63.2,62.3,29.93,West,268,0.0,0.0,97,0.00,,---,0.00,VWS V14.01,2013-05-21 08:11:00,
2013-05-21 04:12:00,63.2,62.3,29.93,West,268,0.0,0.0,97,0.00,,---,0.00,VWS V14.01,2013-05-21 08:12:00,
2013-05-21 04:13:00,63.2,62.3,29.93,West,268,0.0,0.0,97,0.00,,---,0.00,VWS V14.01,2013-05-21 08:13:00,
2013-05-21 04:14:00,63.2,62.3,29.93,West,268,0.0,0.0,97,0.00,,---,0.00,VWS V14.01,2013-05-21 08:14:00,
2013-05-21 04:15:00,63.2,62.3,29.93,West,268,0.0,0.0,97,0.00,,---,0.00,VWS V14.01,2013-05-21 08:15:00,
2013-05-21 04:16:00,63.2,62.3,29.93,West,268,0.0,0.0,97,0.00,,---,0.00,VWS V14.01,2013-05-21 08:16:00,
2013-05-21 04:17:00,63.2,62.3,29.93,West,268,0.0,0.0,97,0.00,,---,0.00,VWS V14.01,2013-05-21 08:17:00,
2013-05-21 04:18:00,63.2,62.3,29.93,West,268,0.0,0.0,97,0.00,,---,0.00,VWS V14.01,2013-05-21 08:18:00,
2013-05-21 04:19:00,63.1,62.2,29.93,West,268,0.0,0.0,97,0.00,,---,0.00,VWS V14.01,2013-05-21 08:19:00,
2013-05-21 04:20:00,63.1,62.2,29.93,West,268,0.0,0.0,97,0.00,,---,0.00,VWS V14.01,2013-05-21 08:20:00,
2013-05-21 04:21:00,63.1,62.2,29.93,West,268,0.0,0.0,97,0.00,,---,0.00,VWS V14.01,2013-05-21 08:21:00,
2013-05-21 04:22:00,63.1,62.2,29.93,West,268,0.0,0.0,97,0.00,,---,0.00,VWS V14.01,2013-05-21 08:22:00,
2013-05-21 04:23:00,63.1,62.2,29.93,West,268,0.0,0.0,97,0.00,,---,0.00,VWS V14.01,2013-05-21 08:23:00,
2013-05-21 04:24:00,63.1,62.2,29.93,West,268,0.0,0.0,97,0.00,,---,0.00,VWS V14.01,2013-05-21 08:24:00,
2013-05-21 04:25:00,63.1,62.2,29.93,West,268,0.0,0.0,97,0.00,,---,0.00,VWS V14.01,2013-05-21 08:25:00,
2013-05-21 04:26:00,63.1,62.2,29.93,West,268,0.0,0.0,97,0.00,,---,0.00,VWS V14.01,2013-05-21 08:26:00,
2013-05-21 04:27:00,62.9,62.0,29.93,West,268,0.0,0.0,97,0.00,,---,0.00,VWS V14.01,2013-05-21 08:27:00,
2013-05-21 04:28:00,62.9,62.0,29.93,West,268,0.0,0.0,97,0.00,,---,0.00,VWS V14.01,2013-05-21 08:28:00,
2013-05-21 04:29:00,62.9,62.0,29.93,West,268,0.0,0.0,97,0.00,,---,0.00,VWS V14.01,2013-05-21 08:29:00,
2013-05-21 04:30:00,62.9,62.0,29.93,West,268,0.0,0.0,97,0.00,,---,0.00,VWS V14.01,2013-05-21 08:30:00,
2013-05-21 04:31:00,62.9,62.0,29.93,West,268,0.0,0.0,97,0.00,,---,0.00,VWS V14.01,2013-05-21 08:31:00,
2013-05-21 04:32:00,62.9,62.0,29.93,West,268,0.0,0.0,97,0.00,,---,0.00,VWS V14.01,2013-05-21 08:32:00,
2013-05-21 04:33:00,62.9,62.0,29.93,West,268,0.0,0.0,97,0.00,,---,0.00,VWS V14.01,2013-05-21 08:33:00,
2013-05-21 04:34:00,62.9,62.0,29.93,West,268,0.0,0.0,97,0.00,,---,0.00,VWS V14.01,2013-05-21 08:34:00,
2013-05-21 04:35:00,62.9,62.0,29.93,West,268,0.0,0.0,97,0.00,,---,0.00,VWS V14.01,2013-05-21 08:35:00,
2013-05-21 04:36:00,62.7,61.8,29.93,West,268,0.0,0.0,97,0.00,,---,0.00,VWS V14.01,2013-05-21 08:36:00,
2013-05-21 04:37:00,62.7,61.8,29.93,West,268,0.0,0.0,97,0.00,,---,0.00,VWS V14.01,2013-05-21 08:37:00,
2013-05-21 04:38:00,62.7,61.8,29.93,West,268,0.0,0.0,97,0.00,,---,0.00,VWS V14.01,2013-05-21 08:38:00,
2013-05-21 04:39:00,62.7,61.8,29.93,West,268,0.0,0.0,97,0.00,,---,0.00,VWS V14.01,2013-05-21 08:39:00,
2013-05-21 04:40:00,62.7,61.8,29.93,West,268,0.0,0.0,97,0.00,,---,0.00,VWS V14.01,2013-05-21 08:40:00,
2013-05-21 04:41:00,62.7,61.8,29.93,West,268,0.0,0.0,97,0.00,,---,0.00,VWS V14.01,2013-05-21 08:41:00,
2013-05-21 04:42:00,62.7,61.8,29.93,West,268,0.0,0.0,97,0.00,,---,0.00,VWS V14.01,2013-05-21 08:42:00,
2013-05-21 04:43:00,62.7,61.8,29.93,West,268,0.0,0.0,97,0.00,,---,0.00,VWS V14.01,2013-05-21 08:43:00,
2013-05-21 04:44:00,62.7,61.8,29.93,West,268,0.0,0.0,97,0.00,,---,0.00,VWS V14.01,2013-05-21 08:44:00,
2013-05-21 04:45:00,62.7,61.8,29.94,West,268,0.0,0.0,97,0.00,,---,0.00,VWS V14.01,2013-05-21 08:45:00,
2013-05-21 04:46:00,62.7,61.8,29.94,West,268,0.0,0.0,97,0.00,,---,0.00,VWS V14.01,2013-05-21 08:46:00,
2013-05-21 04:47:00,62.7,61.8,29.94,West,268,0.0,0.0,97,0.00,,---,0.00,VWS V14.01,2013-05-21 08:47:00,
2013-05-21 04:48:00,62.7,61.8,29.94,West,268,0.0,0.0,97,0.00,,---,0.00,VWS V14.01,2013-05-21 08:48:00,
2013-05-21 04:49:00,62.7,62.1,29.94,West,268,0.0,0.0,98,0.00,,---,0.00,VWS V14.01,2013-05-21 08:49:00,
2013-05-21 04:50:00,62.7,62.1,29.94,West,268,0.0,0.0,98,0.00,,---,0.00,VWS V14.01,2013-05-21 08:50:00,
2013-05-21 04:51:00,62.7,62.1,29.94,West,268,0.0,0.0,98,0.00,,---,0.00,VWS V14.01,2013-05-21 08:51:00,
2013-05-21 04:52:00,62.7,62.1,29.94,West,268,0.0,0.0,98,0.00,,---,0.00,VWS V14.01,2013-05-21 08:52:00,
2013-05-21 04:53:00,62.7,62.1,29.94,West,268,0.0,0.0,98,0.00,,---,0.00,VWS V14.01,2013-05-21 08:53:00,
2013-05-21 04:54:00,62.7,62.1,29.94,West,268,0.0,0.0,98,0.00,,---,0.00,VWS V14.01,2013-05-21 08:54:00,
2013-05-21 04:55:00,62.7,62.1,29.94,West,268,0.0,0.0,98,0.00,,---,0.00,VWS V14.01,2013-05-21 08:55:00,
2013-05-21 04:56:00,62.7,62.1,29.94,West,268,0.0,0.0,98,0.00,,---,0.00,VWS V14.01,2013-05-21 08:56:00,
2013-05-21 04:57:00,62.7,62.1,29.94,West,268,0.0,0.0,98,0.00,,---,0.00,VWS V14.01,2013-05-21 08:57:00,
2013-05-21 04:58:00,62.7,62.1,29.94,West,268,0.0,0.0,98,0.00,,---,0.00,VWS V14.01,2013-05-21 08:58:00,
2013-05-21 04:59:00,62.7,62.1,29.94,West,268,0.0,0.0,98,0.00,,---,0.00,VWS V14.01,2013-05-21 08:59:00,
2013-05-21 05:00:00,62.7,62.1,29.94,West,268,0.0,0.0,98,0.00,,---,0.00,VWS V14.01,2013-05-21 09:00:00,
2013-05-21 05:01:00,62.6,62.0,29.94,West,268,0.0,0.0,98,0.00,,---,0.00,VWS V14.01,2013-05-21 09:01:00,
2013-05-21 05:02:00,62.7,62.1,29.94,West,268,0.0,0.0,98,0.00,,---,0.00,VWS V14.01,2013-05-21 09:02:00,
2013-05-21 05:03:00,62.7,62.1,29.94,West,268,0.0,0.0,98,0.00,,---,0.00,VWS V14.01,2013-05-21 09:03:00,
2013-05-21 05:04:00,62.7,62.1,29.94,West,268,0.0,0.0,98,0.00,,---,0.00,VWS V14.01,2013-05-21 09:04:00,
2013-05-21 05:05:00,62.7,62.1,29.94,West,268,0.0,0.0,98,0.00,,---,0.00,VWS V14.01,2013-05-21 09:05:00,
2013-05-21 05:06:00,62.7,62.1,29.94,West,268,0.0,0.0,98,0.00,,---,0.00,VWS V14.01,2013-05-21 09:06:00,
2013-05-21 05:07:00,62.7,62.1,29.94,West,268,0.0,0.0,98,0.00,,---,0.00,VWS V14.01,2013-05-21 09:07:00,
2013-05-21 05:08:00,62.7,62.1,29.94,West,268,0.0,0.0,98,0.00,,---,0.00,VWS V14.01,2013-05-21 09:08:00,
2013-05-21 05:09:00,62.7,62.1,29.94,West,268,0.0,0.0,98,0.00,,---,0.00,VWS V14.01,2013-05-21 09:09:00,
2013-05-21 05:10:00,62.7,62.1,29.94,West,268,0.0,0.0,98,0.00,,---,0.00,VWS V14.01,2013-05-21 09:10:00,
2013-05-21 05:11:00,62.7,62.1,29.94,West,268,0.0,0.0,98,0.00,,---,0.00,VWS V14.01,2013-05-21 09:11:00,
2013-05-21 05:12:00,62.7,62.1,29.94,West,268,0.0,0.0,98,0.00,,---,0.00,VWS V14.01,2013-05-21 09:12:00,
2013-05-21 05:13:00,62.7,62.1,29.94,West,268,0.0,0.0,98,0.00,,---,0.00,VWS V14.01,2013-05-21 09:13:00,
2013-05-21 05:14:00,62.7,62.1,29.94,West,268,0.0,0.0,98,0.00,,---,0.00,VWS V14.01,2013-05-21 09:14:00,
2013-05-21 05:15:00,62.7,62.1,29.95,West,268,0.0,0.0,98,0.00,,---,0.00,VWS V14.01,2013-05-21 09:15:00,
2013-05-21 05:16:00,62.9,62.3,29.95,West,268,0.0,0.0,98,0.00,,---,0.00,VWS V14.01,2013-05-21 09:16:00,
2013-05-21 05:17:00,62.7,62.1,29.95,West,268,0.0,0.0,98,0.00,,---,0.00,VWS V14.01,2013-05-21 09:17:00,
2013-05-21 05:18:00,62.9,62.3,29.95,West,268,0.0,0.0,98,0.00,,---,0.00,VWS V14.01,2013-05-21 09:18:00,
2013-05-21 05:19:00,62.9,62.3,29.95,West,268,0.0,0.0,98,0.00,,---,0.00,VWS V14.01,2013-05-21 09:19:00,
2013-05-21 05:20:00,62.9,62.3,29.95,West,268,0.0,0.0,98,0.00,,---,0.00,VWS V14.01,2013-05-21 09:20:00,
2013-05-21 05:21:00,62.9,62.3,29.95,West,268,0.0,0.0,98,0.00,,---,0.00,VWS V14.01,2013-05-21 09:21:00,
2013-05-21 05:22:00,62.9,62.3,29.95,West,268,0.0,0.0,98,0.00,,---,0.00,VWS V14.01,2013-05-21 09:22:00,
2013-05-21 05:23:00,62.9,62.6,29.95,West,268,0.0,0.0,99,0.00,,---,0.00,VWS V14.01,2013-05-21 09:23:00,
2013-05-21 05:24:00,62.9,62.3,29.95,West,268,0.0,0.0,98,0.00,,---,0.00,VWS V14.01,2013-05-21 09:24:00,
2013-05-21 05:25:00,62.9,62.3,29.95,West,268,0.0,0.0,98,0.00,,---,0.00,VWS V14.01,2013-05-21 09:25:00,
2013-05-21 05:26:00,62.9,62.6,29.95,West,268,0.0,0.0,99,0.00,,---,0.00,VWS V14.01,2013-05-21 09:26:00,
2013-05-21 05:27:00,62.9,62.3,29.95,West,268,0.0,0.0,98,0.00,,---,0.00,VWS V14.01,2013-05-21 09:27:00,
2013-05-21 05:28:00,62.9,62.6,29.95,West,268,0.0,0.0,99,0.00,,---,0.00,VWS V14.01,2013-05-21 09:28:00,
2013-05-21 05:29:00,62.9,62.6,29.95,West,268,0.0,0.0,99,0.00,,---,0.00,VWS V14.01,2013-05-21 09:29:00,
2013-05-21 05:30:00,62.9,62.6,29.94,West,268,0.0,0.0,99,0.00,,---,0.00,VWS V14.01,2013-05-21 09:30:00,
2013-05-21 05:31:00,62.9,62.6,29.94,West,268,0.0,0.0,99,0.00,,---,0.00,VWS V14.01,2013-05-21 09:31:00,
2013-05-21 05:32:00,62.9,62.6,29.94,West,268,0.0,0.0,99,0.00,,---,0.00,VWS V14.01,2013-05-21 09:32:00,
2013-05-21 05:33:00,62.9,62.6,29.94,West,268,0.0,0.0,99,0.00,,---,0.00,VWS V14.01,2013-05-21 09:33:00,
2013-05-21 05:34:00,62.9,62.6,29.94,West,268,0.0,0.0,99,0.00,,---,0.00,VWS V14.01,2013-05-21 09:34:00,
2013-05-21 05:35:00,62.9,62.6,29.94,West,268,0.0,0.0,99,0.00,,---,0.00,VWS V14.01,2013-05-21 09:35:00,
2013-05-21 05:36:00,62.9,62.6,29.94,West,268,0.0,0.0,99,0.00,,---,0.00,VWS V14.01,2013-05-21 09:36:00,
2013-05-21 05:37:00,63.1,62.8,29.94,West,268,0.0,0.0,99,0.00,,---,0.00,VWS V14.01,2013-05-21 09:37:00,
2013-05-21 05:38:00,63.1,62.8,29.94,West,268,0.0,0.0,99,0.00,,---,0.00,VWS V14.01,2013-05-21 09:38:00,
2013-05-21 05:39:00,63.1,62.8,29.94,West,268,0.0,0.0,99,0.00,,---,0.00,VWS V14.01,2013-05-21 09:39:00,
2013-05-21 05:40:00,63.1,62.8,29.94,West,268,0.0,0.0,99,0.00,,---,0.00,VWS V14.01,2013-05-21 09:40:00,
2013-05-21 05:41:00,63.1,62.8,29.94,West,268,0.0,0.0,99,0.00,,---,0.00,VWS V14.01,2013-05-21 09:41:00,
2013-05-21 05:42:00,63.1,62.8,29.94,West,268,0.0,0.0,99,0.00,,---,0.00,VWS V14.01,2013-05-21 09:42:00,
2013-05-21 05:43:00,63.2,62.9,29.94,West,268,0.0,0.0,99,0.00,,---,0.00,VWS V14.01,2013-05-21 09:43:00,
2013-05-21 05:44:00,63.2,62.9,29.94,West,268,0.0,0.0,99,0.00,,---,0.00,VWS V14.01,2013-05-21 09:44:00,
2013-05-21 05:45:00,63.2,62.9,29.93,West,268,0.0,0.0,99,0.00,,---,0.00,VWS V14.01,2013-05-21 09:45:00,
2013-05-21 05:46:00,63.2,62.9,29.93,West,268,0.0,0.0,99,0.00,,---,0.00,VWS V14.01,2013-05-21 09:46:00,
2013-05-21 05:47:00,63.2,62.9,29.93,West,268,0.0,0.0,99,0.00,,---,0.00,VWS V14.01,2013-05-21 09:47:00,
2013-05-21 05:48:00,63.2,62.9,29.93,West,268,0.0,0.0,99,0.00,,---,0.00,VWS V14.01,2013-05-21 09:48:00,
2013-05-21 05:49:00,63.4,63.1,29.93,West,268,0.0,0.0,99,0.00,,---,0.00,VWS V14.01,2013-05-21 09:49:00,
2013-05-21 05:50:00,63.4,63.1,29.93,West,268,0.0,0.0,99,0.00,,---,0.00,VWS V14.01,2013-05-21 09:50:00,
2013-05-21 05:51:00,63.4,63.1,29.93,West,268,0.0,0.0,99,0.00,,---,0.00,VWS V14.01,2013-05-21 09:51:00,
2013-05-21 05:52:00,63.5,63.2,29.93,West,268,0.0,0.0,99,0.00,,---,0.00,VWS V14.01,2013-05-21 09:52:00,
2013-05-21 05:53:00,63.5,63.2,29.93,West,268,0.0,0.0,99,0.00,,---,0.00,VWS V14.01,2013-05-21 09:53:00,
2013-05-21 05:54:00,63.5,63.2,29.93,West,268,0.0,0.0,99,0.00,,---,0.00,VWS V14.01,2013-05-21 09:54:00,
2013-05-21 05:55:00,63.5,63.2,29.93,West,268,0.0,0.0,99,0.00,,---,0.00,VWS V14.01,2013-05-21 09:55:00,
2013-05-21 05:56:00,63.5,63.2,29.93,West,268,0.0,0.0,99,0.00,,---,0.00,VWS V14.01,2013-05-21 09:56:00,
2013-05-21 05:57:00,63.5,63.2,29.93,West,268,0.0,0.0,99,0.00,,---,0.00,VWS V14.01,2013-05-21 09:57:00,
2013-05-21 05:58:00,63.5,63.2,29.93,West,268,0.0,0.0,99,0.00,,---,0.00,VWS V14.01,2013-05-21 09:58:00,
2013-05-21 05:59:00,63.7,63.4,29.93,West,268,0.0,0.0,99,0.00,,---,0.00,VWS V14.01,2013-05-21 09:59:00,
2013-05-21 06:00:00,63.7,63.4,29.95,West,268,0.0,0.0,99,0.00,,---,0.00,VWS V14.01,2013-05-21 10:00:00,
2013-05-21 06:01:00,63.7,63.4,29.95,West,268,0.0,0.0,99,0.00,,---,0.00,VWS V14.01,2013-05-21 10:01:00,
2013-05-21 06:02:00,63.7,63.4,29.95,West,268,0.0,0.0,99,0.00,,---,0.00,VWS V14.01,2013-05-21 10:02:00,
2013-05-21 06:03:00,63.7,63.4,29.95,West,268,0.0,0.0,99,0.00,,---,0.00,VWS V14.01,2013-05-21 10:03:00,
2013-05-21 06:04:00,63.7,63.4,29.95,West,268,0.0,0.0,99,0.00,,---,0.00,VWS V14.01,2013-05-21 10:04:00,
2013-05-21 06:05:00,63.7,63.4,29.95,West,268,0.0,0.0,99,0.00,,---,0.00,VWS V14.01,2013-05-21 10:05:00,
2013-05-21 06:06:00,63.7,63.4,29.95,West,268,0.0,0.0,99,0.00,,---,0.00,VWS V14.01,2013-05-21 10:06:00,
2013-05-21 06:07:00,63.7,63.4,29.95,West,268,0.0,0.0,99,0.00,,---,0.00,VWS V14.01,2013-05-21 10:07:00,
2013-05-21 06:08:00,63.9,63.6,29.95,West,268,0.0,0.0,99,0.00,,---,0.00,VWS V14.01,2013-05-21 10:08:00,
2013-05-21 06:09:00,63.9,63.6,29.95,West,268,0.0,0.0,99,0.00,,---,0.00,VWS V14.01,2013-05-21 10:09:00,
2013-05-21 06:10:00,63.9,63.6,29.95,West,268,0.0,0.0,99,0.00,,---,0.00,VWS V14.01,2013-05-21 10:10:00,
2013-05-21 06:11:00,63.9,63.6,29.95,West,268,0.0,0.0,99,0.00,,---,0.00,VWS V14.01,2013-05-21 10:11:00,
2013-05-21 06:12:00,63.9,63.6,29.95,West,268,0.0,0.0,99,0.00,,---,0.00,VWS V14.01,2013-05-21 10:12:00,
2013-05-21 06:13:00,63.9,63.6,29.95,West,268,0.0,0.0,99,0.00,,---,0.00,VWS V14.01,2013-05-21 10:13:00,
2013-05-21 06:14:00,64.0,63.7,29.95,West,268,0.0,0.0,99,0.00,,---,0.00,VWS V14.01,2013-05-21 10:14:00,
2013-05-21 06:15:00,64.0,63.7,29.96,West,268,0.0,0.0,99,0.00,,---,0.00,VWS V14.01,2013-05-21 10:15:00,
2013-05-21 06:16:00,64.0,63.7,29.96,West,268,0.0,0.0,99,0.00,,---,0.00,VWS V14.01,2013-05-21 10:16:00,
2013-05-21 06:17:00,64.0,63.7,29.96,West,268,0.0,0.0,99,0.00,,---,0.00,VWS V14.01,2013-05-21 10:17:00,
2013-05-21 06:18:00,64.2,63.9,29.96,West,268,0.0,0.0,99,0.00,,---,0.00,VWS V14.01,2013-05-21 10:18:00,
2013-05-21 06:19:00,64.2,63.9,29.96,West,268,0.0,0.0,99,0.00,,---,0.00,VWS V14.01,2013-05-21 10:19:00,
2013-05-21 06:20:00,64.3,64.0,29.96,West,268,0.0,0.0,99,0.00,,---,0.00,VWS V14.01,2013-05-21 10:20:00,
2013-05-21 06:21:00,64.3,64.0,29.96,West,268,0.0,0.0,99,0.00,,---,0.00,VWS V14.01,2013-05-21 10:21:00,
2013-05-21 06:22:00,64.3,64.0,29.96,West,268,0.0,0.0,99,0.00,,---,0.00,VWS V14.01,2013-05-21 10:22:00,
2013-05-21 06:23:00,64.5,64.2,29.96,West,268,0.0,0.0,99,0.00,,---,0.00,VWS V14.01,2013-05-21 10:23:00,
2013-05-21 06:24:00,64.5,64.2,29.96,West,268,0.0,0.0,99,0.00,,---,0.00,VWS V14.01,2013-05-21 10:24:00,
2013-05-21 06:25:00,64.7,64.4,29.96,West,268,0.0,0.0,99,0.00,,---,0.00,VWS V14.01,2013-05-21 10:25:00,
2013-05-21 06:26:00,64.7,64.4,29.96,West,268,0.0,0.0,99,0.00,,---,0.00,VWS V14.01,2013-05-21 10:26:00,
2013-05-21 06:27:00,64.8,64.5,29.96,West,268,0.0,0.0,99,0.00,,---,0.00,VWS V14.01,2013-05-21 10:27:00,
2013-05-21 06:28:00,64.8,64.5,29.96,West,268,0.0,0.0,99,0.00,,---,0.00,VWS V14.01,2013-05-21 10:28:00,
2013-05-21 06:29:00,65.0,64.7,29.96,West,268,0.0,0.0,99,0.00,,---,0.00,VWS V14.01,2013-05-21 10:29:00,
2013-05-21 06:30:00,65.0,64.7,29.95,West,268,0.0,1.0,99,0.00,,---,0.00,VWS V14.01,2013-05-21 10:30:00,
2013-05-21 06:31:00,65.0,64.7,29.95,West,268,0.0,0.0,99,0.00,,---,0.00,VWS V14.01,2013-05-21 10:31:00,
2013-05-21 06:32:00,65.2,64.9,29.95,West,268,0.0,1.0,99,0.00,,---,0.00,VWS V14.01,2013-05-21 10:32:00,
2013-05-21 06:33:00,65.2,64.9,29.95,West,268,0.0,1.0,99,0.00,,---,0.00,VWS V14.01,2013-05-21 10:33:00,
2013-05-21 06:34:00,65.2,64.9,29.95,West,268,0.0,1.0,99,0.00,,---,0.00,VWS V14.01,2013-05-21 10:34:00,
2013-05-21 06:35:00,65.2,64.9,29.95,West,268,0.0,1.0,99,0.00,,---,0.00,VWS V14.01,2013-05-21 10:35:00,
2013-05-21 06:36:00,65.2,64.9,29.95,West,268,0.0,0.0,99,0.00,,---,0.00,VWS V14.01,2013-05-21 10:36:00,
2013-05-21 06:37:00,65.3,65.0,29.95,West,268,0.0,1.0,99,0.00,,---,0.00,VWS V14.01,2013-05-21 10:37:00,
2013-05-21 06:38:00,65.3,65.0,29.95,West,268,0.0,1.0,99,0.00,,---,0.00,VWS V14.01,2013-05-21 10:38:00,
2013-05-21 06:39:00,65.3,65.0,29.95,West,268,0.0,1.0,99,0.00,,---,0.00,VWS V14.01,2013-05-21 10:39:00,
2013-05-21 06:40:00,65.5,65.2,29.95,West,268,0.0,1.0,99,0.00,,---,0.00,VWS V14.01,2013-05-21 10:40:00,
2013-05-21 06:41:00,65.5,65.2,29.95,West,268,0.0,0.0,99,0.00,,---,0.00,VWS V14.01,2013-05-21 10:41:00,
2013-05-21 06:42:00,65.5,65.2,29.95,West,268,0.0,0.0,99,0.00,,---,0.00,VWS V14.01,2013-05-21 10:42:00,
2013-05-21 06:43:00,65.6,65.3,29.95,West,268,0.0,0.0,99,0.00,,---,0.00,VWS V14.01,2013-05-21 10:43:00,
2013-05-21 06:44:00,65.8,65.5,29.95,West,268,1.0,1.0,99,0.00,,---,0.00,VWS V14.01,2013-05-21 10:44:00,
2013-05-21 06:45:00,65.8,65.5,29.93,West,268,0.0,1.0,99,0.00,,---,0.00,VWS V14.01,2013-05-21 10:45:00,
2013-05-21 06:46:00,65.8,65.5,29.93,West,268,0.0,1.0,99,0.00,,---,0.00,VWS V14.01,2013-05-21 10:46:00,
2013-05-21 06:47:00,66.0,65.7,29.93,West,268,0.0,1.0,99,0.00,,---,0.00,VWS V14.01,2013-05-21 10:47:00,
2013-05-21 06:48:00,66.0,65.7,29.93,West,268,0.0,1.0,99,0.00,,---,0.00,VWS V14.01,2013-05-21 10:48:00,
2013-05-21 06:49:00,66.1,65.5,29.93,West,268,0.0,1.0,98,0.00,,---,0.00,VWS V14.01,2013-05-21 10:49:00,
2013-05-21 06:50:00,66.1,65.8,29.93,West,268,0.0,1.0,99,0.00,,---,0.00,VWS V14.01,2013-05-21 10:50:00,
2013-05-21 06:51:00,66.3,65.7,29.93,West,268,0.0,0.0,98,0.00,,---,0.00,VWS V14.01,2013-05-21 10:51:00,
2013-05-21 06:52:00,66.3,65.7,29.93,West,268,0.0,1.0,98,0.00,,---,0.00,VWS V14.01,2013-05-21 10:52:00,
2013-05-21 06:53:00,66.4,65.8,29.93,West,268,0.0,1.0,98,0.00,,---,0.00,VWS V14.01,2013-05-21 10:53:00,
2013-05-21 06:54:00,66.4,65.8,29.93,West,268,0.0,1.0,98,0.00,,---,0.00,VWS V14.01,2013-05-21 10:54:00,
2013-05-21 06:55:00,66.6,66.0,29.93,West,268,0.0,1.0,98,0.00,,---,0.00,VWS V14.01,2013-05-21 10:55:00,
2013-05-21 06:56:00,66.8,66.2,29.93,West,268,0.0,0.0,98,0.00,,---,0.00,VWS V14.01,2013-05-21 10:56:00,
2013-05-21 06:57:00,66.9,66.3,29.93,West,268,0.0,0.0,98,0.00,,---,0.00,VWS V14.01,2013-05-21 10:57:00,
2013-05-21 06:58:00,66.9,66.3,29.93,West,268,0.0,0.0,98,0.00,,---,0.00,VWS V14.01,2013-05-21 10:58:00,
2013-05-21 06:59:00,67.1,66.5,29.93,West,268,0.0,0.0,98,0.00,,---,0.00,VWS V14.01,2013-05-21 10:59:00,
2013-05-21 07:00:00,67.1,66.5,29.93,West,268,0.0,0.0,98,0.00,,---,0.00,VWS V14.01,2013-05-21 11:00:00,
2013-05-21 07:01:00,67.1,66.5,29.93,West,268,0.0,0.0,98,0.00,,---,0.00,VWS V14.01,2013-05-21 11:01:00,
2013-05-21 07:02:00,67.3,66.7,29.93,West,268,0.0,0.0,98,0.00,,---,0.00,VWS V14.01,2013-05-21 11:02:00,
2013-05-21 07:03:00,67.3,66.7,29.93,West,268,0.0,0.0,98,0.00,,---,0.00,VWS V14.01,2013-05-21 11:03:00,
2013-05-21 07:04:00,67.4,66.8,29.93,West,268,0.0,0.0,98,0.00,,---,0.00,VWS V14.01,2013-05-21 11:04:00,
2013-05-21 07:05:00,67.4,66.5,29.93,West,268,0.0,0.0,97,0.00,,---,0.00,VWS V14.01,2013-05-21 11:05:00,
2013-05-21 07:06:00,67.6,66.7,29.93,West,268,0.0,0.0,97,0.00,,---,0.00,VWS V14.01,2013-05-21 11:06:00,
2013-05-21 07:07:00,67.6,66.7,29.93,West,268,0.0,0.0,97,0.00,,---,0.00,VWS V14.01,2013-05-21 11:07:00,
2013-05-21 07:08:00,67.8,66.9,29.93,West,268,0.0,0.0,97,0.00,,---,0.00,VWS V14.01,2013-05-21 11:08:00,
2013-05-21 07:09:00,67.8,66.9,29.93,West,268,0.0,0.0,97,0.00,,---,0.00,VWS V14.01,2013-05-21 11:09:00,
2013-05-21 07:10:00,67.8,66.9,29.93,West,268,0.0,0.0,97,0.00,,---,0.00,VWS V14.01,2013-05-21 11:10:00,
2013-05-21 07:11:00,67.9,67.0,29.93,West,268,0.0,0.0,97,0.00,,---,0.00,VWS V14.01,2013-05-21 11:11:00,
2013-05-21 07:12:00,67.9,67.0,29.93,West,268,0.0,0.0,97,0.00,,---,0.00,VWS V14.01,2013-05-21 11:12:00,
2013-05-21 07:13:00,68.1,66.9,29.93,West,268,0.0,0.0,96,0.00,,---,0.00,VWS V14.01,2013-05-21 11:13:00,
2013-05-21 07:14:00,68.1,66.9,29.93,West,268,0.0,0.0,96,0.00,,---,0.00,VWS V14.01,2013-05-21 11:14:00,
2013-05-21 07:15:00,68.3,67.1,29.94,West,268,0.0,0.0,96,0.00,,---,0.00,VWS V14.01,2013-05-21 11:15:00,
2013-05-21 07:16:00,68.3,67.1,29.94,West,268,0.0,0.0,96,0.00,,---,0.00,VWS V14.01,2013-05-21 11:16:00,
2013-05-21 07:17:00,68.4,67.2,29.94,West,268,0.0,0.0,96,0.00,,---,0.00,VWS V14.01,2013-05-21 11:17:00,
2013-05-21 07:18:00,68.4,67.2,29.94,West,268,0.0,0.0,96,0.00,,---,0.00,VWS V14.01,2013-05-21 11:18:00,
2013-05-21 07:19:00,68.6,67.1,29.94,West,268,0.0,0.0,95,0.00,,---,0.00,VWS V14.01,2013-05-21 11:19:00,
2013-05-21 07:20:00,68.8,67.3,29.94,West,268,0.0,1.0,95,0.00,,---,0.00,VWS V14.01,2013-05-21 11:20:00,
2013-05-21 07:21:00,68.8,67.3,29.94,West,268,0.0,0.0,95,0.00,,---,0.00,VWS V14.01,2013-05-21 11:21:00,
2013-05-21 07:22:00,68.8,67.0,29.94,West,268,0.0,0.0,94,0.00,,---,0.00,VWS V14.01,2013-05-21 11:22:00,
2013-05-21 07:23:00,68.9,67.1,29.94,West,268,0.0,0.0,94,0.00,,---,0.00,VWS V14.01,2013-05-21 11:23:00,
2013-05-21 07:24:00,69.1,67.3,29.94,West,268,0.0,0.0,94,0.00,,---,0.00,VWS V14.01,2013-05-21 11:24:00,
2013-05-21 07:25:00,69.1,67.3,29.94,West,268,0.0,0.0,94,0.00,,---,0.00,VWS V14.01,2013-05-21 11:25:00,
2013-05-21 07:26:00,69.3,67.5,29.94,West,268,0.0,0.0,94,0.00,,---,0.00,VWS V14.01,2013-05-21 11:26:00,
2013-05-21 07:27:00,69.3,67.5,29.94,West,268,0.0,0.0,94,0.00,,---,0.00,VWS V14.01,2013-05-21 11:27:00,
2013-05-21 07:28:00,69.4,67.3,29.94,West,268,0.0,0.0,93,0.00,,---,0.00,VWS V14.01,2013-05-21 11:28:00,
2013-05-21 07:29:00,69.4,67.3,29.94,West,268,0.0,0.0,93,0.00,,---,0.00,VWS V14.01,2013-05-21 11:29:00,
2013-05-21 07:30:00,69.6,67.5,29.93,West,268,0.0,0.0,93,0.00,,---,0.00,VWS V14.01,2013-05-21 11:30:00,
2013-05-21 07:31:00,69.8,67.4,29.93,West,268,0.0,0.0,92,0.00,,---,0.00,VWS V14.01,2013-05-21 11:31:00,
2013-05-21 07:32:00,69.9,67.5,29.93,West,268,0.0,1.0,92,0.00,,---,0.00,VWS V14.01,2013-05-21 11:32:00,
2013-05-21 07:33:00,69.9,67.2,29.93,SSW,202,2.0,3.0,91,0.00,,---,0.00,VWS V14.01,2013-05-21 11:33:00,
2013-05-21 07:34:00,70.1,67.4,29.93,SSW,202,0.0,3.0,91,0.00,,---,0.00,VWS V14.01,2013-05-21 11:34:00,
2013-05-21 07:35:00,70.1,67.4,29.93,SSW,202,2.0,3.0,91,0.00,,---,0.00,VWS V14.01,2013-05-21 11:35:00,
2013-05-21 07:36:00,70.3,67.2,29.93,SSW,202,0.0,2.0,90,0.00,,---,0.00,VWS V14.01,2013-05-21 11:36:00,
2013-05-21 07:37:00,70.3,67.2,29.93,SSW,202,0.0,2.0,90,0.00,,---,0.00,VWS V14.01,2013-05-21 11:37:00,
2013-05-21 07:38:00,70.3,67.2,29.93,SSW,202,0.0,2.0,90,0.00,,---,0.00,VWS V14.01,2013-05-21 11:38:00,
2013-05-21 07:39:00,70.4,67.3,29.93,SSW,202,0.0,3.0,90,0.00,,---,0.00,VWS V14.01,2013-05-21 11:39:00,
2013-05-21 07:40:00,70.4,67.3,29.93,SSW,202,0.0,3.0,90,0.00,,---,0.00,VWS V14.01,2013-05-21 11:40:00,
2013-05-21 07:41:00,70.6,67.5,29.93,SSW,198,0.0,1.0,90,0.00,,---,0.00,VWS V14.01,2013-05-21 11:41:00,
2013-05-21 07:42:00,70.8,67.4,29.93,SSW,198,1.0,1.0,89,0.00,,---,0.00,VWS V14.01,2013-05-21 11:42:00,
2013-05-21 07:43:00,70.9,67.5,29.93,SSW,198,0.0,1.0,89,0.00,,---,0.00,VWS V14.01,2013-05-21 11:43:00,
2013-05-21 07:44:00,70.9,67.2,29.93,SSW,198,0.0,1.0,88,0.00,,---,0.00,VWS V14.01,2013-05-21 11:44:00,
2013-05-21 07:45:00,71.1,67.4,29.92,SSW,198,3.0,5.0,88,0.00,,---,0.00,VWS V14.01,2013-05-21 11:45:00,
2013-05-21 07:46:00,71.1,67.4,29.92,SSW,198,0.0,3.0,88,0.00,,---,0.00,VWS V14.01,2013-05-21 11:46:00,
2013-05-21 07:47:00,71.1,67.0,29.92,SSW,198,0.0,3.0,87,0.00,,---,0.00,VWS V14.01,2013-05-21 11:47:00,
2013-05-21 07:48:00,71.1,67.0,29.92,SSW,198,0.0,3.0,87,0.00,,---,0.00,VWS V14.01,2013-05-21 11:48:00,
2013-05-21 07:49:00,71.3,67.2,29.92,SSW,198,0.0,3.0,87,0.00,,---,0.00,VWS V14.01,2013-05-21 11:49:00,
2013-05-21 07:50:00,71.5,67.4,29.92,SSW,196,0.0,3.0,87,0.00,,---,0.00,VWS V14.01,2013-05-21 11:50:00,
2013-05-21 07:51:00,71.5,67.1,29.92,SSW,196,0.0,0.0,86,0.00,,---,0.00,VWS V14.01,2013-05-21 11:51:00,
2013-05-21 07:52:00,71.6,67.2,29.92,SSW,195,0.0,0.0,86,0.00,,---,0.00,VWS V14.01,2013-05-21 11:52:00,
2013-05-21 07:53:00,71.8,67.4,29.92,SSW,196,0.0,1.0,86,0.00,,---,0.00,VWS V14.01,2013-05-21 11:53:00,
2013-05-21 07:54:00,71.8,67.4,29.92,SSW,196,0.0,1.0,86,0.00,,---,0.00,VWS V14.01,2013-05-21 11:54:00,
2013-05-21 07:55:00,71.8,67.4,29.92,SSW,196,0.0,1.0,86,0.00,,---,0.00,VWS V14.01,2013-05-21 11:55:00,
2013-05-21 07:56:00,72.0,67.6,29.92,SSW,205,4.0,4.0,86,0.00,,---,0.00,VWS V14.01,2013-05-21 11:56:00,
2013-05-21 07:57:00,72.0,67.2,29.92,SSW,205,1.0,4.0,85,0.00,,---,0.00,VWS V14.01,2013-05-21 11:57:00,
2013-05-21 07:58:00,72.0,67.2,29.92,SSW,205,3.0,4.0,85,0.00,,---,0.00,VWS V14.01,2013-05-21 11:58:00,
2013-05-21 07:59:00,72.0,67.2,29.92,SSW,205,0.0,4.0,85,0.00,,---,0.00,VWS V14.01,2013-05-21 11:59:00,
2013-05-21 08:00:00,72.1,67.3,29.92,SSW,192,0.0,4.0,85,0.00,,---,0.00,VWS V14.01,2013-05-21 12:00:00,
2013-05-21 08:01:00,72.1,67.3,29.92,SSW,192,0.0,1.0,85,0.00,,---,0.00,VWS V14.01,2013-05-21 12:01:00,
2013-05-21 08:02:00,72.1,67.3,29.92,SSW,192,0.0,1.0,85,0.00,,---,0.00,VWS V14.01,2013-05-21 12:02:00,
2013-05-21 08:03:00,72.1,67.3,29.92,SSW,197,0.0,1.0,85,0.00,,---,0.00,VWS V14.01,2013-05-21 12:03:00,
2013-05-21 08:04:00,72.1,67.3,29.92,SSE,155,0.0,1.0,85,0.00,,---,0.00,VWS V14.01,2013-05-21 12:04:00,
2013-05-21 08:05:00,72.1,67.3,29.92,SSE,163,0.0,1.0,85,0.00,,---,0.00,VWS V14.01,2013-05-21 12:05:00,
2013-05-21 08:06:00,72.3,67.5,29.92,SSE,163,0.0,0.0,85,0.00,,---,0.00,VWS V14.01,2013-05-21 12:06:00,
2013-05-21 08:07:00,72.3,67.5,29.92,SSE,163,0.0,1.0,85,0.00,,---,0.00,VWS V14.01,2013-05-21 12:07:00,
2013-05-21 08:08:00,72.3,67.5,29.92,SSE,163,0.0,1.0,85,0.00,,---,0.00,VWS V14.01,2013-05-21 12:08:00,
2013-05-21 08:09:00,72.3,67.5,29.92,SSW,194,0.0,1.0,85,0.00,,---,0.00,VWS V14.01,2013-05-21 12:09:00,
2013-05-21 08:10:00,72.5,67.7,29.92,SSW,194,0.0,1.0,85,0.00,,---,0.00,VWS V14.01,2013-05-21 12:10:00,
2013-05-21 08:11:00,72.5,67.7,29.92,SSW,194,0.0,0.0,85,0.00,,---,0.00,VWS V14.01,2013-05-21 12:11:00,
2013-05-21 08:12:00,72.5,67.7,29.92,SSW,194,0.0,0.0,85,0.00,,---,0.00,VWS V14.01,2013-05-21 12:12:00,
2013-05-21 08:13:00,72.7,67.6,29.92,SSW,194,0.0,1.0,84,0.00,,---,0.00,VWS V14.01,2013-05-21 12:13:00,
2013-05-21 08:14:00,72.7,67.6,29.92,SSW,194,0.0,1.0,84,0.00,,---,0.00,VWS V14.01,2013-05-21 12:14:00,
2013-05-21 08:15:00,72.8,67.7,29.92,SSW,194,0.0,1.0,84,0.00,,---,0.00,VWS V14.01,2013-05-21 12:15:00,
2013-05-21 08:16:00,72.8,67.7,29.92,SSW,194,0.0,1.0,84,0.00,,---,0.00,VWS V14.01,2013-05-21 12:16:00,
2013-05-21 08:17:00,73.0,67.9,29.92,SSW,194,0.0,1.0,84,0.00,,---,0.00,VWS V14.01,2013-05-21 12:17:00,
2013-05-21 08:18:00,73.0,67.5,29.92,SSW,194,0.0,1.0,83,0.00,,---,0.00,VWS V14.01,2013-05-21 12:18:00,
2013-05-21 08:19:00,73.0,67.5,29.92,SSW,194,0.0,1.0,83,0.00,,---,0.00,VWS V14.01,2013-05-21 12:19:00,
2013-05-21 08:20:00,73.0,67.5,29.92,SSW,194,0.0,1.0,83,0.00,,---,0.00,VWS V14.01,2013-05-21 12:20:00,
2013-05-21 08:21:00,73.2,67.7,29.92,SSW,194,0.0,1.0,83,0.00,,---,0.00,VWS V14.01,2013-05-21 12:21:00,
2013-05-21 08:22:00,73.2,67.7,29.92,SSW,194,0.0,1.0,83,0.00,,---,0.00,VWS V14.01,2013-05-21 12:22:00,
2013-05-21 08:23:00,73.3,67.8,29.92,SSW,194,0.0,1.0,83,0.00,,---,0.00,VWS V14.01,2013-05-21 12:23:00,
2013-05-21 08:24:00,73.5,68.0,29.92,SSW,194,0.0,1.0,83,0.00,,---,0.00,VWS V14.01,2013-05-21 12:24:00,
2013-05-21 08:25:00,73.5,68.0,29.92,SSW,194,0.0,1.0,83,0.00,,---,0.00,VWS V14.01,2013-05-21 12:25:00,
2013-05-21 08:26:00,73.7,67.9,29.92,SSW,194,0.0,1.0,82,0.00,,---,0.00,VWS V14.01,2013-05-21 12:26:00,
2013-05-21 08:27:00,73.7,67.9,29.92,SSW,194,0.0,1.0,82,0.00,,---,0.00,VWS V14.01,2013-05-21 12:27:00,
2013-05-21 08:28:00,73.9,68.1,29.92,SSW,194,0.0,1.0,82,0.00,,---,0.00,VWS V14.01,2013-05-21 12:28:00,
2013-05-21 08:29:00,73.9,68.1,29.92,SSW,194,0.0,1.0,82,0.00,,---,0.00,VWS V14.01,2013-05-21 12:29:00,
2013-05-21 08:30:00,74.0,68.2,29.92,SSW,194,0.0,1.0,82,0.00,,---,0.00,VWS V14.01,2013-05-21 12:30:00,
2013-05-21 08:31:00,74.0,67.8,29.92,SSW,194,0.0,0.0,81,0.00,,---,0.00,VWS V14.01,2013-05-21 12:31:00,
2013-05-21 08:32:00,74.2,68.0,29.92,SSW,194,0.0,1.0,81,0.00,,---,0.00,VWS V14.01,2013-05-21 12:32:00,
2013-05-21 08:33:00,74.4,68.2,29.92,SSW,194,0.0,1.0,81,0.00,,---,0.00,VWS V14.01,2013-05-21 12:33:00,
2013-05-21 08:34:00,74.6,68.4,29.92,South,184,1.0,1.0,81,0.00,,---,0.00,VWS V14.01,2013-05-21 12:34:00,
2013-05-21 08:35:00,74.6,68.0,29.92,South,184,0.0,1.0,80,0.00,,---,0.00,VWS V14.01,2013-05-21 12:35:00,
2013-05-21 08:36:00,74.7,68.1,29.92,South,184,0.0,0.0,80,0.00,,---,0.00,VWS V14.01,2013-05-21 12:36:00,
2013-05-21 08:37:00,74.9,68.3,29.92,South,184,0.0,1.0,80,0.00,,---,0.00,VWS V14.01,2013-05-21 12:37:00,
2013-05-21 08:38:00,74.9,68.3,29.92,South,184,1.0,2.0,80,0.00,,---,0.00,VWS V14.01,2013-05-21 12:38:00,
2013-05-21 08:39:00,75.1,68.5,29.92,South,184,0.0,2.0,80,0.00,,---,0.00,VWS V14.01,2013-05-21 12:39:00,
2013-05-21 08:40:00,75.1,68.5,29.92,South,184,0.0,2.0,80,0.00,,---,0.00,VWS V14.01,2013-05-21 12:40:00,
2013-05-21 08:41:00,75.3,68.3,29.92,South,184,0.0,0.0,79,0.00,,---,0.00,VWS V14.01,2013-05-21 12:41:00,
2013-05-21 08:42:00,75.3,68.3,29.92,South,184,0.0,0.0,79,0.00,,---,0.00,VWS V14.01,2013-05-21 12:42:00,
2013-05-21 08:43:00,75.4,68.4,29.92,South,184,0.0,1.0,79,0.00,,---,0.00,VWS V14.01,2013-05-21 12:43:00,
2013-05-21 08:44:00,75.4,68.4,29.92,West,263,3.0,3.0,79,0.00,,---,0.00,VWS V14.01,2013-05-21 12:44:00,
2013-05-21 08:45:00,75.6,68.6,29.92,West,268,0.0,3.0,79,0.00,,---,0.00,VWS V14.01,2013-05-21 12:45:00,
2013-05-21 08:46:00,75.6,68.3,29.92,West,268,0.0,1.0,78,0.00,,---,0.00,VWS V14.01,2013-05-21 12:46:00,
2013-05-21 08:47:00,75.6,68.3,29.92,West,268,0.0,1.0,78,0.00,,---,0.00,VWS V14.01,2013-05-21 12:47:00,
2013-05-21 08:48:00,75.8,68.5,29.92,West,268,0.0,1.0,78,0.00,,---,0.00,VWS V14.01,2013-05-21 12:48:00,
2013-05-21 08:49:00,75.8,68.5,29.92,West,268,0.0,1.0,78,0.00,,---,0.00,VWS V14.01,2013-05-21 12:49:00,
2013-05-21 08:50:00,76.0,68.7,29.92,West,268,0.0,1.0,78,0.00,,---,0.00,VWS V14.01,2013-05-21 12:50:00,
2013-05-21 08:51:00,76.0,68.7,29.92,West,268,0.0,0.0,78,0.00,,---,0.00,VWS V14.01,2013-05-21 12:51:00,
2013-05-21 08:52:00,76.1,68.8,29.92,South,186,1.0,4.0,78,0.00,,---,0.00,VWS V14.01,2013-05-21 12:52:00,
2013-05-21 08:53:00,76.3,68.9,29.92,South,186,0.0,4.0,78,0.00,,---,0.00,VWS V14.01,2013-05-21 12:53:00,
2013-05-21 08:54:00,76.5,68.8,29.92,South,186,0.0,4.0,77,0.00,,---,0.00,VWS V14.01,2013-05-21 12:54:00,
2013-05-21 08:55:00,76.7,69.3,29.92,South,186,0.0,4.0,78,0.00,,---,0.00,VWS V14.01,2013-05-21 12:55:00,
2013-05-21 08:56:00,76.7,68.9,29.92,South,186,0.0,0.0,77,0.00,,---,0.00,VWS V14.01,2013-05-21 12:56:00,
2013-05-21 08:57:00,76.8,69.1,29.92,South,186,0.0,1.0,77,0.00,,---,0.00,VWS V14.01,2013-05-21 12:57:00,
2013-05-21 08:58:00,77.0,69.2,29.92,South,186,0.0,1.0,77,0.00,,---,0.00,VWS V14.01,2013-05-21 12:58:00,
2013-05-21 08:59:00,77.0,68.9,29.92,South,186,0.0,1.0,76,0.00,,---,0.00,VWS V14.01,2013-05-21 12:59:00,
2013-05-21 09:00:00,77.2,69.1,29.92,South,186,0.0,1.0,76,0.00,,---,0.00,VWS V14.01,2013-05-21 13:00:00,
2013-05-21 09:01:00,77.2,69.1,29.92,South,187,1.0,1.0,76,0.00,,---,0.00,VWS V14.01,2013-05-21 13:01:00,
2013-05-21 09:02:00,77.4,69.2,29.92,South,187,0.0,1.0,76,0.00,,---,0.00,VWS V14.01,2013-05-21 13:02:00,
2013-05-21 09:03:00,77.4,68.9,29.92,SE,134,2.0,2.0,75,0.00,,---,0.00,VWS V14.01,2013-05-21 13:03:00,
2013-05-21 09:04:00,77.4,68.9,29.92,SE,134,0.0,2.0,75,0.00,,---,0.00,VWS V14.01,2013-05-21 13:04:00,
2013-05-21 09:05:00,77.4,68.9,29.92,SE,137,0.0,2.0,75,0.00,,---,0.00,VWS V14.01,2013-05-21 13:05:00,
2013-05-21 09:06:00,77.4,68.9,29.92,SE,138,0.0,1.0,75,0.00,,---,0.00,VWS V14.01,2013-05-21 13:06:00,
2013-05-21 09:07:00,77.6,69.1,29.92,South,188,0.0,2.0,75,0.00,,---,0.00,VWS V14.01,2013-05-21 13:07:00,
2013-05-21 09:08:00,77.6,69.1,29.92,South,188,0.0,2.0,75,0.00,,---,0.00,VWS V14.01,2013-05-21 13:08:00,
2013-05-21 09:09:00,77.6,69.1,29.92,South,188,0.0,2.0,75,0.00,,---,0.00,VWS V14.01,2013-05-21 13:09:00,
2013-05-21 09:10:00,77.7,69.2,29.92,SSW,202,4.0,4.0,75,0.00,,---,0.00,VWS V14.01,2013-05-21 13:10:00,
2013-05-21 09:11:00,77.7,68.8,29.92,SSW,202,0.0,4.0,74,0.00,,---,0.00,VWS V14.01,2013-05-21 13:11:00,
2013-05-21 09:12:00,77.9,68.9,29.92,SSW,202,0.0,4.0,74,0.00,,---,0.00,VWS V14.01,2013-05-21 13:12:00,
2013-05-21 09:13:00,77.9,68.9,29.92,South,175,0.0,4.0,74,0.00,,---,0.00,VWS V14.01,2013-05-21 13:13:00,
2013-05-21 09:14:00,78.1,69.1,29.92,SSE,150,1.0,4.0,74,0.00,,---,0.00,VWS V14.01,2013-05-21 13:14:00,
2013-05-21 09:15:00,78.1,69.1,29.91,SSE,150,0.0,4.0,74,0.00,,---,0.00,VWS V14.01,2013-05-21 13:15:00,
2013-05-21 09:16:00,78.1,69.1,29.91,SSE,150,0.0,1.0,74,0.00,,---,0.00,VWS V14.01,2013-05-21 13:16:00,
2013-05-21 09:17:00,78.1,69.1,29.91,SE,146,0.0,1.0,74,0.00,,---,0.00,VWS V14.01,2013-05-21 13:17:00,
2013-05-21 09:18:00,78.1,69.1,29.91,SSW,198,3.0,3.0,74,0.00,,---,0.00,VWS V14.01,2013-05-21 13:18:00,
2013-05-21 09:19:00,78.1,69.1,29.91,SSW,196,4.0,5.0,74,0.00,,---,0.00,VWS V14.01,2013-05-21 13:19:00,
2013-05-21 09:20:00,78.3,69.3,29.91,SSW,196,1.0,5.0,74,0.00,,---,0.00,VWS V14.01,2013-05-21 13:20:00,
2013-05-21 09:21:00,78.3,69.3,29.91,SSW,196,0.0,2.0,74,0.00,,---,0.00,VWS V14.01,2013-05-21 13:21:00,
2013-05-21 09:22:00,78.3,69.3,29.91,SSW,197,5.0,5.0,74,0.00,,---,0.00,VWS V14.01,2013-05-21 13:22:00,
2013-05-21 09:23:00,78.3,68.9,29.91,SSW,213,0.0,6.0,73,0.00,,---,0.00,VWS V14.01,2013-05-21 13:23:00,
2013-05-21 09:24:00,78.5,69.1,29.91,SSW,213,1.0,6.0,73,0.00,,---,0.00,VWS V14.01,2013-05-21 13:24:00,
2013-05-21 09:25:00,78.6,69.6,29.91,SSW,213,0.0,6.0,74,0.00,,---,0.00,VWS V14.01,2013-05-21 13:25:00,
2013-05-21 09:26:00,78.6,69.2,29.91,SSE,163,0.0,3.0,73,0.00,,---,0.00,VWS V14.01,2013-05-21 13:26:00,
2013-05-21 09:27:00,78.6,69.2,29.91,SSW,207,0.0,3.0,73,0.00,,---,0.00,VWS V14.01,2013-05-21 13:27:00,
2013-05-21 09:28:00,78.8,69.4,29.91,SSW,207,0.0,3.0,73,0.00,,---,0.00,VWS V14.01,2013-05-21 13:28:00,
2013-05-21 09:29:00,78.8,69.4,29.91,SSW,207,0.0,3.0,73,0.00,,---,0.00,VWS V14.01,2013-05-21 13:29:00,
2013-05-21 09:30:00,79.0,69.6,29.91,SSW,207,0.0,3.0,73,0.00,,---,0.00,VWS V14.01,2013-05-21 13:30:00,
2013-05-21 09:31:00,79.2,69.8,29.91,SSW,207,0.0,1.0,73,0.00,,---,0.00,VWS V14.01,2013-05-21 13:31:00,
2013-05-21 09:32:00,79.2,69.8,29.91,SSW,207,0.0,1.0,73,0.00,,---,0.00,VWS V14.01,2013-05-21 13:32:00,
2013-05-21 09:33:00,79.4,70.0,29.91,SSW,207,0.0,1.0,73,0.00,,---,0.00,VWS V14.01,2013-05-21 13:33:00,
2013-05-21 09:34:00,79.6,70.2,29.91,SSW,207,0.0,1.0,73,0.00,,---,0.00,VWS V14.01,2013-05-21 13:34:00,
2013-05-21 09:35:00,79.6,70.2,29.91,SSW,207,0.0,1.0,73,0.00,,---,0.00,VWS V14.01,2013-05-21 13:35:00,
2013-05-21 09:36:00,79.8,70.0,29.91,South,190,0.0,3.0,72,0.00,,---,0.00,VWS V14.01,2013-05-21 13:36:00,
2013-05-21 09:37:00,79.8,69.6,29.91,South,184,0.0,4.0,71,0.00,,---,0.00,VWS V14.01,2013-05-21 13:37:00,
2013-05-21 09:38:00,79.8,69.2,29.91,South,182,0.0,4.0,70,0.00,,---,0.00,VWS V14.01,2013-05-21 13:38:00,
2013-05-21 09:39:00,79.8,69.2,29.91,South,180,0.0,4.0,70,0.00,,---,0.00,VWS V14.01,2013-05-21 13:39:00,
2013-05-21 09:40:00,79.8,69.6,29.91,SE,127,1.0,4.0,71,0.00,,---,0.00,VWS V14.01,2013-05-21 13:40:00,
2013-05-21 09:41:00,79.8,69.6,29.91,SE,128,1.0,1.0,71,0.00,,---,0.00,VWS V14.01,2013-05-21 13:41:00,
2013-05-21 09:42:00,79.6,69.4,29.91,South,189,1.0,3.0,71,0.00,,---,0.00,VWS V14.01,2013-05-21 13:42:00,
2013-05-21 09:43:00,79.6,69.4,29.91,SSW,195,4.0,6.0,71,0.00,,---,0.00,VWS V14.01,2013-05-21 13:43:00,
2013-05-21 09:44:00,79.6,69.4,29.91,SSW,194,4.0,6.0,71,0.00,,---,0.00,VWS V14.01,2013-05-21 13:44:00,
2013-05-21 09:45:00,79.4,68.8,29.91,SSW,200,4.0,6.0,70,0.00,,---,0.00,VWS V14.01,2013-05-21 13:45:00,
2013-05-21 09:46:00,79.4,68.8,29.91,South,185,2.0,4.0,70,0.00,,---,0.00,VWS V14.01,2013-05-21 13:46:00,
2013-05-21 09:47:00,79.2,68.6,29.91,SSE,159,0.0,4.0,70,0.00,,---,0.00,VWS V14.01,2013-05-21 13:47:00,
2013-05-21 09:48:00,79.2,69.0,29.91,SSE,153,0.0,4.0,71,0.00,,---,0.00,VWS V14.01,2013-05-21 13:48:00,
2013-05-21 09:49:00,79.0,68.8,29.91,SSW,200,4.0,6.0,71,0.00,,---,0.00,VWS V14.01,2013-05-21 13:49:00,
2013-05-21 09:50:00,79.0,68.8,29.91,SSW,198,0.0,6.0,71,0.00,,---,0.00,VWS V14.01,2013-05-21 13:50:00,
2013-05-21 09:51:00,79.0,69.2,29.91,SSW,198,0.0,1.0,72,0.00,,---,0.00,VWS V14.01,2013-05-21 13:51:00,
2013-05-21 09:52:00,79.0,69.2,29.91,SSW,198,0.0,1.0,72,0.00,,---,0.00,VWS V14.01,2013-05-21 13:52:00,
2013-05-21 09:53:00,78.8,69.0,29.91,SSE,159,1.0,1.0,72,0.00,,---,0.00,VWS V14.01,2013-05-21 13:53:00,
2013-05-21 09:54:00,78.8,68.6,29.91,SSE,159,1.0,1.0,71,0.00,,---,0.00,VWS V14.01,2013-05-21 13:54:00,
2013-05-21 09:55:00,78.8,68.6,29.91,SE,141,0.0,4.0,71,0.00,,---,0.00,VWS V14.01,2013-05-21 13:55:00,
2013-05-21 09:56:00,78.6,68.4,29.91,SE,141,0.0,2.0,71,0.00,,---,0.00,VWS V14.01,2013-05-21 13:56:00,
2013-05-21 09:57:00,78.6,68.4,29.91,SE,140,1.0,2.0,71,0.00,,---,0.00,VWS V14.01,2013-05-21 13:57:00,
2013-05-21 09:58:00,78.6,68.4,29.91,SE,140,0.0,2.0,71,0.00,,---,0.00,VWS V14.01,2013-05-21 13:58:00,
2013-05-21 09:59:00,78.6,68.4,29.91,SE,140,0.0,2.0,71,0.00,,---,0.00,VWS V14.01,2013-05-21 13:59:00,
2013-05-21 10:00:00,78.6,68.4,29.91,SE,124,0.0,2.0,71,0.00,,---,0.00,VWS V14.01,2013-05-21 14:00:00,
2013-05-21 10:01:00,78.6,68.0,29.91,SE,124,0.0,1.0,70,0.00,,---,0.00,VWS V14.01,2013-05-21 14:01:00,
2013-05-21 10:02:00,78.6,68.4,29.91,SE,124,1.0,1.0,71,0.00,,---,0.00,VWS V14.01,2013-05-21 14:02:00,
2013-05-21 10:03:00,78.6,68.8,29.91,SSW,200,0.0,3.0,72,0.00,,---,0.00,VWS V14.01,2013-05-21 14:03:00,
2013-05-21 10:04:00,78.6,68.4,29.91,SSE,152,2.0,3.0,71,0.00,,---,0.00,VWS V14.01,2013-05-21 14:04:00,
2013-05-21 10:05:00,78.6,68.4,29.91,SSE,152,0.0,4.0,71,0.00,,---,0.00,VWS V14.01,2013-05-21 14:05:00,
2013-05-21 10:06:00,78.6,68.4,29.91,SSE,158,0.0,1.0,71,0.00,,---,0.00,VWS V14.01,2013-05-21 14:06:00,
2013-05-21 10:07:00,78.8,69.0,29.91,SSE,156,0.0,1.0,72,0.00,,---,0.00,VWS V14.01,2013-05-21 14:07:00,
2013-05-21 10:08:00,78.8,69.0,29.91,SSE,156,0.0,1.0,72,0.00,,---,0.00,VWS V14.01,2013-05-21 14:08:00,
2013-05-21 10:09:00,78.8,68.6,29.91,SSE,156,0.0,1.0,71,0.00,,---,0.00,VWS V14.01,2013-05-21 14:09:00,
2013-05-21 10:10:00,78.8,68.2,29.91,SSE,156,0.0,1.0,70,0.00,,---,0.00,VWS V14.01,2013-05-21 14:10:00,
2013-05-21 10:11:00,78.8,68.2,29.91,SSE,156,0.0,0.0,70,0.00,,---,0.00,VWS V14.01,2013-05-21 14:11:00,
2013-05-21 10:12:00,79.0,68.4,29.91,SSE,156,0.0,1.0,70,0.00,,---,0.00,VWS V14.01,2013-05-21 14:12:00,
2013-05-21 10:13:00,79.0,68.4,29.91,SSE,156,0.0,2.0,70,0.00,,---,0.00,VWS V14.01,2013-05-21 14:13:00,
2013-05-21 10:14:00,79.0,68.4,29.91,SSE,156,0.0,2.0,70,0.00,,---,0.00,VWS V14.01,2013-05-21 14:14:00,
2013-05-21 10:15:00,79.2,68.6,29.90,SSE,157,1.0,2.0,70,0.00,,---,0.00,VWS V14.01,2013-05-21 14:15:00,
2013-05-21 10:16:00,79.2,67.7,29.90,SE,130,2.0,6.0,68,0.00,,---,0.00,VWS V14.01,2013-05-21 14:16:00,
2013-05-21 10:17:00,79.2,67.7,29.90,South,191,3.0,6.0,68,0.00,,---,0.00,VWS V14.01,2013-05-21 14:17:00,
2013-05-21 10:18:00,79.2,67.7,29.90,SSW,195,3.0,6.0,68,0.00,,---,0.00,VWS V14.01,2013-05-21 14:18:00,
2013-05-21 10:19:00,79.4,68.3,29.90,SE,127,0.0,6.0,69,0.00,,---,0.00,VWS V14.01,2013-05-21 14:19:00,
2013-05-21 10:20:00,79.4,68.3,29.90,SE,127,0.0,6.0,69,0.00,,---,0.00,VWS V14.01,2013-05-21 14:20:00,
2013-05-21 10:21:00,79.6,68.5,29.90,SSE,160,0.0,0.0,69,0.00,,---,0.00,VWS V14.01,2013-05-21 14:21:00,
2013-05-21 10:22:00,79.8,68.7,29.90,SSE,160,0.0,0.0,69,0.00,,---,0.00,VWS V14.01,2013-05-21 14:22:00,
2013-05-21 10:23:00,79.9,68.8,29.90,SSE,160,0.0,0.0,69,0.00,,---,0.00,VWS V14.01,2013-05-21 14:23:00,
2013-05-21 10:24:00,80.1,69.0,29.90,South,185,1.0,2.0,69,0.00,,---,0.00,VWS V14.01,2013-05-21 14:24:00,
2013-05-21 10:25:00,80.1,69.0,29.90,SSW,196,0.0,3.0,69,0.00,,---,0.00,VWS V14.01,2013-05-21 14:25:00,
2013-05-21 10:26:00,80.3,68.8,29.90,SSW,196,0.0,0.0,68,0.00,,---,0.00,VWS V14.01,2013-05-21 14:26:00,
2013-05-21 10:27:00,80.3,69.2,29.90,SSW,196,0.0,0.0,69,0.00,,---,0.00,VWS V14.01,2013-05-21 14:27:00,
2013-05-21 10:28:00,80.5,69.0,29.90,SSW,196,0.0,0.0,68,0.00,,---,0.00,VWS V14.01,2013-05-21 14:28:00,
2013-05-21 10:29:00,80.7,69.2,29.90,West,278,4.0,4.0,68,0.00,,---,0.00,VWS V14.01,2013-05-21 14:29:00,
2013-05-21 10:30:00,80.7,69.2,29.90,WNW,282,2.0,7.0,68,0.00,,---,0.00,VWS V14.01,2013-05-21 14:30:00,
2013-05-21 10:31:00,80.7,69.2,29.90,West,279,0.0,4.0,68,0.00,,---,0.00,VWS V14.01,2013-05-21 14:31:00,
2013-05-21 10:32:00,80.7,69.2,29.90,WNW,288,1.0,4.0,68,0.00,,---,0.00,VWS V14.01,2013-05-21 14:32:00,
2013-05-21 10:33:00,80.7,69.2,29.90,WNW,288,1.0,4.0,68,0.00,,---,0.00,VWS V14.01,2013-05-21 14:33:00,
2013-05-21 10:34:00,80.7,69.2,29.90,West,269,4.0,9.0,68,0.00,,---,0.00,VWS V14.01,2013-05-21 14:34:00,
2013-05-21 10:35:00,80.7,68.7,29.90,West,277,4.0,11.0,67,0.00,,---,0.00,VWS V14.01,2013-05-21 14:35:00,
2013-05-21 10:36:00,80.5,68.1,29.90,West,279,3.0,8.0,66,0.00,,---,0.00,VWS V14.01,2013-05-21 14:36:00,
2013-05-21 10:37:00,80.5,68.5,29.90,West,278,1.0,8.0,67,0.00,,---,0.00,VWS V14.01,2013-05-21 14:37:00,
2013-05-21 10:38:00,80.5,69.0,29.90,West,279,1.0,8.0,68,0.00,,---,0.00,VWS V14.01,2013-05-21 14:38:00,
2013-05-21 10:39:00,80.5,69.0,29.90,West,278,0.0,8.0,68,0.00,,---,0.00,VWS V14.01,2013-05-21 14:39:00,
2013-05-21 10:40:00,80.5,69.0,29.90,West,278,0.0,8.0,68,0.00,,---,0.00,VWS V14.01,2013-05-21 14:40:00,
2013-05-21 10:41:00,80.5,69.0,29.90,West,279,1.0,1.0,68,0.00,,---,0.00,VWS V14.01,2013-05-21 14:41:00,
2013-05-21 10:42:00,80.5,69.0,29.90,SW,222,4.0,4.0,68,0.00,,---,0.00,VWS V14.01,2013-05-21 14:42:00,
2013-05-21 10:43:00,80.3,68.8,29.90,WNW,282,7.0,8.0,68,0.00,,---,0.00,VWS V14.01,2013-05-21 14:43:00,
2013-05-21 10:44:00,80.3,68.3,29.90,West,281,7.0,9.0,67,0.00,,---,0.00,VWS V14.01,2013-05-21 14:44:00,
2013-05-21 10:45:00,80.3,68.3,29.89,West,271,7.0,9.0,67,0.00,,---,0.00,VWS V14.01,2013-05-21 14:45:00,
2013-05-21 10:46:00,80.3,68.3,29.89,West,259,1.0,6.0,67,0.00,,---,0.00,VWS V14.01,2013-05-21 14:46:00,
2013-05-21 10:47:00,80.3,68.8,29.89,West,259,0.0,6.0,68,0.00,,---,0.00,VWS V14.01,2013-05-21 14:47:00,
2013-05-21 10:48:00,80.3,68.8,29.89,WSW,254,2.0,6.0,68,0.00,,---,0.00,VWS V14.01,2013-05-21 14:48:00,
2013-05-21 10:49:00,80.3,68.8,29.89,WSW,254,1.0,6.0,68,0.00,,---,0.00,VWS V14.01,2013-05-21 14:49:00,
2013-05-21 10:50:00,80.3,68.8,29.89,WSW,254,0.0,6.0,68,0.00,,---,0.00,VWS V14.01,2013-05-21 14:50:00,
2013-05-21 10:51:00,80.3,68.8,29.89,WSW,254,1.0,1.0,68,0.00,,---,0.00,VWS V14.01,2013-05-21 14:51:00,
2013-05-21 10:52:00,80.3,68.8,29.89,West,273,4.0,4.0,68,0.00,,---,0.00,VWS V14.01,2013-05-21 14:52:00,
2013-05-21 10:53:00,80.5,69.0,29.89,West,277,0.0,6.0,68,0.00,,---,0.00,VWS V14.01,2013-05-21 14:53:00,
2013-05-21 10:54:00,80.5,68.5,29.89,WNW,282,6.0,7.0,67,0.00,,---,0.00,VWS V14.01,2013-05-21 14:54:00,
2013-05-21 10:55:00,80.5,68.5,29.89,WSW,250,2.0,7.0,67,0.00,,---,0.00,VWS V14.01,2013-05-21 14:55:00,
2013-05-21 10:56:00,80.5,68.5,29.89,WSW,250,2.0,3.0,67,0.00,,---,0.00,VWS V14.01,2013-05-21 14:56:00,
2013-05-21 10:57:00,80.5,68.5,29.89,WSW,256,2.0,3.0,67,0.00,,---,0.00,VWS V14.01,2013-05-21 14:57:00,
2013-05-21 10:58:00,80.5,68.5,29.89,WSW,257,0.0,3.0,67,0.00,,---,0.00,VWS V14.01,2013-05-21 14:58:00,
2013-05-21 10:59:00,80.7,68.3,29.89,NW,310,0.0,3.0,66,0.00,,---,0.00,VWS V14.01,2013-05-21 14:59:00,
2013-05-21 11:00:00,80.7,68.7,29.88,SW,229,0.0,5.0,67,0.00,,---,0.00,VWS V14.01,2013-05-21 15:00:00,
2013-05-21 11:01:00,80.9,68.5,29.88,SW,229,0.0,1.0,66,0.00,,---,0.00,VWS V14.01,2013-05-21 15:01:00,
2013-05-21 11:02:00,80.9,68.5,29.88,SW,229,1.0,3.0,66,0.00,,---,0.00,VWS V14.01,2013-05-21 15:02:00,
2013-05-21 11:03:00,81.1,68.7,29.88,SW,231,2.0,4.0,66,0.00,,---,0.00,VWS V14.01,2013-05-21 15:03:00,
2013-05-21 11:04:00,81.1,68.2,29.88,SSW,213,2.0,4.0,65,0.00,,---,0.00,VWS V14.01,2013-05-21 15:04:00,
2013-05-21 11:05:00,81.1,67.8,29.88,WSW,254,4.0,4.0,64,0.00,,---,0.00,VWS V14.01,2013-05-21 15:05:00,
2013-05-21 11:06:00,81.2,67.9,29.88,WSW,242,5.0,5.0,64,0.00,,---,0.00,VWS V14.01,2013-05-21 15:06:00,
2013-05-21 11:07:00,81.2,67.9,29.88,WSW,248,4.0,5.0,64,0.00,,---,0.00,VWS V14.01,2013-05-21 15:07:00,
2013-05-21 11:08:00,81.2,66.5,29.88,West,274,0.0,5.0,61,0.00,,---,0.00,VWS V14.01,2013-05-21 15:08:00,
2013-05-21 11:09:00,81.4,68.1,29.88,West,263,1.0,5.0,64,0.00,,---,0.00,VWS V14.01,2013-05-21 15:09:00,
2013-05-21 11:10:00,81.4,68.1,29.88,West,263,1.0,5.0,64,0.00,,---,0.00,VWS V14.01,2013-05-21 15:10:00,
2013-05-21 11:11:00,81.6,68.2,29.88,WSW,254,2.0,3.0,64,0.00,,---,0.00,VWS V14.01,2013-05-21 15:11:00,
2013-05-21 11:12:00,81.6,67.8,29.88,SSW,213,2.0,5.0,63,0.00,,---,0.00,VWS V14.01,2013-05-21 15:12:00,
2013-05-21 11:13:00,81.6,67.8,29.88,WSW,243,3.0,5.0,63,0.00,,---,0.00,VWS V14.01,2013-05-21 15:13:00,
2013-05-21 11:14:00,81.6,67.3,29.88,SW,234,4.0,5.0,62,0.00,,---,0.00,VWS V14.01,2013-05-21 15:14:00,
2013-05-21 11:15:00,81.6,66.9,29.88,SW,236,1.0,5.0,61,0.00,,---,0.00,VWS V14.01,2013-05-21 15:15:00,
2013-05-21 11:16:00,81.6,66.9,29.88,SW,236,0.0,2.0,61,0.00,,---,0.00,VWS V14.01,2013-05-21 15:16:00,
2013-05-21 11:17:00,81.8,67.5,29.88,West,278,6.0,6.0,62,0.00,,---,0.00,VWS V14.01,2013-05-21 15:17:00,
2013-05-21 11:18:00,81.8,67.5,29.88,West,271,8.0,12.0,62,0.00,,---,0.00,VWS V14.01,2013-05-21 15:18:00,
2013-05-21 11:19:00,81.8,67.5,29.88,SW,232,3.0,12.0,62,0.00,,---,0.00,VWS V14.01,2013-05-21 15:19:00,
2013-05-21 11:20:00,81.8,67.5,29.88,WSW,238,3.0,12.0,62,0.00,,---,0.00,VWS V14.01,2013-05-21 15:20:00,
2013-05-21 11:21:00,81.8,67.5,29.88,SW,225,4.0,6.0,62,0.00,,---,0.00,VWS V14.01,2013-05-21 15:21:00,
2013-05-21 11:22:00,81.8,67.1,29.88,WSW,239,0.0,6.0,61,0.00,,---,0.00,VWS V14.01,2013-05-21 15:22:00,
2013-05-21 11:23:00,81.8,67.1,29.88,West,271,0.0,6.0,61,0.00,,---,0.00,VWS V14.01,2013-05-21 15:23:00,
2013-05-21 11:24:00,81.8,67.5,29.88,WNW,288,5.0,10.0,62,0.00,,---,0.00,VWS V14.01,2013-05-21 15:24:00,
2013-05-21 11:25:00,81.8,67.1,29.88,WNW,288,0.0,10.0,61,0.00,,---,0.00,VWS V14.01,2013-05-21 15:25:00,
2013-05-21 11:26:00,81.8,67.1,29.88,WNW,288,0.0,3.0,61,0.00,,---,0.00,VWS V14.01,2013-05-21 15:26:00,
2013-05-21 11:27:00,81.8,67.5,29.88,West,279,0.0,3.0,62,0.00,,---,0.00,VWS V14.01,2013-05-21 15:27:00,
2013-05-21 11:28:00,81.8,67.5,29.88,WNW,291,0.0,3.0,62,0.00,,---,0.00,VWS V14.01,2013-05-21 15:28:00,
2013-05-21 11:29:00,81.8,67.5,29.88,WNW,291,0.0,3.0,62,0.00,,---,0.00,VWS V14.01,2013-05-21 15:29:00,
2013-05-21 11:30:00,82.0,67.7,29.87,WNW,291,0.0,3.0,62,0.00,,---,0.00,VWS V14.01,2013-05-21 15:30:00,
2013-05-21 11:31:00,82.2,68.4,29.87,WNW,291,0.0,0.0,63,0.00,,---,0.00,VWS V14.01,2013-05-21 15:31:00,
2013-05-21 11:32:00,82.2,68.4,29.87,WSW,256,0.0,0.0,63,0.00,,---,0.00,VWS V14.01,2013-05-21 15:32:00,
2013-05-21 11:33:00,82.2,67.9,29.87,SW,236,2.0,5.0,62,0.00,,---,0.00,VWS V14.01,2013-05-21 15:33:00,
2013-05-21 11:34:00,82.2,67.4,29.87,WSW,252,1.0,5.0,61,0.00,,---,0.00,VWS V14.01,2013-05-21 15:34:00,
2013-05-21 11:35:00,82.4,67.6,29.87,WSW,238,2.0,5.0,61,0.00,,---,0.00,VWS V14.01,2013-05-21 15:35:00,
2013-05-21 11:36:00,82.4,67.1,29.87,West,281,4.0,4.0,60,0.00,,---,0.00,VWS V14.01,2013-05-21 15:36:00,
2013-05-21 11:37:00,82.4,67.6,29.87,West,281,0.0,4.0,61,0.00,,---,0.00,VWS V14.01,2013-05-21 15:37:00,
2013-05-21 11:38:00,82.4,68.1,29.87,West,281,0.0,4.0,62,0.00,,---,0.00,VWS V14.01,2013-05-21 15:38:00,
2013-05-21 11:39:00,82.6,67.8,29.87,WNW,285,7.0,8.0,61,0.00,,---,0.00,VWS V14.01,2013-05-21 15:39:00,
2013-05-21 11:40:00,82.6,67.3,29.87,West,270,7.0,11.0,60,0.00,,---,0.00,VWS V14.01,2013-05-21 15:40:00,
2013-05-21 11:41:00,82.6,67.8,29.87,WSW,245,4.0,7.0,61,0.00,,---,0.00,VWS V14.01,2013-05-21 15:41:00,
2013-05-21 11:42:00,82.6,67.3,29.87,SW,232,1.0,7.0,60,0.00,,---,0.00,VWS V14.01,2013-05-21 15:42:00,
2013-05-21 11:43:00,82.6,67.3,29.87,SW,232,0.0,7.0,60,0.00,,---,0.00,VWS V14.01,2013-05-21 15:43:00,
2013-05-21 11:44:00,82.6,67.8,29.87,SW,232,0.0,7.0,61,0.00,,---,0.00,VWS V14.01,2013-05-21 15:44:00,
2013-05-21 11:45:00,82.6,67.3,29.87,SW,232,0.0,7.0,60,0.00,,---,0.00,VWS V14.01,2013-05-21 15:45:00,
2013-05-21 11:46:00,82.8,67.5,29.87,SW,232,0.0,3.0,60,0.00,,---,0.00,VWS V14.01,2013-05-21 15:46:00,
2013-05-21 11:47:00,82.8,68.0,29.87,SW,232,0.0,3.0,61,0.00,,---,0.00,VWS V14.01,2013-05-21 15:47:00,
2013-05-21 11:48:00,82.8,68.0,29.87,SW,232,0.0,3.0,61,0.00,,---,0.00,VWS V14.01,2013-05-21 15:48:00,
2013-05-21 11:49:00,82.8,67.5,29.87,WSW,250,1.0,3.0,60,0.00,,---,0.00,VWS V14.01,2013-05-21 15:49:00,
2013-05-21 11:50:00,83.0,67.7,29.87,WSW,250,0.0,3.0,60,0.00,,---,0.00,VWS V14.01,2013-05-21 15:50:00,
2013-05-21 11:51:00,83.0,67.7,29.87,WSW,250,2.0,4.0,60,0.00,,---,0.00,VWS V14.01,2013-05-21 15:51:00,
2013-05-21 11:52:00,83.0,67.7,29.87,WSW,238,1.0,4.0,60,0.00,,---,0.00,VWS V14.01,2013-05-21 15:52:00,
2013-05-21 11:53:00,83.0,67.7,29.87,SW,231,4.0,5.0,60,0.00,,---,0.00,VWS V14.01,2013-05-21 15:53:00,
2013-05-21 11:54:00,83.0,67.7,29.87,SW,233,0.0,5.0,60,0.00,,---,0.00,VWS V14.01,2013-05-21 15:54:00,
2013-05-21 11:55:00,83.0,67.7,29.87,SW,233,0.0,5.0,60,0.00,,---,0.00,VWS V14.01,2013-05-21 15:55:00,
2013-05-21 11:56:00,83.2,67.9,29.87,SW,233,0.0,1.0,60,0.00,,---,0.00,VWS V14.01,2013-05-21 15:56:00,
2013-05-21 11:57:00,83.2,68.8,29.87,SW,233,0.0,2.0,62,0.00,,---,0.00,VWS V14.01,2013-05-21 15:57:00,
2013-05-21 11:58:00,83.2,68.8,29.87,WSW,242,4.0,5.0,62,0.00,,---,0.00,VWS V14.01,2013-05-21 15:58:00,
2013-05-21 11:59:00,83.2,67.9,29.87,WSW,246,3.0,5.0,60,0.00,,---,0.00,VWS V14.01,2013-05-21 15:59:00,
2013-05-21 12:00:00,83.4,68.1,29.87,WSW,246,0.0,5.0,60,0.00,,---,0.00,VWS V14.01,2013-05-21 16:00:00,
2013-05-21 12:01:00,83.4,68.1,29.87,WSW,246,0.0,1.0,60,0.00,,---,0.00,VWS V14.01,2013-05-21 16:01:00,
2013-05-21 12:02:00,83.4,68.6,29.87,WSW,246,0.0,1.0,61,0.00,,---,0.00,VWS V14.01,2013-05-21 16:02:00,
2013-05-21 12:03:00,83.4,68.1,29.87,WSW,248,0.0,2.0,60,0.00,,---,0.00,VWS V14.01,2013-05-21 16:03:00,
2013-05-21 12:04:00,83.6,68.3,29.87,WSW,248,0.0,2.0,60,0.00,,---,0.00,VWS V14.01,2013-05-21 16:04:00,
2013-05-21 12:05:00,83.6,68.3,29.87,WSW,238,2.0,5.0,60,0.00,,---,0.00,VWS V14.01,2013-05-21 16:05:00,
2013-05-21 12:06:00,83.6,68.3,29.87,WSW,246,3.0,5.0,60,0.00,,---,0.00,VWS V14.01,2013-05-21 16:06:00,
2013-05-21 12:07:00,83.6,68.3,29.87,SW,229,1.0,5.0,60,0.00,,---,0.00,VWS V14.01,2013-05-21 16:07:00,
2013-05-21 12:08:00,83.6,68.3,29.87,SW,230,0.0,5.0,60,0.00,,---,0.00,VWS V14.01,2013-05-21 16:08:00,
2013-05-21 12:09:00,83.8,68.4,29.87,West,261,2.0,5.0,60,0.00,,---,0.00,VWS V14.01,2013-05-21 16:09:00,
2013-05-21 12:10:00,83.8,68.4,29.87,West,267,0.0,5.0,60,0.00,,---,0.00,VWS V14.01,2013-05-21 16:10:00,
2013-05-21 12:11:00,83.8,68.4,29.87,West,267,0.0,2.0,60,0.00,,---,0.00,VWS V14.01,2013-05-21 16:11:00,
2013-05-21 12:12:00,83.8,68.9,29.87,SSW,204,2.0,3.0,61,0.00,,---,0.00,VWS V14.01,2013-05-21 16:12:00,
2013-05-21 12:13:00,84.0,69.1,29.87,SSW,209,2.0,4.0,61,0.00,,---,0.00,VWS V14.01,2013-05-21 16:13:00,
2013-05-21 12:14:00,84.0,68.6,29.87,WSW,240,1.0,4.0,60,0.00,,---,0.00,VWS V14.01,2013-05-21 16:14:00,
2013-05-21 12:15:00,84.0,68.6,29.86,West,279,0.0,4.0,60,0.00,,---,0.00,VWS V14.01,2013-05-21 16:15:00,
2013-05-21 12:16:00,84.1,68.7,29.86,WSW,246,3.0,4.0,60,0.00,,---,0.00,VWS V14.01,2013-05-21 16:16:00,
2013-05-21 12:17:00,84.1,68.7,29.86,WSW,242,0.0,4.0,60,0.00,,---,0.00,VWS V14.01,2013-05-21 16:17:00,
2013-05-21 12:18:00,84.1,68.7,29.86,WSW,257,2.0,4.0,60,0.00,,---,0.00,VWS V14.01,2013-05-21 16:18:00,
2013-05-21 12:19:00,84.1,68.2,29.86,West,281,4.0,4.0,59,0.00,,---,0.00,VWS V14.01,2013-05-21 16:19:00,
2013-05-21 12:20:00,84.1,68.2,29.86,West,281,4.0,4.0,59,0.00,,---,0.00,VWS V14.01,2013-05-21 16:20:00,
2013-05-21 12:21:00,84.1,68.2,29.86,West,281,0.0,4.0,59,0.00,,---,0.00,VWS V14.01,2013-05-21 16:21:00,
2013-05-21 12:22:00,84.1,68.7,29.86,SW,235,3.0,4.0,60,0.00,,---,0.00,VWS V14.01,2013-05-21 16:22:00,
2013-05-21 12:23:00,84.3,68.4,29.86,SW,235,0.0,4.0,59,0.00,,---,0.00,VWS V14.01,2013-05-21 16:23:00,
2013-05-21 12:24:00,84.3,68.4,29.86,SW,235,0.0,4.0,59,0.00,,---,0.00,VWS V14.01,2013-05-21 16:24:00,
2013-05-21 12:25:00,84.3,68.4,29.86,SW,235,0.0,4.0,59,0.00,,---,0.00,VWS V14.01,2013-05-21 16:25:00,
2013-05-21 12:26:00,84.3,68.4,29.86,SW,235,2.0,2.0,59,0.00,,---,0.00,VWS V14.01,2013-05-21 16:26:00,
2013-05-21 12:27:00,84.3,68.4,29.86,SW,235,0.0,2.0,59,0.00,,---,0.00,VWS V14.01,2013-05-21 16:27:00,
2013-05-21 12:28:00,84.3,67.9,29.86,WSW,246,0.0,2.0,58,0.00,,---,0.00,VWS V14.01,2013-05-21 16:28:00,
2013-05-21 12:29:00,84.3,67.9,29.86,WSW,246,1.0,2.0,58,0.00,,---,0.00,VWS V14.01,2013-05-21 16:29:00,
2013-05-21 12:30:00,84.5,68.6,29.85,WSW,246,2.0,2.0,59,0.00,,---,0.00,VWS V14.01,2013-05-21 16:30:00,
2013-05-21 12:31:00,84.5,68.6,29.85,WSW,257,1.0,3.0,59,0.00,,---,0.00,VWS V14.01,2013-05-21 16:31:00,
2013-05-21 12:32:00,84.5,68.1,29.85,SSW,213,4.0,5.0,58,0.00,,---,0.00,VWS V14.01,2013-05-21 16:32:00,
2013-05-21 12:33:00,84.5,68.6,29.85,SSW,209,0.0,5.0,59,0.00,,---,0.00,VWS V14.01,2013-05-21 16:33:00,
2013-05-21 12:34:00,84.7,68.3,29.85,SSW,209,0.0,5.0,58,0.00,,---,0.00,VWS V14.01,2013-05-21 16:34:00,
2013-05-21 12:35:00,84.7,68.8,29.85,WSW,254,3.0,5.0,59,0.00,,---,0.00,VWS V14.01,2013-05-21 16:35:00,
2013-05-21 12:36:00,84.7,68.3,29.85,West,280,0.0,9.0,58,0.00,,---,0.00,VWS V14.01,2013-05-21 16:36:00,
2013-05-21 12:37:00,84.7,68.3,29.85,West,280,0.0,9.0,58,0.00,,---,0.00,VWS V14.01,2013-05-21 16:37:00,
2013-05-21 12:38:00,84.7,68.3,29.85,WNW,291,5.0,9.0,58,0.00,,---,0.00,VWS V14.01,2013-05-21 16:38:00,
2013-05-21 12:39:00,84.7,67.8,29.85,WNW,293,2.0,9.0,57,0.00,,---,0.00,VWS V14.01,2013-05-21 16:39:00,
2013-05-21 12:40:00,84.9,68.0,29.85,WNW,293,0.0,9.0,57,0.00,,---,0.00,VWS V14.01,2013-05-21 16:40:00,
2013-05-21 12:41:00,84.9,69.0,29.85,WNW,293,0.0,2.0,59,0.00,,---,0.00,VWS V14.01,2013-05-21 16:41:00,
2013-05-21 12:42:00,84.9,69.0,29.85,SW,223,2.0,2.0,59,0.00,,---,0.00,VWS V14.01,2013-05-21 16:42:00,
2013-05-21 12:43:00,84.9,69.0,29.85,West,281,6.0,9.0,59,0.00,,---,0.00,VWS V14.01,2013-05-21 16:43:00,
2013-05-21 12:44:00,84.9,68.0,29.85,West,260,1.0,9.0,57,0.00,,---,0.00,VWS V14.01,2013-05-21 16:44:00,
2013-05-21 12:45:00,84.9,68.0,29.85,SW,235,3.0,9.0,57,0.00,,---,0.00,VWS V14.01,2013-05-21 16:45:00,
2013-05-21 12:46:00,84.9,68.5,29.85,SW,235,0.0,5.0,58,0.00,,---,0.00,VWS V14.01,2013-05-21 16:46:00,
2013-05-21 12:47:00,85.1,68.2,29.85,SW,235,0.0,5.0,57,0.00,,---,0.00,VWS V14.01,2013-05-21 16:47:00,
2013-05-21 12:48:00,85.1,68.2,29.85,West,281,0.0,5.0,57,0.00,,---,0.00,VWS V14.01,2013-05-21 16:48:00,
2013-05-21 12:49:00,85.1,68.7,29.85,West,274,1.0,5.0,58,0.00,,---,0.00,VWS V14.01,2013-05-21 16:49:00,
2013-05-21 12:50:00,85.1,68.7,29.85,WSW,257,2.0,5.0,58,0.00,,---,0.00,VWS V14.01,2013-05-21 16:50:00,
2013-05-21 12:51:00,85.1,68.7,29.85,SSW,205,4.0,5.0,58,0.00,,---,0.00,VWS V14.01,2013-05-21 16:51:00,
2013-05-21 12:52:00,85.1,68.7,29.85,WSW,255,1.0,5.0,58,0.00,,---,0.00,VWS V14.01,2013-05-21 16:52:00,
2013-05-21 12:53:00,85.1,68.2,29.85,WSW,255,0.0,5.0,57,0.00,,---,0.00,VWS V14.01,2013-05-21 16:53:00,
2013-05-21 12:54:00,85.3,68.3,29.85,WSW,238,3.0,5.0,57,0.00,,---,0.00,VWS V14.01,2013-05-21 16:54:00,
2013-05-21 12:55:00,85.3,68.3,29.85,West,261,3.0,5.0,57,0.00,,---,0.00,VWS V14.01,2013-05-21 16:55:00,
2013-05-21 12:56:00,85.3,68.3,29.85,WSW,249,1.0,3.0,57,0.00,,---,0.00,VWS V14.01,2013-05-21 16:56:00,
2013-05-21 12:57:00,85.3,68.9,29.85,WSW,249,1.0,3.0,58,0.00,,---,0.00,VWS V14.01,2013-05-21 16:57:00,
2013-05-21 12:58:00,85.3,68.9,29.85,SSW,209,0.0,3.0,58,0.00,,---,0.00,VWS V14.01,2013-05-21 16:58:00,
2013-05-21 12:59:00,85.3,68.9,29.85,West,273,2.0,3.0,58,0.00,,---,0.00,VWS V14.01,2013-05-21 16:59:00,
2013-05-21 13:00:00,85.3,68.9,29.85,West,279,8.0,8.0,58,0.00,,---,0.00,VWS V14.01,2013-05-21 17:00:00,
2013-05-21 13:01:00,85.5,69.1,29.85,West,281,6.0,8.0,58,0.00,,---,0.00,VWS V14.01,2013-05-21 17:01:00,
2013-05-21 13:02:00,85.5,69.1,29.85,WNW,288,2.0,8.0,58,0.00,,---,0.00,VWS V14.01,2013-05-21 17:02:00,
2013-05-21 13:03:00,85.5,69.1,29.85,West,271,3.0,8.0,58,0.00,,---,0.00,VWS V14.01,2013-05-21 17:03:00,
2013-05-21 13:04:00,85.5,68.5,29.85,NW,309,4.0,8.0,57,0.00,,---,0.00,VWS V14.01,2013-05-21 17:04:00,
2013-05-21 13:05:00,85.5,68.5,29.85,West,271,1.0,8.0,57,0.00,,---,0.00,VWS V14.01,2013-05-21 17:05:00,
2013-05-21 13:06:00,85.5,68.5,29.85,West,271,1.0,2.0,57,0.00,,---,0.00,VWS V14.01,2013-05-21 17:06:00,
2013-05-21 13:07:00,85.5,68.5,29.85,WNW,282,0.0,2.0,57,0.00,,---,0.00,VWS V14.01,2013-05-21 17:07:00,
2013-05-21 13:08:00,85.5,68.5,29.85,West,280,1.0,2.0,57,0.00,,---,0.00,VWS V14.01,2013-05-21 17:08:00,
2013-05-21 13:09:00,85.5,68.5,29.85,West,280,1.0,2.0,57,0.00,,---,0.00,VWS V14.01,2013-05-21 17:09:00,
2013-05-21 13:10:00,85.5,68.5,29.85,SW,234,4.0,4.0,57,0.00,,---,0.00,VWS V14.01,2013-05-21 17:10:00,
2013-05-21 13:11:00,85.5,68.5,29.85,WNW,286,4.0,4.0,57,0.00,,---,0.00,VWS V14.01,2013-05-21 17:11:00,
2013-05-21 13:12:00,85.5,68.5,29.85,West,269,0.0,6.0,57,0.00,,---,0.00,VWS V14.01,2013-05-21 17:12:00,
2013-05-21 13:13:00,85.5,68.5,29.85,West,269,0.0,6.0,57,0.00,,---,0.00,VWS V14.01,2013-05-21 17:13:00,
2013-05-21 13:14:00,85.5,68.5,29.85,West,266,1.0,6.0,57,0.00,,---,0.00,VWS V14.01,2013-05-21 17:14:00,
2013-05-21 13:15:00,85.5,68.5,29.85,West,279,5.0,6.0,57,0.00,,---,0.00,VWS V14.01,2013-05-21 17:15:00,
2013-05-21 13:16:00,85.5,68.5,29.85,WSW,252,3.0,8.0,57,0.00,,---,0.00,VWS V14.01,2013-05-21 17:16:00,
2013-05-21 13:17:00,85.5,69.1,29.85,WSW,253,2.0,8.0,58,0.00,,---,0.00,VWS V14.01,2013-05-21 17:17:00,
2013-05-21 13:18:00,85.5,69.1,29.85,West,269,0.0,8.0,58,0.00,,---,0.00,VWS V14.01,2013-05-21 17:18:00,
2013-05-21 13:19:00,85.3,68.9,29.85,West,269,0.0,8.0,58,0.00,,---,0.00,VWS V14.01,2013-05-21 17:19:00,
2013-05-21 13:20:00,85.3,68.9,29.85,West,271,5.0,8.0,58,0.00,,---,0.00,VWS V14.01,2013-05-21 17:20:00,
2013-05-21 13:21:00,85.3,68.9,29.85,West,271,3.0,5.0,58,0.00,,---,0.00,VWS V14.01,2013-05-21 17:21:00,
2013-05-21 13:22:00,85.3,69.4,29.85,West,271,3.0,5.0,59,0.00,,---,0.00,VWS V14.01,2013-05-21 17:22:00,
2013-05-21 13:23:00,85.3,69.4,29.85,West,271,0.0,5.0,59,0.00,,---,0.00,VWS V14.01,2013-05-21 17:23:00,
2013-05-21 13:24:00,85.3,69.4,29.85,West,271,0.0,5.0,59,0.00,,---,0.00,VWS V14.01,2013-05-21 17:24:00,
2013-05-21 13:25:00,85.3,68.9,29.85,West,271,0.0,5.0,58,0.00,,---,0.00,VWS V14.01,2013-05-21 17:25:00,
2013-05-21 13:26:00,85.3,68.9,29.85,West,271,1.0,1.0,58,0.00,,---,0.00,VWS V14.01,2013-05-21 17:26:00,
2013-05-21 13:27:00,85.3,68.9,29.85,West,271,4.0,4.0,58,0.00,,---,0.00,VWS V14.01,2013-05-21 17:27:00,
2013-05-21 13:28:00,85.3,68.9,29.85,West,281,5.0,7.0,58,0.00,,---,0.00,VWS V14.01,2013-05-21 17:28:00,
2013-05-21 13:29:00,85.3,68.9,29.85,West,260,0.0,7.0,58,0.00,,---,0.00,VWS V14.01,2013-05-21 17:29:00,
2013-05-21 13:30:00,85.3,69.4,29.85,West,260,0.0,7.0,59,0.00,,---,0.00,VWS V14.01,2013-05-21 17:30:00,
2013-05-21 13:31:00,85.3,69.4,29.85,WSW,258,1.0,1.0,59,0.00,,---,0.00,VWS V14.01,2013-05-21 17:31:00,
2013-05-21 13:32:00,85.3,69.4,29.85,SSW,204,0.0,1.0,59,0.00,,---,0.00,VWS V14.01,2013-05-21 17:32:00,
2013-05-21 13:33:00,85.3,69.4,29.85,SSW,205,2.0,3.0,59,0.00,,---,0.00,VWS V14.01,2013-05-21 17:33:00,
2013-05-21 13:34:00,85.3,68.9,29.85,SW,227,1.0,3.0,58,0.00,,---,0.00,VWS V14.01,2013-05-21 17:34:00,
2013-05-21 13:35:00,85.3,68.9,29.85,SW,227,1.0,3.0,58,0.00,,---,0.00,VWS V14.01,2013-05-21 17:35:00,
2013-05-21 13:36:00,85.3,68.9,29.85,WSW,258,2.0,4.0,58,0.00,,---,0.00,VWS V14.01,2013-05-21 17:36:00,
2013-05-21 13:37:00,85.3,68.9,29.85,WSW,258,2.0,4.0,58,0.00,,---,0.00,VWS V14.01,2013-05-21 17:37:00,
2013-05-21 13:38:00,85.3,68.9,29.85,West,274,3.0,4.0,58,0.00,,---,0.00,VWS V14.01,2013-05-21 17:38:00,
2013-05-21 13:39:00,85.3,68.9,29.85,WNW,283,4.0,7.0,58,0.00,,---,0.00,VWS V14.01,2013-05-21 17:39:00,
2013-05-21 13:40:00,85.3,68.9,29.85,West,281,1.0,7.0,58,0.00,,---,0.00,VWS V14.01,2013-05-21 17:40:00,
2013-05-21 13:41:00,85.3,69.4,29.85,SW,233,4.0,5.0,59,0.00,,---,0.00,VWS V14.01,2013-05-21 17:41:00,
2013-05-21 13:42:00,85.1,68.7,29.85,WSW,242,1.0,5.0,58,0.00,,---,0.00,VWS V14.01,2013-05-21 17:42:00,
2013-05-21 13:43:00,85.1,68.7,29.85,West,273,2.0,8.0,58,0.00,,---,0.00,VWS V14.01,2013-05-21 17:43:00,
2013-05-21 13:44:00,85.1,69.2,29.85,West,273,0.0,8.0,59,0.00,,---,0.00,VWS V14.01,2013-05-21 17:44:00,
2013-05-21 13:45:00,85.1,69.2,29.84,West,272,1.0,8.0,59,0.00,,---,0.00,VWS V14.01,2013-05-21 17:45:00,
2013-05-21 13:46:00,85.1,69.2,29.84,West,263,3.0,5.0,59,0.00,,---,0.00,VWS V14.01,2013-05-21 17:46:00,
2013-05-21 13:47:00,85.1,69.2,29.84,West,263,0.0,5.0,59,0.00,,---,0.00,VWS V14.01,2013-05-21 17:47:00,
2013-05-21 13:48:00,85.1,69.2,29.84,West,263,4.0,5.0,59,0.00,,---,0.00,VWS V14.01,2013-05-21 17:48:00,
2013-05-21 13:49:00,85.1,69.2,29.84,WSW,238,2.0,5.0,59,0.00,,---,0.00,VWS V14.01,2013-05-21 17:49:00,
2013-05-21 13:50:00,85.1,69.2,29.84,SW,232,3.0,5.0,59,0.00,,---,0.00,VWS V14.01,2013-05-21 17:50:00,
2013-05-21 13:51:00,85.1,69.2,29.84,SW,233,2.0,4.0,59,0.00,,---,0.00,VWS V14.01,2013-05-21 17:51:00,
2013-05-21 13:52:00,85.3,69.4,29.84,SW,233,1.0,4.0,59,0.00,,---,0.00,VWS V14.01,2013-05-21 17:52:00,
2013-05-21 13:53:00,85.3,69.4,29.84,SW,235,1.0,4.0,59,0.00,,---,0.00,VWS V14.01,2013-05-21 17:53:00,
2013-05-21 13:54:00,85.3,69.8,29.84,SW,235,0.0,4.0,60,0.00,,---,0.00,VWS V14.01,2013-05-21 17:54:00,
2013-05-21 13:55:00,85.3,69.8,29.84,SW,235,0.0,4.0,60,0.00,,---,0.00,VWS V14.01,2013-05-21 17:55:00,
2013-05-21 13:56:00,85.3,69.8,29.84,SSW,213,3.0,4.0,60,0.00,,---,0.00,VWS V14.01,2013-05-21 17:56:00,
2013-05-21 13:57:00,85.5,70.0,29.84,SSW,196,0.0,4.0,60,0.00,,---,0.00,VWS V14.01,2013-05-21 17:57:00,
2013-05-21 13:58:00,85.5,70.0,29.84,SSW,196,0.0,4.0,60,0.00,,---,0.00,VWS V14.01,2013-05-21 17:58:00,
2013-05-21 13:59:00,85.5,70.0,29.84,SSW,210,0.0,4.0,60,0.00,,---,0.00,VWS V14.01,2013-05-21 17:59:00,
2013-05-21 14:00:00,85.5,70.0,29.84,SSW,209,0.0,4.0,60,0.00,,---,0.00,VWS V14.01,2013-05-21 18:00:00,
2013-05-21 14:01:00,85.5,70.0,29.84,SW,215,2.0,3.0,60,0.00,,---,0.00,VWS V14.01,2013-05-21 18:01:00,
2013-05-21 14:02:00,85.5,70.0,29.84,SW,215,2.0,3.0,60,0.00,,---,0.00,VWS V14.01,2013-05-21 18:02:00,
2013-05-21 14:03:00,85.5,70.0,29.84,SW,216,0.0,3.0,60,0.00,,---,0.00,VWS V14.01,2013-05-21 18:03:00,
2013-05-21 14:04:00,85.5,70.0,29.84,South,180,2.0,5.0,60,0.00,,---,0.00,VWS V14.01,2013-05-21 18:04:00,
2013-05-21 14:05:00,85.5,70.0,29.84,SSW,205,5.0,6.0,60,0.00,,---,0.00,VWS V14.01,2013-05-21 18:05:00,
2013-05-21 14:06:00,85.5,69.6,29.84,SW,218,2.0,4.0,59,0.00,,---,0.00,VWS V14.01,2013-05-21 18:06:00,
2013-05-21 14:07:00,85.5,70.0,29.84,SSW,209,3.0,4.0,60,0.00,,---,0.00,VWS V14.01,2013-05-21 18:07:00,
2013-05-21 14:08:00,85.5,70.0,29.84,SSW,211,3.0,4.0,60,0.00,,---,0.00,VWS V14.01,2013-05-21 18:08:00,
2013-05-21 14:09:00,85.7,70.2,29.84,SW,225,4.0,9.0,60,0.00,,---,0.00,VWS V14.01,2013-05-21 18:09:00,
2013-05-21 14:10:00,85.7,70.2,29.84,SW,221,3.0,9.0,60,0.00,,---,0.00,VWS V14.01,2013-05-21 18:10:00,
2013-05-21 14:11:00,85.5,70.0,29.84,SW,224,1.0,4.0,60,0.00,,---,0.00,VWS V14.01,2013-05-21 18:11:00,
2013-05-21 14:12:00,85.5,70.0,29.84,WSW,256,1.0,4.0,60,0.00,,---,0.00,VWS V14.01,2013-05-21 18:12:00,
2013-05-21 14:13:00,85.5,70.0,29.84,SW,234,0.0,4.0,60,0.00,,---,0.00,VWS V14.01,2013-05-21 18:13:00,
2013-05-21 14:14:00,85.5,70.0,29.84,SW,234,1.0,4.0,60,0.00,,---,0.00,VWS V14.01,2013-05-21 18:14:00,
2013-05-21 14:15:00,85.5,70.0,29.83,SW,235,1.0,4.0,60,0.00,,---,0.00,VWS V14.01,2013-05-21 18:15:00,
2013-05-21 14:16:00,85.5,70.0,29.83,WSW,245,0.0,4.0,60,0.00,,---,0.00,VWS V14.01,2013-05-21 18:16:00,
2013-05-21 14:17:00,85.5,70.0,29.83,SW,215,5.0,6.0,60,0.00,,---,0.00,VWS V14.01,2013-05-21 18:17:00,
2013-05-21 14:18:00,85.5,70.0,29.83,SW,215,2.0,6.0,60,0.00,,---,0.00,VWS V14.01,2013-05-21 18:18:00,
2013-05-21 14:19:00,85.5,70.5,29.83,WSW,252,7.0,7.0,61,0.00,,---,0.00,VWS V14.01,2013-05-21 18:19:00,
2013-05-21 14:20:00,85.5,70.0,29.83,SW,236,4.0,7.0,60,0.00,,---,0.00,VWS V14.01,2013-05-21 18:20:00,
2013-05-21 14:21:00,85.3,69.8,29.83,WSW,250,5.0,7.0,60,0.00,,---,0.00,VWS V14.01,2013-05-21 18:21:00,
2013-05-21 14:22:00,85.3,69.8,29.83,SW,229,4.0,7.0,60,0.00,,---,0.00,VWS V14.01,2013-05-21 18:22:00,
2013-05-21 14:23:00,85.1,69.7,29.83,SW,227,2.0,7.0,60,0.00,,---,0.00,VWS V14.01,2013-05-21 18:23:00,
2013-05-21 14:24:00,85.1,69.7,29.83,SW,218,3.0,7.0,60,0.00,,---,0.00,VWS V14.01,2013-05-21 18:24:00,
2013-05-21 14:25:00,85.1,70.2,29.83,WSW,250,5.0,7.0,61,0.00,,---,0.00,VWS V14.01,2013-05-21 18:25:00,
2013-05-21 14:26:00,84.9,70.0,29.83,SW,215,5.0,5.0,61,0.00,,---,0.00,VWS V14.01,2013-05-21 18:26:00,
2013-05-21 14:27:00,84.9,70.0,29.83,SW,227,4.0,6.0,61,0.00,,---,0.00,VWS V14.01,2013-05-21 18:27:00,
2013-05-21 14:28:00,84.9,70.0,29.83,SW,215,4.0,6.0,61,0.00,,---,0.00,VWS V14.01,2013-05-21 18:28:00,
2013-05-21 14:29:00,84.9,70.0,29.83,SW,219,3.0,6.0,61,0.00,,---,0.00,VWS V14.01,2013-05-21 18:29:00,
2013-05-21 14:30:00,84.7,69.8,29.82,WSW,255,2.0,6.0,61,0.00,,---,0.00,VWS V14.01,2013-05-21 18:30:00,
2013-05-21 14:31:00,84.7,69.8,29.82,WSW,248,3.0,3.0,61,0.00,,---,0.00,VWS V14.01,2013-05-21 18:31:00,
2013-05-21 14:32:00,84.7,69.8,29.82,SW,232,3.0,4.0,61,0.00,,---,0.00,VWS V14.01,2013-05-21 18:32:00,
2013-05-21 14:33:00,84.7,70.2,29.82,SW,228,4.0,4.0,62,0.00,,---,0.00,VWS V14.01,2013-05-21 18:33:00,
2013-05-21 14:34:00,84.7,70.2,29.82,SW,229,0.0,5.0,62,0.00,,---,0.00,VWS V14.01,2013-05-21 18:34:00,
2013-05-21 14:35:00,84.7,69.8,29.82,SW,229,1.0,5.0,61,0.00,,---,0.00,VWS V14.01,2013-05-21 18:35:00,
2013-05-21 14:36:00,84.7,70.2,29.82,WSW,240,3.0,3.0,62,0.00,,---,0.00,VWS V14.01,2013-05-21 18:36:00,
2013-05-21 14:37:00,84.7,70.2,29.82,SW,215,2.0,3.0,62,0.00,,---,0.00,VWS V14.01,2013-05-21 18:37:00,
2013-05-21 14:38:00,84.7,70.2,29.82,North,360,1.0,3.0,62,0.00,,---,0.00,VWS V14.01,2013-05-21 18:38:00,
2013-05-21 14:39:00,84.9,70.4,29.82,West,276,5.0,5.0,62,0.00,,---,0.00,VWS V14.01,2013-05-21 18:39:00,
2013-05-21 14:40:00,84.9,70.4,29.82,WSW,250,0.0,5.0,62,0.00,,---,0.00,VWS V14.01,2013-05-21 18:40:00,
2013-05-21 14:41:00,84.9,70.4,29.82,SW,234,4.0,4.0,62,0.00,,---,0.00,VWS V14.01,2013-05-21 18:41:00,
2013-05-21 14:42:00,84.9,70.4,29.82,WSW,250,2.0,5.0,62,0.00,,---,0.00,VWS V14.01,2013-05-21 18:42:00,
2013-05-21 14:43:00,84.9,70.0,29.82,WSW,250,0.0,5.0,61,0.00,,---,0.00,VWS V14.01,2013-05-21 18:43:00,
2013-05-21 14:44:00,85.1,70.2,29.82,SW,234,4.0,7.0,61,0.00,,---,0.00,VWS V14.01,2013-05-21 18:44:00,
2013-05-21 14:45:00,85.1,70.2,29.82,SW,228,3.0,7.0,61,0.00,,---,0.00,VWS V14.01,2013-05-21 18:45:00,
2013-05-21 14:46:00,85.1,70.2,29.82,WSW,243,6.0,7.0,61,0.00,,---,0.00,VWS V14.01,2013-05-21 18:46:00,
2013-05-21 14:47:00,85.1,69.7,29.82,SW,232,2.0,7.0,60,0.00,,---,0.00,VWS V14.01,2013-05-21 18:47:00,
2013-05-21 14:48:00,85.1,70.2,29.82,SSW,212,6.0,8.0,61,0.00,,---,0.00,VWS V14.01,2013-05-21 18:48:00,
2013-05-21 14:49:00,85.1,70.2,29.82,SW,236,3.0,8.0,61,0.00,,---,0.00,VWS V14.01,2013-05-21 18:49:00,
2013-05-21 14:50:00,85.1,69.7,29.82,SW,235,4.0,8.0,60,0.00,,---,0.00,VWS V14.01,2013-05-21 18:50:00,
2013-05-21 14:51:00,84.9,69.5,29.82,West,260,1.0,4.0,60,0.00,,---,0.00,VWS V14.01,2013-05-21 18:51:00,
2013-05-21 14:52:00,84.9,69.5,29.82,SW,232,5.0,5.0,60,0.00,,---,0.00,VWS V14.01,2013-05-21 18:52:00,
2013-05-21 14:53:00,84.9,70.0,29.82,SW,235,3.0,5.0,61,0.00,,---,0.00,VWS V14.01,2013-05-21 18:53:00,
2013-05-21 14:54:00,84.9,70.0,29.82,SW,224,3.0,5.0,61,0.00,,---,0.00,VWS V14.01,2013-05-21 18:54:00,
2013-05-21 14:55:00,84.9,69.5,29.82,SW,224,1.0,5.0,60,0.00,,---,0.00,VWS V14.01,2013-05-21 18:55:00,
2013-05-21 14:56:00,84.9,70.0,29.82,SSW,210,3.0,5.0,61,0.00,,---,0.00,VWS V14.01,2013-05-21 18:56:00,
2013-05-21 14:57:00,84.9,70.0,29.82,SSW,208,3.0,5.0,61,0.00,,---,0.00,VWS V14.01,2013-05-21 18:57:00,
2013-05-21 14:58:00,84.9,70.0,29.82,SSW,209,5.0,6.0,61,0.00,,---,0.00,VWS V14.01,2013-05-21 18:58:00,
2013-05-21 14:59:00,84.9,70.0,29.82,SSW,212,4.0,8.0,61,0.00,,---,0.00,VWS V14.01,2013-05-21 18:59:00,
2013-05-21 15:00:00,84.7,69.8,29.82,South,176,2.0,8.0,61,0.00,,---,0.00,VWS V14.01,2013-05-21 19:00:00,
2013-05-21 15:01:00,84.7,69.8,29.82,SSW,207,3.0,7.0,61,0.00,,---,0.00,VWS V14.01,2013-05-21 19:01:00,
2013-05-21 15:02:00,84.7,69.8,29.82,SSW,210,1.0,7.0,61,0.00,,---,0.00,VWS V14.01,2013-05-21 19:02:00,
2013-05-21 15:03:00,84.7,69.8,29.82,SSW,212,3.0,7.0,61,0.00,,---,0.00,VWS V14.01,2013-05-21 19:03:00,
2013-05-21 15:04:00,84.7,69.8,29.82,SW,215,6.0,7.0,61,0.00,,---,0.00,VWS V14.01,2013-05-21 19:04:00,
2013-05-21 15:05:00,84.7,69.8,29.82,SSW,210,3.0,8.0,61,0.00,,---,0.00,VWS V14.01,2013-05-21 19:05:00,
2013-05-21 15:06:00,84.7,69.8,29.82,SW,217,7.0,7.0,61,0.00,,---,0.00,VWS V14.01,2013-05-21 19:06:00,
2013-05-21 15:07:00,84.7,69.8,29.82,SW,221,5.0,7.0,61,0.00,,---,0.00,VWS V14.01,2013-05-21 19:07:00,
2013-05-21 15:08:00,84.7,69.8,29.82,SSW,211,6.0,10.0,61,0.00,,---,0.00,VWS V14.01,2013-05-21 19:08:00,
2013-05-21 15:09:00,84.7,69.8,29.82,SSW,195,6.0,10.0,61,0.00,,---,0.00,VWS V14.01,2013-05-21 19:09:00,
2013-05-21 15:10:00,84.5,69.6,29.82,WSW,238,3.0,10.0,61,0.00,,---,0.00,VWS V14.01,2013-05-21 19:10:00,
2013-05-21 15:11:00,84.5,70.1,29.82,SSW,202,4.0,5.0,62,0.00,,---,0.00,VWS V14.01,2013-05-21 19:11:00,
2013-05-21 15:12:00,84.5,70.1,29.82,SW,233,5.0,5.0,62,0.00,,---,0.00,VWS V14.01,2013-05-21 19:12:00,
2013-05-21 15:13:00,84.5,69.6,29.82,WSW,243,3.0,5.0,61,0.00,,---,0.00,VWS V14.01,2013-05-21 19:13:00,
2013-05-21 15:14:00,84.5,69.6,29.82,SW,232,1.0,5.0,61,0.00,,---,0.00,VWS V14.01,2013-05-21 19:14:00,
2013-05-21 15:15:00,84.5,69.6,29.82,WSW,252,2.0,5.0,61,0.00,,---,0.00,VWS V14.01,2013-05-21 19:15:00,
2013-05-21 15:16:00,84.5,69.6,29.82,WSW,238,3.0,5.0,61,0.00,,---,0.00,VWS V14.01,2013-05-21 19:16:00,
2013-05-21 15:17:00,84.3,69.4,29.82,SW,233,4.0,5.0,61,0.00,,---,0.00,VWS V14.01,2013-05-21 19:17:00,
2013-05-21 15:18:00,84.3,69.4,29.82,SW,234,2.0,5.0,61,0.00,,---,0.00,VWS V14.01,2013-05-21 19:18:00,
2013-05-21 15:19:00,84.3,69.4,29.82,WSW,254,6.0,8.0,61,0.00,,---,0.00,VWS V14.01,2013-05-21 19:19:00,
2013-05-21 15:20:00,84.3,69.4,29.82,West,265,3.0,8.0,61,0.00,,---,0.00,VWS V14.01,2013-05-21 19:20:00,
2013-05-21 15:21:00,84.3,69.9,29.82,WSW,253,3.0,4.0,62,0.00,,---,0.00,VWS V14.01,2013-05-21 19:21:00,
2013-05-21 15:22:00,84.3,69.9,29.82,WSW,240,3.0,5.0,62,0.00,,---,0.00,VWS V14.01,2013-05-21 19:22:00,
2013-05-21 15:23:00,84.3,69.9,29.82,WSW,239,3.0,5.0,62,0.00,,---,0.00,VWS V14.01,2013-05-21 19:23:00,
2013-05-21 15:24:00,84.3,69.9,29.82,WSW,238,3.0,5.0,62,0.00,,---,0.00,VWS V14.01,2013-05-21 19:24:00,
2013-05-21 15:25:00,84.3,69.9,29.82,WSW,247,1.0,5.0,62,0.00,,---,0.00,VWS V14.01,2013-05-21 19:25:00,
2013-05-21 15:26:00,84.3,69.9,29.82,SW,233,4.0,4.0,62,0.00,,---,0.00,VWS V14.01,2013-05-21 19:26:00,
2013-05-21 15:27:00,84.1,69.7,29.82,WSW,242,4.0,5.0,62,0.00,,---,0.00,VWS V14.01,2013-05-21 19:27:00,
2013-05-21 15:28:00,84.1,69.7,29.82,WSW,250,4.0,5.0,62,0.00,,---,0.00,VWS V14.01,2013-05-21 19:28:00,
2013-05-21 15:29:00,84.1,69.7,29.82,WSW,250,2.0,5.0,62,0.00,,---,0.00,VWS V14.01,2013-05-21 19:29:00,
2013-05-21 15:30:00,84.1,69.7,29.82,WSW,249,3.0,5.0,62,0.00,,---,0.00,VWS V14.01,2013-05-21 19:30:00,
2013-05-21 15:31:00,84.1,69.7,29.82,WSW,252,2.0,4.0,62,0.00,,---,0.00,VWS V14.01,2013-05-21 19:31:00,
2013-05-21 15:32:00,84.1,69.7,29.82,SW,229,4.0,4.0,62,0.00,,---,0.00,VWS V14.01,2013-05-21 19:32:00,
2013-05-21 15:33:00,84.1,69.7,29.82,SW,235,2.0,4.0,62,0.00,,---,0.00,VWS V14.01,2013-05-21 19:33:00,
2013-05-21 15:34:00,84.1,69.7,29.82,SW,235,0.0,4.0,62,0.00,,---,0.00,VWS V14.01,2013-05-21 19:34:00,
2013-05-21 15:35:00,84.1,69.7,29.82,West,271,5.0,5.0,62,0.00,,---,0.00,VWS V14.01,2013-05-21 19:35:00,
2013-05-21 15:36:00,84.1,69.7,29.82,West,277,0.0,6.0,62,0.00,,---,0.00,VWS V14.01,2013-05-21 19:36:00,
2013-05-21 15:37:00,84.1,69.7,29.82,West,259,2.0,6.0,62,0.00,,---,0.00,VWS V14.01,2013-05-21 19:37:00,
2013-05-21 15:38:00,84.1,69.7,29.82,WSW,252,1.0,6.0,62,0.00,,---,0.00,VWS V14.01,2013-05-21 19:38:00,
2013-05-21 15:39:00,84.1,69.7,29.82,WSW,248,0.0,6.0,62,0.00,,---,0.00,VWS V14.01,2013-05-21 19:39:00,
2013-05-21 15:40:00,84.1,70.2,29.82,SW,231,2.0,6.0,63,0.00,,---,0.00,VWS V14.01,2013-05-21 19:40:00,
2013-05-21 15:41:00,84.1,69.7,29.82,SW,217,3.0,6.0,62,0.00,,---,0.00,VWS V14.01,2013-05-21 19:41:00,
2013-05-21 15:42:00,84.1,69.7,29.82,SW,221,2.0,6.0,62,0.00,,---,0.00,VWS V14.01,2013-05-21 19:42:00,
2013-05-21 15:43:00,84.1,69.7,29.82,SW,221,4.0,6.0,62,0.00,,---,0.00,VWS V14.01,2013-05-21 19:43:00,
2013-05-21 15:44:00,84.1,69.7,29.82,SSW,212,3.0,6.0,62,0.00,,---,0.00,VWS V14.01,2013-05-21 19:44:00,
2013-05-21 15:45:00,84.1,69.7,29.82,WSW,250,3.0,6.0,62,0.00,,---,0.00,VWS V14.01,2013-05-21 19:45:00,
2013-05-21 15:46:00,84.0,69.6,29.82,SSW,203,7.0,7.0,62,0.00,,---,0.00,VWS V14.01,2013-05-21 19:46:00,
2013-05-21 15:47:00,84.0,69.6,29.82,WSW,246,4.0,7.0,62,0.00,,---,0.00,VWS V14.01,2013-05-21 19:47:00,
2013-05-21 15:48:00,84.0,69.6,29.82,WSW,246,0.0,7.0,62,0.00,,---,0.00,VWS V14.01,2013-05-21 19:48:00,
2013-05-21 15:49:00,84.0,69.6,29.82,WSW,246,3.0,7.0,62,0.00,,---,0.00,VWS V14.01,2013-05-21 19:49:00,
2013-05-21 15:50:00,84.0,69.6,29.82,WSW,250,1.0,7.0,62,0.00,,---,0.00,VWS V14.01,2013-05-21 19:50:00,
2013-05-21 15:51:00,84.0,69.6,29.82,WSW,250,2.0,3.0,62,0.00,,---,0.00,VWS V14.01,2013-05-21 19:51:00,
2013-05-21 15:52:00,84.0,69.6,29.82,WSW,250,0.0,3.0,62,0.00,,---,0.00,VWS V14.01,2013-05-21 19:52:00,
2013-05-21 15:53:00,84.0,69.6,29.82,WSW,250,3.0,3.0,62,0.00,,---,0.00,VWS V14.01,2013-05-21 19:53:00,
2013-05-21 15:54:00,84.0,69.6,29.82,WSW,250,4.0,4.0,62,0.00,,---,0.00,VWS V14.01,2013-05-21 19:54:00,
2013-05-21 15:55:00,84.0,69.6,29.82,WSW,250,3.0,4.0,62,0.00,,---,0.00,VWS V14.01,2013-05-21 19:55:00,
2013-05-21 15:56:00,83.8,69.4,29.82,SSW,208,3.0,6.0,62,0.00,,---,0.00,VWS V14.01,2013-05-21 19:56:00,
2013-05-21 15:57:00,83.8,69.4,29.82,SSW,208,0.0,6.0,62,0.00,,---,0.00,VWS V14.01,2013-05-21 19:57:00,
2013-05-21 15:58:00,83.8,69.4,29.82,SW,225,1.0,6.0,62,0.00,,---,0.00,VWS V14.01,2013-05-21 19:58:00,
2013-05-21 15:59:00,83.8,69.4,29.82,SW,225,2.0,6.0,62,0.00,,---,0.00,VWS V14.01,2013-05-21 19:59:00,
2013-05-21 16:00:00,83.6,69.2,29.82,SW,225,0.0,6.0,62,0.00,,---,0.00,VWS V14.01,2013-05-21 20:00:00,
2013-05-21 16:01:00,83.6,69.7,29.82,SW,225,0.0,1.0,63,0.00,,---,0.00,VWS V14.01,2013-05-21 20:01:00,
2013-05-21 16:02:00,83.6,69.7,29.82,SW,226,0.0,2.0,63,0.00,,---,0.00,VWS V14.01,2013-05-21 20:02:00,
2013-05-21 16:03:00,83.6,69.7,29.82,SW,226,1.0,3.0,63,0.00,,---,0.00,VWS V14.01,2013-05-21 20:03:00,
2013-05-21 16:04:00,83.4,69.5,29.82,SW,221,4.0,4.0,63,0.00,,---,0.00,VWS V14.01,2013-05-21 20:04:00,
2013-05-21 16:05:00,83.4,69.5,29.82,WSW,254,4.0,5.0,63,0.00,,---,0.00,VWS V14.01,2013-05-21 20:05:00,
2013-05-21 16:06:00,83.4,69.5,29.82,WSW,237,2.0,6.0,63,0.00,,---,0.00,VWS V14.01,2013-05-21 20:06:00,
2013-05-21 16:07:00,83.2,69.3,29.82,SW,236,0.0,6.0,63,0.00,,---,0.00,VWS V14.01,2013-05-21 20:07:00,
2013-05-21 16:08:00,83.2,69.3,29.82,SW,236,0.0,6.0,63,0.00,,---,0.00,VWS V14.01,2013-05-21 20:08:00,
2013-05-21 16:09:00,83.2,69.3,29.82,SW,236,1.0,6.0,63,0.00,,---,0.00,VWS V14.01,2013-05-21 20:09:00,
2013-05-21 16:10:00,83.0,69.1,29.82,SW,236,0.0,6.0,63,0.00,,---,0.00,VWS V14.01,2013-05-21 20:10:00,
2013-05-21 16:11:00,83.0,69.6,29.82,SSW,201,4.0,4.0,64,0.00,,---,0.00,VWS V14.01,2013-05-21 20:11:00,
2013-05-21 16:12:00,83.0,69.6,29.82,SSW,211,0.0,6.0,64,0.00,,---,0.00,VWS V14.01,2013-05-21 20:12:00,
2013-05-21 16:13:00,82.8,69.4,29.82,SSW,211,0.0,6.0,64,0.00,,---,0.00,VWS V14.01,2013-05-21 20:13:00,
2013-05-21 16:14:00,82.8,69.4,29.82,SSW,211,2.0,6.0,64,0.00,,---,0.00,VWS V14.01,2013-05-21 20:14:00,
2013-05-21 16:15:00,82.8,69.4,29.83,SSW,208,0.0,6.0,64,0.00,,---,0.00,VWS V14.01,2013-05-21 20:15:00,
2013-05-21 16:16:00,82.6,69.2,29.83,SSW,196,4.0,5.0,64,0.00,,---,0.00,VWS V14.01,2013-05-21 20:16:00,
2013-05-21 16:17:00,82.6,69.2,29.83,SSW,196,0.0,5.0,64,0.00,,---,0.00,VWS V14.01,2013-05-21 20:17:00,
2013-05-21 16:18:00,82.6,69.2,29.83,SSW,204,1.0,5.0,64,0.00,,---,0.00,VWS V14.01,2013-05-21 20:18:00,
2013-05-21 16:19:00,82.4,69.0,29.83,SW,233,0.0,5.0,64,0.00,,---,0.00,VWS V14.01,2013-05-21 20:19:00,
2013-05-21 16:20:00,82.4,69.0,29.83,SW,233,0.0,5.0,64,0.00,,---,0.00,VWS V14.01,2013-05-21 20:20:00,
2013-05-21 16:21:00,82.4,69.0,29.83,SW,234,0.0,2.0,64,0.00,,---,0.00,VWS V14.01,2013-05-21 20:21:00,
2013-05-21 16:22:00,82.4,69.5,29.83,SW,234,0.0,2.0,65,0.00,,---,0.00,VWS V14.01,2013-05-21 20:22:00,
2013-05-21 16:23:00,82.4,69.5,29.83,SW,234,0.0,2.0,65,0.00,,---,0.00,VWS V14.01,2013-05-21 20:23:00,
2013-05-21 16:24:00,82.4,69.5,29.83,SW,234,0.0,2.0,65,0.00,,---,0.00,VWS V14.01,2013-05-21 20:24:00,
2013-05-21 16:25:00,82.2,69.3,29.83,SW,234,1.0,2.0,65,0.00,,---,0.00,VWS V14.01,2013-05-21 20:25:00,
2013-05-21 16:26:00,82.2,69.3,29.83,ENE,61,3.0,3.0,65,0.00,,---,0.00,VWS V14.01,2013-05-21 20:26:00,
2013-05-21 16:27:00,82.2,68.8,29.83,ENE,61,0.0,4.0,64,0.00,,---,0.00,VWS V14.01,2013-05-21 20:27:00,
2013-05-21 16:28:00,82.2,69.3,29.83,East,84,8.0,9.0,65,0.00,,---,0.00,VWS V14.01,2013-05-21 20:28:00,
2013-05-21 16:29:00,82.0,69.5,29.83,NNE,24,5.0,9.0,66,0.00,,---,0.00,VWS V14.01,2013-05-21 20:29:00,
2013-05-21 16:30:00,81.8,69.3,29.83,NNE,25,1.0,9.0,66,0.00,,---,0.00,VWS V14.01,2013-05-21 20:30:00,
2013-05-21 16:31:00,81.6,69.2,29.83,SE,132,4.0,4.0,66,0.00,,---,0.00,VWS V14.01,2013-05-21 20:31:00,
2013-05-21 16:32:00,81.1,68.7,29.83,SE,134,5.0,7.0,66,0.00,,---,0.00,VWS V14.01,2013-05-21 20:32:00,
2013-05-21 16:33:00,80.7,68.7,29.83,SE,134,0.0,7.0,67,0.00,,---,0.00,VWS V14.01,2013-05-21 20:33:00,
2013-05-21 16:34:00,80.5,69.0,29.83,SE,134,0.0,7.0,68,0.00,,---,0.00,VWS V14.01,2013-05-21 20:34:00,
2013-05-21 16:35:00,80.3,69.2,29.83,SE,134,1.0,7.0,69,0.00,,---,0.00,VWS V14.01,2013-05-21 20:35:00,
2013-05-21 16:36:00,80.3,68.8,29.83,NNE,14,1.0,5.0,68,0.00,,---,0.00,VWS V14.01,2013-05-21 20:36:00,
2013-05-21 16:37:00,79.9,68.4,29.83,North,9,3.0,5.0,68,0.00,,---,0.00,VWS V14.01,2013-05-21 20:37:00,
2013-05-21 16:38:00,79.8,68.3,29.83,NNW,344,3.0,5.0,68,0.00,,---,0.00,VWS V14.01,2013-05-21 20:38:00,
2013-05-21 16:39:00,79.4,67.9,29.83,NE,39,3.0,5.0,68,0.00,,---,0.00,VWS V14.01,2013-05-21 20:39:00,
2013-05-21 16:40:00,79.0,67.6,29.83,NNE,22,7.0,8.0,68,0.00,,---,0.00,VWS V14.01,2013-05-21 20:40:00,
2013-05-21 16:41:00,78.5,67.1,29.83,NNE,22,0.0,5.0,68,0.00,,---,0.00,VWS V14.01,2013-05-21 20:41:00,
2013-05-21 16:42:00,77.7,66.7,29.83,NNE,32,5.0,7.0,69,0.00,,---,0.00,VWS V14.01,2013-05-21 20:42:00,
2013-05-21 16:43:00,77.2,66.7,29.83,NNE,32,5.0,7.0,70,0.00,,---,0.00,VWS V14.01,2013-05-21 20:43:00,
2013-05-21 16:44:00,76.5,66.4,29.83,NNE,32,2.0,7.0,71,0.00,,---,0.00,VWS V14.01,2013-05-21 20:44:00,
2013-05-21 16:45:00,76.0,66.3,29.85,NNE,32,3.0,7.0,72,0.00,,---,0.00,VWS V14.01,2013-05-21 20:45:00,
2013-05-21 16:46:00,75.4,65.8,29.85,NNE,32,3.0,3.0,72,0.00,,---,0.00,VWS V14.01,2013-05-21 20:46:00,
2013-05-21 16:47:00,75.1,65.9,29.85,NE,36,4.0,6.0,73,0.00,,---,0.00,VWS V14.01,2013-05-21 20:47:00,
2013-05-21 16:48:00,74.6,65.4,29.85,NNW,348,4.0,10.0,73,0.00,,---,0.00,VWS V14.01,2013-05-21 20:48:00,
2013-05-21 16:49:00,74.0,65.2,29.85,North,360,2.0,10.0,74,0.00,,---,0.00,VWS V14.01,2013-05-21 20:49:00,
2013-05-21 16:50:00,73.5,64.7,29.85,NNE,21,6.0,10.0,74,0.00,,---,0.00,VWS V14.01,2013-05-21 20:50:00,
2013-05-21 16:51:00,73.0,64.2,29.85,NW,325,3.0,7.0,74,0.00,,---,0.00,VWS V14.01,2013-05-21 20:51:00,
2013-05-21 16:52:00,72.3,63.9,29.85,NNE,29,2.0,7.0,75,0.00,,---,0.00,VWS V14.01,2013-05-21 20:52:00,
2013-05-21 16:53:00,72.0,64.4,29.85,NNE,29,3.0,7.0,77,0.00,,---,0.00,VWS V14.01,2013-05-21 20:53:00,
2013-05-21 16:54:00,71.5,63.9,29.85,NNE,24,2.0,7.0,77,0.00,,---,0.00,VWS V14.01,2013-05-21 20:54:00,
2013-05-21 16:55:00,70.9,63.3,29.85,NNE,24,0.0,7.0,77,0.00,,---,0.00,VWS V14.01,2013-05-21 20:55:00,
2013-05-21 16:56:00,70.8,63.6,29.85,NNE,24,4.0,5.0,78,0.00,,---,0.00,VWS V14.01,2013-05-21 20:56:00,
2013-05-21 16:57:00,70.4,63.2,29.85,NNE,25,5.0,8.0,78,0.00,,---,0.00,VWS V14.01,2013-05-21 20:57:00,
2013-05-21 16:58:00,69.9,62.7,29.85,NNE,22,6.0,8.0,78,0.00,,---,0.00,VWS V14.01,2013-05-21 20:58:00,
2013-05-21 16:59:00,69.4,62.6,29.85,NNE,22,4.0,8.0,79,0.00,,---,0.00,VWS V14.01,2013-05-21 20:59:00,
2013-05-21 17:00:00,69.1,62.7,29.88,NNE,22,4.0,8.0,80,0.00,,---,0.00,VWS V14.01,2013-05-21 21:00:00,
2013-05-21 17:01:00,68.8,62.4,29.88,SE,140,0.0,5.0,80,0.00,,---,0.00,VWS V14.01,2013-05-21 21:01:00,
2013-05-21 17:02:00,68.4,62.3,29.88,ENE,57,0.0,5.0,81,0.00,,---,0.00,VWS V14.01,2013-05-21 21:02:00,
2013-05-21 17:03:00,68.3,62.2,29.88,NNE,28,3.0,6.0,81,0.00,,---,0.00,VWS V14.01,2013-05-21 21:03:00,
2013-05-21 17:04:00,67.9,62.2,29.88,NE,42,4.0,9.0,82,0.00,,---,0.00,VWS V14.01,2013-05-21 21:04:00,
2013-05-21 17:05:00,67.8,62.1,29.88,NE,42,1.0,9.0,82,0.00,,---,0.00,VWS V14.01,2013-05-21 21:05:00,
2013-05-21 17:06:00,67.6,61.9,29.88,NNE,14,4.0,8.0,82,0.00,,---,0.00,VWS V14.01,2013-05-21 21:06:00,
2013-05-21 17:07:00,67.4,61.7,29.88,NNE,14,0.0,8.0,82,0.00,,---,0.00,VWS V14.01,2013-05-21 21:07:00,
2013-05-21 17:09:00,67.1,61.4,29.88,North,360,0.0,0.0,82,0.00,,---,0.00,VWS V14.01,2013-05-21 21:09:00,
2013-05-21 17:10:00,66.9,61.2,29.88,North,360,0.0,0.0,82,0.00,,---,0.00,VWS V14.01,2013-05-21 21:10:00,
2013-05-21 17:11:00,66.9,61.6,29.88,North,360,1.0,1.0,83,0.00,,---,0.00,VWS V14.01,2013-05-21 21:11:00,
2013-05-21 17:12:00,66.8,61.5,29.88,ESE,115,0.0,5.0,83,0.00,,---,0.00,VWS V14.01,2013-05-21 21:12:00,
2013-05-21 17:13:00,66.6,61.3,29.88,ENE,59,3.0,5.0,83,0.00,,---,0.00,VWS V14.01,2013-05-21 21:13:00,
2013-05-21 17:14:00,66.4,61.1,29.88,NE,41,0.0,5.0,83,0.00,,---,0.00,VWS V14.01,2013-05-21 21:14:00,
2013-05-21 17:15:00,66.3,61.0,29.89,SE,126,6.0,6.0,83,0.00,,---,0.00,VWS V14.01,2013-05-21 21:15:00,
2013-05-21 17:16:00,66.1,60.8,29.89,East,81,3.0,6.0,83,0.00,,---,0.00,VWS V14.01,2013-05-21 21:16:00,
2013-05-21 17:17:00,66.0,61.0,29.89,East,81,0.0,6.0,84,0.00,,---,0.00,VWS V14.01,2013-05-21 21:17:00,
2013-05-21 17:18:00,65.8,60.8,29.89,East,81,0.0,6.0,84,0.00,,---,0.00,VWS V14.01,2013-05-21 21:18:00,
2013-05-21 17:19:00,65.8,60.8,29.89,SE,146,0.0,6.0,84,0.00,,---,0.00,VWS V14.01,2013-05-21 21:19:00,
2013-05-21 17:20:00,65.6,60.6,29.89,NNE,30,3.0,8.0,84,0.00,,---,0.00,VWS V14.01,2013-05-21 21:20:00,
2013-05-21 17:21:00,65.5,60.5,29.89,NNE,30,2.0,8.0,84,0.00,,---,0.00,VWS V14.01,2013-05-21 21:21:00,
2013-05-21 17:22:00,65.3,60.3,29.89,NNE,30,0.0,8.0,84,0.00,,---,0.00,VWS V14.01,2013-05-21 21:22:00,
2013-05-21 17:23:00,65.2,60.6,29.89,NNE,30,1.0,8.0,85,0.00,,---,0.00,VWS V14.01,2013-05-21 21:23:00,
2013-05-21 17:24:00,65.2,60.6,29.89,NNE,22,4.0,8.0,85,0.00,,---,0.00,VWS V14.01,2013-05-21 21:24:00,
2013-05-21 17:25:00,65.0,60.4,29.89,NE,34,2.0,9.0,85,0.00,,---,0.00,VWS V14.01,2013-05-21 21:25:00,
2013-05-21 17:26:00,64.8,60.2,29.89,NNE,32,0.0,9.0,85,0.00,,---,0.00,VWS V14.01,2013-05-21 21:26:00,
2013-05-21 17:27:00,64.7,60.1,29.89,NNE,29,3.0,9.0,85,0.00,,---,0.00,VWS V14.01,2013-05-21 21:27:00,
2013-05-21 17:28:00,64.7,60.1,29.89,NNE,29,0.0,9.0,85,0.00,,---,0.00,VWS V14.01,2013-05-21 21:28:00,
2013-05-21 17:29:00,64.5,59.9,29.89,NNE,29,3.0,9.0,85,0.00,,---,0.00,VWS V14.01,2013-05-21 21:29:00,
2013-05-21 17:30:00,64.3,59.7,29.92,NE,34,0.0,9.0,85,0.00,,---,0.00,VWS V14.01,2013-05-21 21:30:00,
2013-05-21 17:31:00,64.3,59.7,29.92,NE,34,1.0,4.0,85,0.00,,---,0.00,VWS V14.01,2013-05-21 21:31:00,
2013-05-21 17:32:00,64.2,59.6,29.92,NE,35,2.0,4.0,85,0.00,,---,0.00,VWS V14.01,2013-05-21 21:32:00,
2013-05-21 17:33:00,64.2,59.9,29.92,NE,34,1.0,4.0,86,0.00,,---,0.00,VWS V14.01,2013-05-21 21:33:00,
2013-05-21 17:34:00,64.0,59.7,29.92,SSE,149,1.0,4.0,86,0.00,,---,0.00,VWS V14.01,2013-05-21 21:34:00,
2013-05-21 17:35:00,64.0,59.7,29.92,SE,125,7.0,7.0,86,0.00,,---,0.00,VWS V14.01,2013-05-21 21:35:00,
2013-05-21 17:36:00,63.9,59.6,29.92,ESE,119,2.0,7.0,86,0.00,,---,0.00,VWS V14.01,2013-05-21 21:36:00,
2013-05-21 17:37:00,63.7,59.4,29.92,ESE,119,0.0,7.0,86,0.00,,---,0.00,VWS V14.01,2013-05-21 21:37:00,
2013-05-21 17:38:00,63.7,59.4,29.92,ESE,119,0.0,7.0,86,0.00,,---,0.00,VWS V14.01,2013-05-21 21:38:00,
2013-05-21 17:39:00,63.5,59.6,29.92,NNW,332,0.0,7.0,87,0.00,,---,0.00,VWS V14.01,2013-05-21 21:39:00,
2013-05-21 17:40:00,63.5,59.2,29.92,East,79,5.0,7.0,86,0.00,,---,0.00,VWS V14.01,2013-05-21 21:40:00,
2013-05-21 17:41:00,63.4,59.2,29.92,ESE,117,1.0,6.0,86,0.00,,---,0.00,VWS V14.01,2013-05-21 21:41:00,
2013-05-21 17:42:00,63.4,59.2,29.92,ESE,111,0.0,6.0,86,0.00,,---,0.00,VWS V14.01,2013-05-21 21:42:00,
2013-05-21 17:43:00,63.2,59.0,29.92,ESE,114,0.0,6.0,86,0.00,,---,0.00,VWS V14.01,2013-05-21 21:43:00,
2013-05-21 17:44:00,63.2,59.0,29.92,NNE,28,4.0,6.0,86,0.00,,---,0.00,VWS V14.01,2013-05-21 21:44:00,
2013-05-21 17:45:00,63.1,58.8,29.92,ESE,118,0.0,9.0,86,0.00,,---,0.00,VWS V14.01,2013-05-21 21:45:00,
2013-05-21 17:46:00,63.1,59.2,29.92,ENE,59,0.0,9.0,87,0.00,,---,0.00,VWS V14.01,2013-05-21 21:46:00,
2013-05-21 17:47:00,63.1,59.2,29.92,ENE,58,5.0,9.0,87,0.00,,---,0.00,VWS V14.01,2013-05-21 21:47:00,
2013-05-21 17:48:00,62.9,59.0,29.92,NNE,28,5.0,9.0,87,0.00,,---,0.00,VWS V14.01,2013-05-21 21:48:00,
2013-05-21 17:49:00,62.9,59.0,29.92,NNE,28,0.0,9.0,87,0.00,,---,0.00,VWS V14.01,2013-05-21 21:49:00,
2013-05-21 17:50:00,62.9,59.0,29.92,NNE,28,0.0,9.0,87,0.00,,---,0.00,VWS V14.01,2013-05-21 21:50:00,
2013-05-21 17:51:00,62.7,58.8,29.92,NNE,28,0.0,2.0,87,0.00,,---,0.00,VWS V14.01,2013-05-21 21:51:00,
2013-05-21 17:52:00,62.7,58.8,29.92,NE,40,3.0,5.0,87,0.00,,---,0.00,VWS V14.01,2013-05-21 21:52:00,
2013-05-21 17:53:00,62.7,58.8,29.92,NNE,32,5.0,7.0,87,0.00,,---,0.00,VWS V14.01,2013-05-21 21:53:00,
2013-05-21 17:54:00,62.6,58.7,29.92,ESE,117,6.0,7.0,87,0.00,,---,0.00,VWS V14.01,2013-05-21 21:54:00,
2013-05-21 17:55:00,62.6,58.7,29.92,NNE,33,4.0,7.0,87,0.00,,---,0.00,VWS V14.01,2013-05-21 21:55:00,
2013-05-21 17:56:00,62.4,58.5,29.92,NNE,32,0.0,7.0,87,0.00,,---,0.00,VWS V14.01,2013-05-21 21:56:00,
2013-05-21 17:57:00,62.4,58.5,29.92,NNE,32,0.0,7.0,87,0.00,,---,0.00,VWS V14.01,2013-05-21 21:57:00,
2013-05-21 17:58:00,62.4,58.5,29.92,NNE,20,0.0,7.0,87,0.00,,---,0.00,VWS V14.01,2013-05-21 21:58:00,
2013-05-21 17:59:00,62.4,58.5,29.92,NNE,20,1.0,7.0,87,0.00,,---,0.00,VWS V14.01,2013-05-21 21:59:00,
2013-05-21 18:00:00,62.3,58.4,29.94,NNE,33,0.0,7.0,87,0.00,,---,0.00,VWS V14.01,2013-05-21 22:00:00,
2013-05-21 18:01:00,62.1,58.2,29.94,NNE,25,0.0,3.0,87,0.00,,---,0.00,VWS V14.01,2013-05-21 22:01:00,
2013-05-21 18:02:00,62.1,58.2,29.94,NNE,22,0.0,3.0,87,0.00,,---,0.00,VWS V14.01,2013-05-21 22:02:00,
2013-05-21 18:03:00,62.1,58.2,29.94,NE,43,10.0,10.0,87,0.00,,---,0.00,VWS V14.01,2013-05-21 22:03:00,
2013-05-21 18:04:00,62.0,57.8,29.94,NNE,17,0.0,10.0,86,0.00,,---,0.00,VWS V14.01,2013-05-21 22:04:00,
2013-05-21 18:05:00,61.8,57.6,29.94,NNE,17,1.0,10.0,86,0.00,,---,0.00,VWS V14.01,2013-05-21 22:05:00,
2013-05-21 18:06:00,61.8,57.9,29.94,NNE,17,0.0,10.0,87,0.00,,---,0.00,VWS V14.01,2013-05-21 22:06:00,
2013-05-21 18:07:00,61.8,57.9,29.94,NNE,17,0.0,10.0,87,0.00,,---,0.00,VWS V14.01,2013-05-21 22:07:00,
2013-05-21 18:08:00,61.6,57.7,29.94,NNE,17,2.0,10.0,87,0.00,,---,0.00,VWS V14.01,2013-05-21 22:08:00,
2013-05-21 18:09:00,61.6,57.7,29.94,NNE,33,3.0,10.0,87,0.00,,---,0.00,VWS V14.01,2013-05-21 22:09:00,
2013-05-21 18:10:00,61.6,57.7,29.94,NNE,33,0.0,10.0,87,0.00,,---,0.00,VWS V14.01,2013-05-21 22:10:00,
2013-05-21 18:11:00,61.5,57.6,29.94,NNE,32,0.0,2.0,87,0.00,,---,0.00,VWS V14.01,2013-05-21 22:11:00,
2013-05-21 18:12:00,61.5,57.6,29.94,NNE,33,1.0,2.0,87,0.00,,---,0.00,VWS V14.01,2013-05-21 22:12:00,
2013-05-21 18:13:00,61.5,57.9,29.94,NNE,32,1.0,5.0,88,0.00,,---,0.00,VWS V14.01,2013-05-21 22:13:00,
2013-05-21 18:14:00,61.5,57.6,29.94,NNE,33,0.0,5.0,87,0.00,,---,0.00,VWS V14.01,2013-05-21 22:14:00,
2013-05-21 18:15:00,61.3,57.7,29.96,NNE,33,0.0,5.0,88,0.00,,---,0.00,VWS V14.01,2013-05-21 22:15:00,
2013-05-21 18:16:00,61.3,57.7,29.96,NNE,33,1.0,5.0,88,0.00,,---,0.00,VWS V14.01,2013-05-21 22:16:00,
2013-05-21 18:17:00,61.3,57.7,29.96,NNE,33,0.0,5.0,88,0.00,,---,0.00,VWS V14.01,2013-05-21 22:17:00,
2013-05-21 18:18:00,61.2,57.6,29.96,NNE,33,0.0,5.0,88,0.00,,---,0.00,VWS V14.01,2013-05-21 22:18:00,
2013-05-21 18:19:00,61.2,57.6,29.96,NNE,33,0.0,5.0,88,0.00,,---,0.00,VWS V14.01,2013-05-21 22:19:00,
2013-05-21 18:20:00,61.2,57.6,29.96,NNE,33,2.0,5.0,88,0.00,,---,0.00,VWS V14.01,2013-05-21 22:20:00,
2013-05-21 18:21:00,61.0,57.4,29.96,NNE,33,0.0,3.0,88,0.00,,---,0.00,VWS V14.01,2013-05-21 22:21:00,
2013-05-21 18:22:00,61.0,57.7,29.96,NW,313,0.0,3.0,89,0.00,,---,0.00,VWS V14.01,2013-05-21 22:22:00,
2013-05-21 18:23:00,60.9,57.6,29.96,NW,313,0.0,3.0,89,0.00,,---,0.00,VWS V14.01,2013-05-21 22:23:00,
2013-05-21 18:24:00,60.9,57.6,29.96,NW,313,0.0,3.0,89,0.00,,---,0.00,VWS V14.01,2013-05-21 22:24:00,
2013-05-21 18:25:00,60.9,57.6,29.96,NW,313,0.0,3.0,89,0.00,,---,0.00,VWS V14.01,2013-05-21 22:25:00,
2013-05-21 18:26:00,60.7,57.4,29.96,NW,312,1.0,3.0,89,0.00,,---,0.00,VWS V14.01,2013-05-21 22:26:00,
2013-05-21 18:27:00,60.7,57.4,29.96,NW,312,1.0,3.0,89,0.00,,---,0.00,VWS V14.01,2013-05-21 22:27:00,
2013-05-21 18:28:00,60.7,57.4,29.96,NNE,27,3.0,3.0,89,0.00,,---,0.00,VWS V14.01,2013-05-21 22:28:00,
2013-05-21 18:29:00,60.7,57.4,29.96,NNE,26,1.0,3.0,89,0.00,,---,0.00,VWS V14.01,2013-05-21 22:29:00,
2013-05-21 18:30:00,60.5,57.2,29.96,NNE,26,0.0,3.0,89,0.01,,---,0.01,VWS V14.01,2013-05-21 22:30:00,
2013-05-21 18:31:00,60.5,57.6,29.96,NNE,26,0.0,0.0,90,0.01,,---,0.01,VWS V14.01,2013-05-21 22:31:00,
2013-05-21 18:32:00,60.5,57.6,29.96,SSE,147,0.0,2.0,90,0.01,,---,0.01,VWS V14.01,2013-05-21 22:32:00,
2013-05-21 18:33:00,60.4,57.5,29.96,SSE,147,0.0,2.0,90,0.02,,---,0.02,VWS V14.01,2013-05-21 22:33:00,
2013-05-21 18:34:00,60.4,57.5,29.96,ENE,59,0.0,2.0,90,0.02,,---,0.02,VWS V14.01,2013-05-21 22:34:00,
2013-05-21 18:35:00,60.4,57.5,29.96,ENE,72,2.0,3.0,90,0.03,,---,0.03,VWS V14.01,2013-05-21 22:35:00,
2013-05-21 18:36:00,60.2,57.3,29.96,ENE,72,0.0,3.0,90,0.03,,---,0.03,VWS V14.01,2013-05-21 22:36:00,
2013-05-21 18:37:00,60.2,57.3,29.96,ENE,72,0.0,3.0,90,0.04,,---,0.04,VWS V14.01,2013-05-21 22:37:00,
2013-05-21 18:38:00,60.1,57.5,29.96,ENE,72,0.0,3.0,91,0.05,,---,0.05,VWS V14.01,2013-05-21 22:38:00,
2013-05-21 18:39:00,60.1,57.5,29.96,ENE,72,1.0,3.0,91,0.06,,---,0.06,VWS V14.01,2013-05-21 22:39:00,
2013-05-21 18:40:00,59.9,57.3,29.96,ENE,72,1.0,3.0,91,0.06,,---,0.06,VWS V14.01,2013-05-21 22:40:00,
2013-05-21 18:41:00,59.8,57.2,29.96,ESE,115,1.0,5.0,91,0.07,,---,0.07,VWS V14.01,2013-05-21 22:41:00,
2013-05-21 18:42:00,59.6,57.0,29.96,East,98,4.0,5.0,91,0.07,,---,0.07,VWS V14.01,2013-05-21 22:42:00,
2013-05-21 18:43:00,59.6,57.0,29.96,East,91,0.0,5.0,91,0.07,,---,0.07,VWS V14.01,2013-05-21 22:43:00,
2013-05-21 18:44:00,59.5,57.2,29.96,East,91,2.0,5.0,92,0.08,,---,0.08,VWS V14.01,2013-05-21 22:44:00,
2013-05-21 18:45:00,59.5,57.2,29.96,East,91,0.0,5.0,92,0.08,,---,0.08,VWS V14.01,2013-05-21 22:45:00,
2013-05-21 18:46:00,59.5,57.5,29.96,East,91,0.0,5.0,93,0.08,,---,0.08,VWS V14.01,2013-05-21 22:46:00,
2013-05-21 18:47:00,59.5,57.5,29.96,East,91,2.0,5.0,93,0.08,,---,0.08,VWS V14.01,2013-05-21 22:47:00,
2013-05-21 18:48:00,59.3,57.3,29.96,East,94,2.0,5.0,93,0.08,,---,0.08,VWS V14.01,2013-05-21 22:48:00,
2013-05-21 18:49:00,59.3,57.3,29.96,East,96,4.0,5.0,93,0.09,,---,0.09,VWS V14.01,2013-05-21 22:49:00,
2013-05-21 18:50:00,59.2,57.2,29.96,ESE,104,7.0,7.0,93,0.10,,---,0.10,VWS V14.01,2013-05-21 22:50:00,
2013-05-21 18:51:00,59.0,57.0,29.96,ESE,113,6.0,8.0,93,0.11,,---,0.11,VWS V14.01,2013-05-21 22:51:00,
2013-05-21 18:52:00,58.9,57.2,29.96,ESE,106,6.0,9.0,94,0.12,,---,0.12,VWS V14.01,2013-05-21 22:52:00,
2013-05-21 18:53:00,58.7,57.0,29.96,ENE,71,3.0,9.0,94,0.12,,---,0.12,VWS V14.01,2013-05-21 22:53:00,
2013-05-21 18:54:00,58.6,56.9,29.96,East,90,2.0,9.0,94,0.12,,---,0.12,VWS V14.01,2013-05-21 22:54:00,
2013-05-21 18:55:00,58.4,56.7,29.96,East,94,1.0,9.0,94,0.12,,---,0.12,VWS V14.01,2013-05-21 22:55:00,
2013-05-21 18:56:00,58.4,56.7,29.96,East,94,0.0,9.0,94,0.12,,---,0.12,VWS V14.01,2013-05-21 22:56:00,
2013-05-21 18:57:00,58.3,56.9,29.96,East,94,2.0,9.0,95,0.13,,---,0.13,VWS V14.01,2013-05-21 22:57:00,
2013-05-21 18:58:00,58.3,56.9,29.96,SW,219,2.0,9.0,95,0.13,,---,0.13,VWS V14.01,2013-05-21 22:58:00,
2013-05-21 18:59:00,58.3,56.9,29.96,SW,219,2.0,9.0,95,0.13,,---,0.13,VWS V14.01,2013-05-21 22:59:00,
2013-05-21 19:00:00,58.3,56.9,29.93,WNW,291,4.0,9.0,95,0.13,,---,0.13,VWS V14.01,2013-05-21 23:00:00,
2013-05-21 19:01:00,58.3,56.9,29.93,WNW,291,2.0,4.0,95,0.13,,---,0.13,VWS V14.01,2013-05-21 23:01:00,
2013-05-21 19:02:00,58.3,56.9,29.93,North,351,3.0,4.0,95,0.13,,---,0.13,VWS V14.01,2013-05-21 23:02:00,
2013-05-21 19:03:00,58.3,57.2,29.93,North,351,4.0,5.0,96,0.13,,---,0.13,VWS V14.01,2013-05-21 23:03:00,
2013-05-21 19:04:00,58.3,57.2,29.93,NW,319,4.0,5.0,96,0.13,,---,0.13,VWS V14.01,2013-05-21 23:04:00,
2013-05-21 19:05:00,58.3,57.2,29.93,NW,319,0.0,5.0,96,0.13,,---,0.13,VWS V14.01,2013-05-21 23:05:00,
2013-05-21 19:06:00,58.3,57.2,29.93,West,275,3.0,5.0,96,0.13,,---,0.13,VWS V14.01,2013-05-21 23:06:00,
2013-05-21 19:07:00,58.3,57.2,29.93,West,275,0.0,5.0,96,0.14,,---,0.14,VWS V14.01,2013-05-21 23:07:00,
2013-05-21 19:08:00,58.3,57.2,29.93,NE,54,0.0,5.0,96,0.14,,---,0.14,VWS V14.01,2013-05-21 23:08:00,
2013-05-21 19:09:00,58.3,57.2,29.93,NE,34,0.0,5.0,96,0.14,,---,0.14,VWS V14.01,2013-05-21 23:09:00,
2013-05-21 19:10:00,58.3,57.2,29.93,NE,34,0.0,5.0,96,0.14,,---,0.14,VWS V14.01,2013-05-21 23:10:00,
2013-05-21 19:11:00,58.1,57.0,29.93,NE,34,0.0,0.0,96,0.15,,---,0.15,VWS V14.01,2013-05-21 23:11:00,
2013-05-21 19:12:00,58.1,57.0,29.93,East,82,0.0,0.0,96,0.15,,---,0.15,VWS V14.01,2013-05-21 23:12:00,
2013-05-21 19:13:00,58.1,57.0,29.93,ESE,119,0.0,2.0,96,0.15,,---,0.15,VWS V14.01,2013-05-21 23:13:00,
2013-05-21 19:14:00,58.0,56.9,29.93,ESE,105,2.0,7.0,96,0.15,,---,0.15,VWS V14.01,2013-05-21 23:14:00,
2013-05-21 19:15:00,58.0,56.9,29.96,NE,37,3.0,7.0,96,0.15,,---,0.15,VWS V14.01,2013-05-21 23:15:00,
2013-05-21 19:16:00,57.8,56.7,29.96,NE,37,0.0,7.0,96,0.15,,---,0.15,VWS V14.01,2013-05-21 23:16:00,
2013-05-21 19:17:00,57.8,56.7,29.96,NE,37,3.0,7.0,96,0.15,,---,0.15,VWS V14.01,2013-05-21 23:17:00,
2013-05-21 19:18:00,57.8,56.7,29.96,NNE,32,4.0,7.0,96,0.15,,---,0.15,VWS V14.01,2013-05-21 23:18:00,
2013-05-21 19:19:00,57.6,56.5,29.96,NNE,32,1.0,7.0,96,0.15,,---,0.15,VWS V14.01,2013-05-21 23:19:00,
2013-05-21 19:20:00,57.6,56.5,29.96,NNE,32,2.0,7.0,96,0.16,,---,0.16,VWS V14.01,2013-05-21 23:20:00,
2013-05-21 19:21:00,57.6,56.8,29.96,NNE,32,4.0,4.0,97,0.16,,---,0.16,VWS V14.01,2013-05-21 23:21:00,
2013-05-21 19:22:00,57.6,56.8,29.96,North,10,3.0,6.0,97,0.16,,---,0.16,VWS V14.01,2013-05-21 23:22:00,
2013-05-21 19:23:00,57.5,56.7,29.96,North,10,2.0,6.0,97,0.16,,---,0.16,VWS V14.01,2013-05-21 23:23:00,
2013-05-21 19:24:00,57.5,56.7,29.96,North,10,0.0,6.0,97,0.16,,---,0.16,VWS V14.01,2013-05-21 23:24:00,
2013-05-21 19:25:00,57.5,56.7,29.96,North,10,1.0,6.0,97,0.16,,---,0.16,VWS V14.01,2013-05-21 23:25:00,
2013-05-21 19:26:00,57.5,56.7,29.96,North,10,3.0,6.0,97,0.16,,---,0.16,VWS V14.01,2013-05-21 23:26:00,
2013-05-21 19:27:00,57.5,56.7,29.96,North,10,0.0,6.0,97,0.16,,---,0.16,VWS V14.01,2013-05-21 23:27:00,
2013-05-21 19:28:00,57.5,56.7,29.96,SE,128,0.0,6.0,97,0.16,,---,0.16,VWS V14.01,2013-05-21 23:28:00,
2013-05-21 19:29:00,57.5,56.7,29.96,ENE,61,2.0,6.0,97,0.16,,---,0.16,VWS V14.01,2013-05-21 23:29:00,
2013-05-21 19:30:00,57.3,56.5,29.96,NW,319,0.0,6.0,97,0.16,,---,0.16,VWS V14.01,2013-05-21 23:30:00,
2013-05-21 19:31:00,57.3,56.5,29.96,NNW,336,2.0,2.0,97,0.15,,---,0.16,VWS V14.01,2013-05-21 23:31:00,
2013-05-21 19:32:00,57.2,56.4,29.96,NE,46,2.0,5.0,97,0.15,,---,0.16,VWS V14.01,2013-05-21 23:32:00,
2013-05-21 19:33:00,57.2,56.4,29.96,NNE,24,1.0,5.0,97,0.15,,---,0.16,VWS V14.01,2013-05-21 23:33:00,
2013-05-21 19:34:00,57.2,56.4,29.96,NNE,24,0.0,5.0,97,0.15,,---,0.16,VWS V14.01,2013-05-21 23:34:00,
2013-05-21 19:35:00,57.0,56.2,29.96,NNE,24,1.0,5.0,97,0.15,,---,0.16,VWS V14.01,2013-05-21 23:35:00,
2013-05-21 19:36:00,57.0,56.2,29.96,NNE,24,2.0,5.0,97,0.15,,---,0.16,VWS V14.01,2013-05-21 23:36:00,
2013-05-21 19:37:00,57.0,56.2,29.96,NNE,24,0.0,5.0,97,0.15,,---,0.16,VWS V14.01,2013-05-21 23:37:00,
2013-05-21 19:38:00,57.0,56.2,29.96,NNE,24,2.0,5.0,97,0.15,,---,0.16,VWS V14.01,2013-05-21 23:38:00,
2013-05-21 19:39:00,56.9,56.1,29.96,NNE,24,0.0,5.0,97,0.15,,---,0.16,VWS V14.01,2013-05-21 23:39:00,
2013-05-21 19:40:00,56.9,56.1,29.96,North,360,2.0,5.0,97,0.15,,---,0.16,VWS V14.01,2013-05-21 23:40:00,
2013-05-21 19:41:00,56.9,56.1,29.96,North,360,2.0,4.0,97,0.10,,---,0.16,VWS V14.01,2013-05-21 23:41:00,
2013-05-21 19:42:00,56.7,55.9,29.96,NE,40,0.0,6.0,97,0.10,,---,0.16,VWS V14.01,2013-05-21 23:42:00,
2013-05-21 19:43:00,56.7,55.9,29.96,NE,40,2.0,6.0,97,0.10,,---,0.16,VWS V14.01,2013-05-21 23:43:00,
2013-05-21 19:44:00,56.6,55.8,29.96,NE,40,0.0,6.0,97,0.10,,---,0.16,VWS V14.01,2013-05-21 23:44:00,
2013-05-21 19:45:00,56.6,55.8,29.96,NE,40,2.0,6.0,97,0.10,,---,0.16,VWS V14.01,2013-05-21 23:45:00,
2013-05-21 19:46:00,56.5,55.7,29.96,NE,38,3.0,6.0,97,0.10,,---,0.16,VWS V14.01,2013-05-21 23:46:00,
2013-05-21 19:47:00,56.5,55.7,29.96,NE,38,0.0,6.0,97,0.10,,---,0.16,VWS V14.01,2013-05-21 23:47:00,
2013-05-21 19:48:00,56.5,55.9,29.96,NE,38,0.0,6.0,98,0.10,,---,0.16,VWS V14.01,2013-05-21 23:48:00,
2013-05-21 19:49:00,56.5,55.9,29.96,NE,38,3.0,6.0,98,0.10,,---,0.16,VWS V14.01,2013-05-21 23:49:00,
2013-05-21 19:50:00,56.5,55.9,29.96,NE,38,0.0,6.0,98,0.10,,---,0.16,VWS V14.01,2013-05-21 23:50:00,
2013-05-21 19:51:00,56.5,55.9,29.96,NE,41,2.0,4.0,98,0.06,,---,0.16,VWS V14.01,2013-05-21 23:51:00,
2013-05-21 19:52:00,56.3,55.8,29.96,NNE,28,4.0,5.0,98,0.07,,---,0.17,VWS V14.01,2013-05-21 23:52:00,
2013-05-21 19:53:00,56.3,55.8,29.96,NNE,28,0.0,5.0,98,0.07,,---,0.17,VWS V14.01,2013-05-21 23:53:00,
2013-05-21 19:54:00,56.3,55.8,29.96,NNE,28,0.0,5.0,98,0.07,,---,0.17,VWS V14.01,2013-05-21 23:54:00,
2013-05-21 19:55:00,56.3,55.8,29.96,ESE,108,5.0,5.0,98,0.07,,---,0.17,VWS V14.01,2013-05-21 23:55:00,
2013-05-21 19:56:00,56.2,55.7,29.96,NNE,30,3.0,5.0,98,0.07,,---,0.17,VWS V14.01,2013-05-21 23:56:00,
2013-05-21 19:57:00,56.2,55.7,29.96,East,81,0.0,5.0,98,0.07,,---,0.17,VWS V14.01,2013-05-21 23:57:00,
2013-05-21 19:58:00,56.0,55.2,29.96,East,92,0.0,5.0,97,0.07,,---,0.17,VWS V14.01,2013-05-21 23:58:00,
2013-05-21 19:59:00,56.0,55.5,29.96,East,92,0.0,5.0,98,0.07,,---,0.17,VWS V14.01,2013-05-21 23:59:00,
2013-05-21 20:00:00,56.0,55.5,29.94,East,92,0.0,5.0,98,0.07,,---,0.17,VWS V14.01,2013-05-22 00:00:00,
2013-05-21 20:01:00,56.0,55.5,29.94,East,92,0.0,0.0,98,0.04,,---,0.17,VWS V14.01,2013-05-22 00:01:00,
2013-05-21 20:02:00,56.0,55.5,29.94,NNE,26,4.0,6.0,98,0.04,,---,0.17,VWS V14.01,2013-05-22 00:02:00,
2013-05-21 20:03:00,56.0,55.5,29.94,SE,128,1.0,6.0,98,0.04,,---,0.17,VWS V14.01,2013-05-22 00:03:00,
2013-05-21 20:04:00,55.9,55.3,29.94,SE,128,0.0,6.0,98,0.04,,---,0.17,VWS V14.01,2013-05-22 00:04:00,
2013-05-21 20:05:00,55.9,55.3,29.94,ESE,103,0.0,6.0,98,0.04,,---,0.17,VWS V14.01,2013-05-22 00:05:00,
2013-05-21 20:06:00,55.9,55.3,29.94,ESE,103,1.0,6.0,98,0.04,,---,0.17,VWS V14.01,2013-05-22 00:06:00,
2013-05-21 20:07:00,55.9,55.3,29.94,NE,45,2.0,6.0,98,0.04,,---,0.17,VWS V14.01,2013-05-22 00:07:00,
2013-05-21 20:08:00,55.9,55.3,29.94,ESE,121,5.0,6.0,98,0.04,,---,0.17,VWS V14.01,2013-05-22 00:08:00,
2013-05-21 20:09:00,55.9,55.3,29.94,East,90,0.0,6.0,98,0.04,,---,0.17,VWS V14.01,2013-05-22 00:09:00,
2013-05-21 20:10:00,55.9,55.3,29.94,East,90,0.0,6.0,98,0.04,,---,0.17,VWS V14.01,2013-05-22 00:10:00,
2013-05-21 20:11:00,55.9,55.3,29.94,NE,38,1.0,4.0,98,0.03,,---,0.17,VWS V14.01,2013-05-22 00:11:00,
2013-05-21 20:12:00,55.7,55.2,29.94,NE,38,2.0,5.0,98,0.03,,---,0.17,VWS V14.01,2013-05-22 00:12:00,
2013-05-21 20:13:00,55.7,55.2,29.94,NE,38,0.0,5.0,98,0.03,,---,0.17,VWS V14.01,2013-05-22 00:13:00,
2013-05-21 20:14:00,55.7,55.2,29.94,NE,38,0.0,5.0,98,0.03,,---,0.17,VWS V14.01,2013-05-22 00:14:00,
2013-05-21 20:15:00,55.7,55.2,29.93,NE,38,0.0,5.0,98,0.03,,---,0.17,VWS V14.01,2013-05-22 00:15:00,
2013-05-21 20:16:00,55.7,55.2,29.93,NE,38,2.0,5.0,98,0.03,,---,0.17,VWS V14.01,2013-05-22 00:16:00,
2013-05-21 20:17:00,55.7,55.2,29.93,NE,38,0.0,5.0,98,0.03,,---,0.17,VWS V14.01,2013-05-22 00:17:00,
2013-05-21 20:18:00,55.7,55.2,29.93,NE,38,2.0,5.0,98,0.03,,---,0.17,VWS V14.01,2013-05-22 00:18:00,
2013-05-21 20:19:00,55.7,55.2,29.93,NE,39,0.0,5.0,98,0.03,,---,0.17,VWS V14.01,2013-05-22 00:19:00,
2013-05-21 20:20:00,55.6,55.0,29.93,NE,39,0.0,5.0,98,0.03,,---,0.17,VWS V14.01,2013-05-22 00:20:00,
2013-05-21 20:21:00,55.6,55.0,29.93,NE,39,0.0,1.0,98,0.01,,---,0.17,VWS V14.01,2013-05-22 00:21:00,
2013-05-21 20:22:00,55.6,55.0,29.93,NE,39,0.0,2.0,98,0.01,,---,0.17,VWS V14.01,2013-05-22 00:22:00,
2013-05-21 20:23:00,55.6,55.0,29.93,NE,39,0.0,2.0,98,0.01,,---,0.17,VWS V14.01,2013-05-22 00:23:00,
2013-05-21 20:24:00,55.6,55.0,29.93,NE,39,0.0,2.0,98,0.01,,---,0.17,VWS V14.01,2013-05-22 00:24:00,
2013-05-21 20:25:00,55.6,55.0,29.93,NE,39,0.0,2.0,98,0.01,,---,0.17,VWS V14.01,2013-05-22 00:25:00,
2013-05-21 20:26:00,55.6,55.0,29.93,East,99,5.0,6.0,98,0.01,,---,0.17,VWS V14.01,2013-05-22 00:26:00,
2013-05-21 20:27:00,55.6,55.0,29.93,East,101,0.0,6.0,98,0.01,,---,0.17,VWS V14.01,2013-05-22 00:27:00,
2013-05-21 20:28:00,55.4,54.8,29.93,East,101,0.0,6.0,98,0.01,,---,0.17,VWS V14.01,2013-05-22 00:28:00,
2013-05-21 20:29:00,55.4,54.8,29.93,ENE,67,1.0,6.0,98,0.01,,---,0.17,VWS V14.01,2013-05-22 00:29:00,
2013-05-21 20:30:00,55.4,55.1,29.91,ENE,67,0.0,6.0,99,0.01,,---,0.17,VWS V14.01,2013-05-22 00:30:00,
2013-05-21 20:31:00,55.4,55.1,29.91,ENE,67,0.0,1.0,99,0.01,,---,0.17,VWS V14.01,2013-05-22 00:31:00,
2013-05-21 20:32:00,55.4,55.1,29.91,SSW,199,2.0,3.0,99,0.01,,---,0.17,VWS V14.01,2013-05-22 00:32:00,
2013-05-21 20:33:00,55.4,55.1,29.91,SSW,199,0.0,3.0,99,0.01,,---,0.17,VWS V14.01,2013-05-22 00:33:00,
2013-05-21 20:34:00,55.6,55.3,29.91,ENE,71,0.0,3.0,99,0.01,,---,0.17,VWS V14.01,2013-05-22 00:34:00,
2013-05-21 20:35:00,55.6,55.3,29.91,ESE,107,5.0,5.0,99,0.01,,---,0.17,VWS V14.01,2013-05-22 00:35:00,
2013-05-21 20:36:00,55.6,55.3,29.91,East,84,0.0,5.0,99,0.01,,---,0.17,VWS V14.01,2013-05-22 00:36:00,
2013-05-21 20:37:00,55.6,55.3,29.91,East,85,0.0,5.0,99,0.01,,---,0.17,VWS V14.01,2013-05-22 00:37:00,
2013-05-21 20:38:00,55.6,55.3,29.91,East,84,0.0,5.0,99,0.01,,---,0.17,VWS V14.01,2013-05-22 00:38:00,
2013-05-21 20:39:00,55.4,55.1,29.91,East,85,0.0,5.0,99,0.01,,---,0.17,VWS V14.01,2013-05-22 00:39:00,
2013-05-21 20:40:00,55.6,55.3,29.91,East,85,0.0,5.0,99,0.01,,---,0.17,VWS V14.01,2013-05-22 00:40:00,
2013-05-21 20:41:00,55.4,55.1,29.91,East,84,0.0,1.0,99,0.01,,---,0.17,VWS V14.01,2013-05-22 00:41:00,
2013-05-21 20:42:00,55.4,55.1,29.91,East,84,0.0,1.0,99,0.01,,---,0.17,VWS V14.01,2013-05-22 00:42:00,
2013-05-21 20:43:00,55.4,55.1,29.91,East,84,0.0,3.0,99,0.01,,---,0.17,VWS V14.01,2013-05-22 00:43:00,
2013-05-21 20:44:00,55.4,55.1,29.91,East,84,0.0,3.0,99,0.01,,---,0.17,VWS V14.01,2013-05-22 00:44:00,
2013-05-21 20:45:00,55.4,55.1,29.93,East,85,0.0,3.0,99,0.01,,---,0.17,VWS V14.01,2013-05-22 00:45:00,
2013-05-21 20:46:00,55.4,55.1,29.93,East,85,3.0,3.0,99,0.01,,---,0.17,VWS V14.01,2013-05-22 00:46:00,
2013-05-21 20:47:00,55.4,55.1,29.93,East,84,2.0,3.0,99,0.01,,---,0.17,VWS V14.01,2013-05-22 00:47:00,
2013-05-21 20:48:00,55.4,55.1,29.93,East,84,0.0,3.0,99,0.01,,---,0.17,VWS V14.01,2013-05-22 00:48:00,
2013-05-21 20:49:00,55.4,55.1,29.93,East,85,0.0,3.0,99,0.01,,---,0.17,VWS V14.01,2013-05-22 00:49:00,
2013-05-21 20:50:00,55.3,55.0,29.93,East,85,0.0,3.0,99,0.01,,---,0.17,VWS V14.01,2013-05-22 00:50:00,
2013-05-21 20:51:00,55.3,55.0,29.93,East,84,0.0,0.0,99,0.01,,---,0.17,VWS V14.01,2013-05-22 00:51:00,
2013-05-21 20:52:00,55.3,55.0,29.93,ESE,120,2.0,7.0,99,0.01,,---,0.17,VWS V14.01,2013-05-22 00:52:00,
2013-05-21 20:53:00,55.3,55.0,29.93,East,90,0.0,7.0,99,0.01,,---,0.17,VWS V14.01,2013-05-22 00:53:00,
2013-05-21 20:54:00,55.3,55.0,29.93,East,90,1.0,7.0,99,0.01,,---,0.17,VWS V14.01,2013-05-22 00:54:00,
2013-05-21 20:55:00,55.3,55.0,29.93,East,90,0.0,7.0,99,0.01,,---,0.17,VWS V14.01,2013-05-22 00:55:00,
2013-05-21 20:56:00,55.3,55.0,29.93,East,90,0.0,7.0,99,0.01,,---,0.17,VWS V14.01,2013-05-22 00:56:00,
2013-05-21 20:57:00,55.3,55.0,29.93,East,90,1.0,7.0,99,0.01,,---,0.17,VWS V14.01,2013-05-22 00:57:00,
2013-05-21 20:58:00,55.3,55.0,29.93,East,90,2.0,7.0,99,0.01,,---,0.17,VWS V14.01,2013-05-22 00:58:00,
2013-05-21 20:59:00,55.3,55.0,29.93,North,360,2.0,7.0,99,0.01,,---,0.17,VWS V14.01,2013-05-22 00:59:00,
2013-05-21 21:00:00,55.3,55.0,29.92,ENE,63,2.0,7.0,99,0.01,,---,0.17,VWS V14.01,2013-05-22 01:00:00,
2013-05-21 21:01:00,55.3,55.0,29.92,ENE,57,3.0,3.0,99,0.00,,---,0.17,VWS V14.01,2013-05-22 01:01:00,
2013-05-21 21:02:00,55.3,55.0,29.92,ENE,57,0.0,3.0,99,0.00,,---,0.17,VWS V14.01,2013-05-22 01:02:00,
2013-05-21 21:03:00,55.3,55.0,29.92,ENE,57,0.0,3.0,99,0.00,,---,0.17,VWS V14.01,2013-05-22 01:03:00,
2013-05-21 21:04:00,55.3,55.0,29.92,East,97,2.0,4.0,99,0.00,,---,0.17,VWS V14.01,2013-05-22 01:04:00,
2013-05-21 21:05:00,55.3,55.0,29.92,ENE,57,1.0,4.0,99,0.00,,---,0.17,VWS V14.01,2013-05-22 01:05:00,
2013-05-21 21:06:00,55.3,55.0,29.92,ENE,57,2.0,4.0,99,0.00,,---,0.17,VWS V14.01,2013-05-22 01:06:00,
2013-05-21 21:07:00,55.1,54.8,29.92,ENE,57,3.0,4.0,99,0.00,,---,0.17,VWS V14.01,2013-05-22 01:07:00,
2013-05-21 21:08:00,55.1,54.8,29.92,NE,55,2.0,4.0,99,0.00,,---,0.17,VWS V14.01,2013-05-22 01:08:00,
2013-05-21 21:09:00,55.1,54.8,29.92,NE,55,1.0,4.0,99,0.00,,---,0.17,VWS V14.01,2013-05-22 01:09:00,
2013-05-21 21:10:00,55.1,54.8,29.92,NE,55,0.0,4.0,99,0.00,,---,0.17,VWS V14.01,2013-05-22 01:10:00,
2013-05-21 21:11:00,55.1,54.8,29.92,NE,55,1.0,1.0,99,0.00,,---,0.17,VWS V14.01,2013-05-22 01:11:00,
2013-05-21 21:12:00,55.1,54.8,29.92,NE,55,1.0,1.0,99,0.00,,---,0.17,VWS V14.01,2013-05-22 01:12:00,
2013-05-21 21:13:00,55.1,54.8,29.92,NE,55,0.0,1.0,99,0.00,,---,0.17,VWS V14.01,2013-05-22 01:13:00,
2013-05-21 21:14:00,55.1,54.8,29.92,NE,54,3.0,3.0,99,0.00,,---,0.17,VWS V14.01,2013-05-22 01:14:00,
2013-05-21 21:15:00,55.1,54.8,29.96,NE,42,2.0,6.0,99,0.00,,---,0.17,VWS V14.01,2013-05-22 01:15:00,
2013-05-21 21:16:00,55.1,54.8,29.96,NE,42,0.0,6.0,99,0.00,,---,0.17,VWS V14.01,2013-05-22 01:16:00,
2013-05-21 21:17:00,55.1,54.8,29.96,NE,42,4.0,6.0,99,0.00,,---,0.17,VWS V14.01,2013-05-22 01:17:00,
2013-05-21 21:18:00,55.1,54.8,29.96,NE,42,0.0,6.0,99,0.00,,---,0.17,VWS V14.01,2013-05-22 01:18:00,
2013-05-21 21:19:00,55.1,54.8,29.96,NNW,344,3.0,6.0,99,0.00,,---,0.17,VWS V14.01,2013-05-22 01:19:00,
2013-05-21 21:20:00,55.1,54.8,29.96,NNW,344,0.0,6.0,99,0.00,,---,0.17,VWS V14.01,2013-05-22 01:20:00,
2013-05-21 21:21:00,55.0,54.7,29.96,NNW,344,1.0,2.0,99,0.00,,---,0.17,VWS V14.01,2013-05-22 01:21:00,
2013-05-21 21:22:00,55.0,54.7,29.96,NNE,17,1.0,3.0,99,0.00,,---,0.17,VWS V14.01,2013-05-22 01:22:00,
2013-05-21 21:23:00,55.0,54.7,29.96,NNE,17,2.0,3.0,99,0.00,,---,0.17,VWS V14.01,2013-05-22 01:23:00,
2013-05-21 21:24:00,55.0,54.7,29.96,NNE,17,0.0,3.0,99,0.00,,---,0.17,VWS V14.01,2013-05-22 01:24:00,
2013-05-21 21:25:00,55.0,54.7,29.96,NNE,23,0.0,3.0,99,0.00,,---,0.17,VWS V14.01,2013-05-22 01:25:00,
2013-05-21 21:26:00,55.0,54.7,29.96,NNE,22,0.0,3.0,99,0.00,,---,0.17,VWS V14.01,2013-05-22 01:26:00,
2013-05-21 21:27:00,55.0,54.7,29.96,NNE,23,0.0,4.0,99,0.00,,---,0.17,VWS V14.01,2013-05-22 01:27:00,
2013-05-21 21:28:00,55.0,54.7,29.96,NNE,23,1.0,4.0,99,0.00,,---,0.17,VWS V14.01,2013-05-22 01:28:00,
2013-05-21 21:29:00,55.0,54.7,29.96,NNE,23,0.0,4.0,99,0.00,,---,0.17,VWS V14.01,2013-05-22 01:29:00,
2013-05-21 21:30:00,55.0,54.7,29.98,NNE,23,3.0,4.0,99,0.00,,---,0.17,VWS V14.01,2013-05-22 01:30:00,
2013-05-21 21:31:00,55.0,54.7,29.98,NNE,23,0.0,3.0,99,0.00,,---,0.17,VWS V14.01,2013-05-22 01:31:00,
2013-05-21 21:32:00,55.0,54.7,29.98,NNE,22,2.0,3.0,99,0.00,,---,0.17,VWS V14.01,2013-05-22 01:32:00,
2013-05-21 21:33:00,55.0,54.7,29.98,NNE,20,3.0,3.0,99,0.00,,---,0.17,VWS V14.01,2013-05-22 01:33:00,
2013-05-21 21:34:00,55.0,54.7,29.98,NNE,19,0.0,4.0,99,0.00,,---,0.17,VWS V14.01,2013-05-22 01:34:00,
2013-05-21 21:35:00,54.8,54.5,29.98,NNE,19,0.0,4.0,99,0.00,,---,0.17,VWS V14.01,2013-05-22 01:35:00,
2013-05-21 21:36:00,54.8,54.5,29.98,NNE,19,0.0,4.0,99,0.00,,---,0.17,VWS V14.01,2013-05-22 01:36:00,
2013-05-21 21:37:00,54.8,54.5,29.98,NNE,19,0.0,4.0,99,0.00,,---,0.17,VWS V14.01,2013-05-22 01:37:00,
2013-05-21 21:38:00,54.8,54.5,29.98,NNE,19,0.0,4.0,99,0.00,,---,0.17,VWS V14.01,2013-05-22 01:38:00,
2013-05-21 21:39:00,54.8,54.5,29.98,NNE,19,0.0,4.0,99,0.00,,---,0.17,VWS V14.01,2013-05-22 01:39:00,
2013-05-21 21:40:00,54.8,54.5,29.98,ESE,110,5.0,7.0,99,0.00,,---,0.17,VWS V14.01,2013-05-22 01:40:00,
2013-05-21 21:41:00,54.8,54.5,29.98,ESE,109,0.0,4.0,99,0.00,,---,0.17,VWS V14.01,2013-05-22 01:41:00,
2013-05-21 21:42:00,54.8,54.5,29.98,NNE,24,4.0,4.0,99,0.00,,---,0.17,VWS V14.01,2013-05-22 01:42:00,
2013-05-21 21:43:00,54.7,54.4,29.98,NNE,24,2.0,4.0,99,0.00,,---,0.17,VWS V14.01,2013-05-22 01:43:00,
2013-05-21 21:44:00,54.7,54.4,29.98,NNE,24,2.0,4.0,99,0.00,,---,0.17,VWS V14.01,2013-05-22 01:44:00,
2013-05-21 21:45:00,54.7,54.4,29.95,NNE,24,2.0,4.0,99,0.00,,---,0.17,VWS V14.01,2013-05-22 01:45:00,
2013-05-21 21:46:00,54.7,54.4,29.95,NNE,25,2.0,4.0,99,0.00,,---,0.17,VWS V14.01,2013-05-22 01:46:00,
2013-05-21 21:47:00,54.5,54.2,29.95,SE,135,0.0,5.0,99,0.00,,---,0.17,VWS V14.01,2013-05-22 01:47:00,
2013-05-21 21:48:00,54.5,54.2,29.95,SE,135,0.0,5.0,99,0.00,,---,0.17,VWS V14.01,2013-05-22 01:48:00,
2013-05-21 21:49:00,54.5,54.2,29.95,SE,135,0.0,5.0,99,0.00,,---,0.17,VWS V14.01,2013-05-22 01:49:00,
2013-05-21 21:50:00,54.5,54.2,29.95,ESE,121,0.0,5.0,99,0.00,,---,0.17,VWS V14.01,2013-05-22 01:50:00,
2013-05-21 21:51:00,54.5,54.2,29.95,ESE,121,0.0,1.0,99,0.00,,---,0.17,VWS V14.01,2013-05-22 01:51:00,
2013-05-21 21:52:00,54.5,54.2,29.95,NNE,26,3.0,4.0,99,0.00,,---,0.17,VWS V14.01,2013-05-22 01:52:00,
2013-05-21 21:53:00,54.4,54.1,29.95,NNE,26,2.0,4.0,99,0.00,,---,0.17,VWS V14.01,2013-05-22 01:53:00,
2013-05-21 21:54:00,54.4,54.1,29.95,SE,141,2.0,7.0,99,0.00,,---,0.17,VWS V14.01,2013-05-22 01:54:00,
2013-05-21 21:55:00,54.4,54.1,29.95,ENE,65,2.0,7.0,99,0.00,,---,0.17,VWS V14.01,2013-05-22 01:55:00,
2013-05-21 21:56:00,54.2,53.9,29.95,ESE,119,1.0,7.0,99,0.00,,---,0.17,VWS V14.01,2013-05-22 01:56:00,
2013-05-21 21:57:00,54.2,53.9,29.95,ESE,119,0.0,7.0,99,0.00,,---,0.17,VWS V14.01,2013-05-22 01:57:00,
2013-05-21 21:58:00,54.2,53.9,29.95,ENE,67,3.0,7.0,99,0.00,,---,0.17,VWS V14.01,2013-05-22 01:58:00,
2013-05-21 21:59:00,54.2,53.9,29.95,SE,132,2.0,7.0,99,0.00,,---,0.17,VWS V14.01,2013-05-22 01:59:00,
2013-05-21 22:00:00,54.2,53.9,29.95,SE,132,0.0,7.0,99,0.00,,---,0.17,VWS V14.01,2013-05-22 02:00:00,
2013-05-21 22:01:00,54.2,53.9,29.95,SE,132,0.0,1.0,99,0.00,,---,0.17,VWS V14.01,2013-05-22 02:01:00,
2013-05-21 22:02:00,54.2,53.9,29.95,SE,132,0.0,1.0,99,0.00,,---,0.17,VWS V14.01,2013-05-22 02:02:00,
2013-05-21 22:03:00,54.2,53.9,29.95,SE,132,0.0,1.0,99,0.00,,---,0.17,VWS V14.01,2013-05-22 02:03:00,
2013-05-21 22:04:00,54.2,53.9,29.95,SE,132,0.0,1.0,99,0.00,,---,0.17,VWS V14.01,2013-05-22 02:04:00,
2013-05-21 22:05:00,54.2,53.9,29.95,SE,132,1.0,2.0,99,0.00,,---,0.17,VWS V14.01,2013-05-22 02:05:00,
2013-05-21 22:06:00,54.2,53.9,29.95,SE,132,0.0,2.0,99,0.00,,---,0.17,VWS V14.01,2013-05-22 02:06:00,
2013-05-21 22:07:00,54.4,54.1,29.95,SE,132,0.0,2.0,99,0.00,,---,0.17,VWS V14.01,2013-05-22 02:07:00,
2013-05-21 22:08:00,54.4,54.1,29.95,SE,132,0.0,2.0,99,0.00,,---,0.17,VWS V14.01,2013-05-22 02:08:00,
2013-05-21 22:09:00,54.4,54.1,29.95,SE,132,1.0,2.0,99,0.00,,---,0.17,VWS V14.01,2013-05-22 02:09:00,
2013-05-21 22:10:00,54.4,54.1,29.95,SE,132,0.0,2.0,99,0.00,,---,0.17,VWS V14.01,2013-05-22 02:10:00,
2013-05-21 22:11:00,54.4,54.1,29.95,SE,132,0.0,1.0,99,0.00,,---,0.17,VWS V14.01,2013-05-22 02:11:00,
2013-05-21 22:12:00,54.4,54.1,29.95,SE,132,0.0,1.0,99,0.00,,---,0.17,VWS V14.01,2013-05-22 02:12:00,
2013-05-21 22:13:00,54.4,54.1,29.95,SE,132,0.0,1.0,99,0.00,,---,0.17,VWS V14.01,2013-05-22 02:13:00,
2013-05-21 22:14:00,54.4,54.1,29.95,SE,132,4.0,5.0,99,0.00,,---,0.17,VWS V14.01,2013-05-22 02:14:00,
2013-05-21 22:15:00,54.4,54.1,29.95,SE,132,0.0,5.0,99,0.00,,---,0.17,VWS V14.01,2013-05-22 02:15:00,
2013-05-21 22:16:00,54.4,54.1,29.95,ESE,105,2.0,6.0,99,0.00,,---,0.17,VWS V14.01,2013-05-22 02:16:00,
2013-05-21 22:17:00,54.4,54.1,29.95,ESE,113,4.0,6.0,99,0.00,,---,0.17,VWS V14.01,2013-05-22 02:17:00,
2013-05-21 22:18:00,54.2,53.9,29.95,ESE,122,4.0,6.0,99,0.00,,---,0.17,VWS V14.01,2013-05-22 02:18:00,
2013-05-21 22:19:00,54.2,53.9,29.95,ESE,123,1.0,6.0,99,0.00,,---,0.17,VWS V14.01,2013-05-22 02:19:00,
2013-05-21 22:20:00,54.2,53.9,29.95,ESE,123,1.0,6.0,99,0.00,,---,0.17,VWS V14.01,2013-05-22 02:20:00,
2013-05-21 22:21:00,54.1,53.8,29.95,ESE,123,0.0,2.0,99,0.00,,---,0.17,VWS V14.01,2013-05-22 02:21:00,
2013-05-21 22:22:00,54.1,53.8,29.95,ESE,123,0.0,2.0,99,0.00,,---,0.17,VWS V14.01,2013-05-22 02:22:00,
2013-05-21 22:23:00,54.1,53.8,29.95,ESE,123,1.0,4.0,99,0.00,,---,0.17,VWS V14.01,2013-05-22 02:23:00,
2013-05-21 22:24:00,54.1,53.8,29.95,ESE,123,0.0,4.0,99,0.00,,---,0.17,VWS V14.01,2013-05-22 02:24:00,
2013-05-21 22:25:00,54.1,53.8,29.95,ESE,123,0.0,4.0,99,0.00,,---,0.17,VWS V14.01,2013-05-22 02:25:00,
2013-05-21 22:26:00,54.1,53.8,29.95,ESE,123,6.0,6.0,99,0.00,,---,0.17,VWS V14.01,2013-05-22 02:26:00,
2013-05-21 22:27:00,54.1,53.8,29.95,East,81,0.0,6.0,99,0.00,,---,0.17,VWS V14.01,2013-05-22 02:27:00,
2013-05-21 22:28:00,54.1,53.8,29.95,East,81,0.0,6.0,99,0.00,,---,0.17,VWS V14.01,2013-05-22 02:28:00,
2013-05-21 22:29:00,54.1,53.8,29.95,East,81,3.0,6.0,99,0.00,,---,0.17,VWS V14.01,2013-05-22 02:29:00,
2013-05-21 22:30:00,54.1,53.8,29.93,East,81,2.0,6.0,99,0.00,,---,0.17,VWS V14.01,2013-05-22 02:30:00,
2013-05-21 22:31:00,54.1,53.8,29.93,East,86,0.0,3.0,99,0.00,,---,0.17,VWS V14.01,2013-05-22 02:31:00,
2013-05-21 22:32:00,54.1,53.8,29.93,East,86,1.0,4.0,99,0.00,,---,0.17,VWS V14.01,2013-05-22 02:32:00,
2013-05-21 22:33:00,53.9,53.6,29.93,ESE,103,5.0,5.0,99,0.00,,---,0.17,VWS V14.01,2013-05-22 02:33:00,
2013-05-21 22:34:00,53.9,53.6,29.93,ESE,117,1.0,5.0,99,0.00,,---,0.17,VWS V14.01,2013-05-22 02:34:00,
2013-05-21 22:35:00,53.9,53.6,29.93,ESE,117,0.0,5.0,99,0.00,,---,0.17,VWS V14.01,2013-05-22 02:35:00,
2013-05-21 22:36:00,53.9,53.6,29.93,ESE,117,1.0,5.0,99,0.00,,---,0.17,VWS V14.01,2013-05-22 02:36:00,
2013-05-21 22:37:00,53.9,53.6,29.93,ESE,117,1.0,5.0,99,0.00,,---,0.17,VWS V14.01,2013-05-22 02:37:00,
2013-05-21 22:38:00,53.9,53.6,29.93,ESE,117,0.0,5.0,99,0.00,,---,0.17,VWS V14.01,2013-05-22 02:38:00,
2013-05-21 22:39:00,53.9,53.6,29.93,ESE,103,5.0,5.0,99,0.00,,---,0.17,VWS V14.01,2013-05-22 02:39:00,
2013-05-21 22:40:00,53.9,53.6,29.93,ESE,103,1.0,5.0,99,0.00,,---,0.17,VWS V14.01,2013-05-22 02:40:00,
2013-05-21 22:41:00,53.9,53.6,29.93,ESE,103,0.0,2.0,99,0.00,,---,0.17,VWS V14.01,2013-05-22 02:41:00,
2013-05-21 22:42:00,53.9,53.6,29.93,ESE,103,0.0,2.0,99,0.00,,---,0.17,VWS V14.01,2013-05-22 02:42:00,
2013-05-21 22:43:00,53.9,53.6,29.93,ESE,103,2.0,2.0,99,0.00,,---,0.17,VWS V14.01,2013-05-22 02:43:00,
2013-05-21 22:44:00,53.9,53.6,29.93,ESE,103,0.0,5.0,99,0.00,,---,0.17,VWS V14.01,2013-05-22 02:44:00,
2013-05-21 22:45:00,53.9,53.6,29.95,ESE,103,0.0,5.0,99,0.00,,---,0.17,VWS V14.01,2013-05-22 02:45:00,
2013-05-21 22:46:00,53.9,53.6,29.95,ESE,103,0.0,5.0,99,0.00,,---,0.17,VWS V14.01,2013-05-22 02:46:00,
2013-05-21 22:47:00,53.9,53.6,29.95,ESE,103,0.0,5.0,99,0.00,,---,0.17,VWS V14.01,2013-05-22 02:47:00,
2013-05-21 22:48:00,53.9,53.6,29.95,ESE,103,0.0,5.0,99,0.00,,---,0.17,VWS V14.01,2013-05-22 02:48:00,
2013-05-21 22:49:00,53.9,53.6,29.95,ESE,103,0.0,5.0,99,0.00,,---,0.17,VWS V14.01,2013-05-22 02:49:00,
2013-05-21 22:50:00,53.9,53.6,29.95,ESE,103,0.0,5.0,99,0.00,,---,0.17,VWS V14.01,2013-05-22 02:50:00,
2013-05-21 22:51:00,53.9,53.6,29.95,ESE,103,0.0,2.0,99,0.00,,---,0.17,VWS V14.01,2013-05-22 02:51:00,
2013-05-21 22:52:00,53.9,53.6,29.95,ESE,103,0.0,2.0,99,0.00,,---,0.17,VWS V14.01,2013-05-22 02:52:00,
2013-05-21 22:53:00,53.9,53.6,29.95,ESE,103,0.0,2.0,99,0.00,,---,0.17,VWS V14.01,2013-05-22 02:53:00,
2013-05-21 22:54:00,53.9,53.6,29.95,ESE,103,0.0,2.0,99,0.00,,---,0.17,VWS V14.01,2013-05-22 02:54:00,
2013-05-21 22:55:00,53.9,53.6,29.95,NE,56,3.0,4.0,99,0.00,,---,0.17,VWS V14.01,2013-05-22 02:55:00,
2013-05-21 22:56:00,53.9,53.6,29.95,NE,56,2.0,4.0,99,0.00,,---,0.17,VWS V14.01,2013-05-22 02:56:00,
2013-05-21 22:57:00,53.9,53.6,29.95,NE,56,0.0,4.0,99,0.00,,---,0.17,VWS V14.01,2013-05-22 02:57:00,
2013-05-21 22:58:00,53.9,53.6,29.95,NE,56,2.0,4.0,99,0.00,,---,0.17,VWS V14.01,2013-05-22 02:58:00,
2013-05-21 22:59:00,53.9,53.6,29.95,ENE,57,0.0,4.0,99,0.00,,---,0.17,VWS V14.01,2013-05-22 02:59:00,
2013-05-21 23:00:00,53.9,53.6,29.95,ESE,119,1.0,6.0,99,0.00,,---,0.17,VWS V14.01,2013-05-22 03:00:00,
2013-05-21 23:01:00,53.9,53.6,29.95,ESE,119,1.0,1.0,99,0.00,,---,0.17,VWS V14.01,2013-05-22 03:01:00,
2013-05-21 23:02:00,53.9,53.6,29.95,ENE,63,1.0,2.0,99,0.00,,---,0.17,VWS V14.01,2013-05-22 03:02:00,
2013-05-21 23:03:00,53.9,53.6,29.95,ENE,63,0.0,2.0,99,0.00,,---,0.17,VWS V14.01,2013-05-22 03:03:00,
2013-05-21 23:04:00,53.8,53.5,29.95,ENE,63,0.0,2.0,99,0.00,,---,0.17,VWS V14.01,2013-05-22 03:04:00,
2013-05-21 23:05:00,53.8,53.5,29.95,ENE,63,1.0,2.0,99,0.00,,---,0.17,VWS V14.01,2013-05-22 03:05:00,
2013-05-21 23:06:00,53.8,53.5,29.95,ENE,63,0.0,2.0,99,0.00,,---,0.17,VWS V14.01,2013-05-22 03:06:00,
2013-05-21 23:07:00,53.8,53.5,29.95,ENE,63,1.0,2.0,99,0.00,,---,0.17,VWS V14.01,2013-05-22 03:07:00,
2013-05-21 23:08:00,53.8,53.5,29.95,ENE,63,0.0,2.0,99,0.00,,---,0.17,VWS V14.01,2013-05-22 03:08:00,
2013-05-21 23:09:00,53.8,53.5,29.95,ENE,63,2.0,2.0,99,0.00,,---,0.17,VWS V14.01,2013-05-22 03:09:00,
2013-05-21 23:10:00,53.8,53.5,29.95,ENE,64,0.0,2.0,99,0.00,,---,0.17,VWS V14.01,2013-05-22 03:10:00,
2013-05-21 23:11:00,53.8,53.5,29.95,ENE,64,0.0,0.0,99,0.00,,---,0.17,VWS V14.01,2013-05-22 03:11:00,
2013-05-21 23:12:00,53.8,53.5,29.95,ENE,64,0.0,2.0,99,0.00,,---,0.17,VWS V14.01,2013-05-22 03:12:00,
2013-05-21 23:13:00,53.8,53.5,29.95,ENE,64,2.0,3.0,99,0.00,,---,0.17,VWS V14.01,2013-05-22 03:13:00,
2013-05-21 23:14:00,53.6,53.3,29.95,ENE,64,1.0,3.0,99,0.00,,---,0.17,VWS V14.01,2013-05-22 03:14:00,
2013-05-21 23:15:00,53.6,53.3,29.94,ENE,63,0.0,3.0,99,0.00,,---,0.17,VWS V14.01,2013-05-22 03:15:00,
2013-05-21 23:16:00,53.6,53.3,29.94,ENE,78,0.0,3.0,99,0.00,,---,0.17,VWS V14.01,2013-05-22 03:16:00,
2013-05-21 23:17:00,53.6,53.3,29.94,ENE,78,0.0,3.0,99,0.00,,---,0.17,VWS V14.01,2013-05-22 03:17:00,
2013-05-21 23:18:00,53.6,53.3,29.94,ENE,78,2.0,3.0,99,0.00,,---,0.17,VWS V14.01,2013-05-22 03:18:00,
2013-05-21 23:19:00,53.6,53.3,29.94,ENE,78,2.0,3.0,99,0.00,,---,0.17,VWS V14.01,2013-05-22 03:19:00,
2013-05-21 23:20:00,53.6,53.3,29.94,ENE,78,0.0,3.0,99,0.00,,---,0.17,VWS V14.01,2013-05-22 03:20:00,
2013-05-21 23:21:00,53.6,53.3,29.94,ENE,78,1.0,1.0,99,0.00,,---,0.17,VWS V14.01,2013-05-22 03:21:00,
2013-05-21 23:22:00,53.6,53.3,29.94,East,79,3.0,4.0,99,0.00,,---,0.17,VWS V14.01,2013-05-22 03:22:00,
2013-05-21 23:23:00,53.5,53.2,29.94,East,79,0.0,4.0,99,0.00,,---,0.17,VWS V14.01,2013-05-22 03:23:00,
2013-05-21 23:24:00,53.5,53.2,29.94,ENE,78,0.0,4.0,99,0.00,,---,0.17,VWS V14.01,2013-05-22 03:24:00,
2013-05-21 23:25:00,53.5,53.2,29.94,ENE,78,0.0,4.0,99,0.00,,---,0.17,VWS V14.01,2013-05-22 03:25:00,
2013-05-21 23:26:00,53.5,53.2,29.94,ENE,78,0.0,4.0,99,0.00,,---,0.17,VWS V14.01,2013-05-22 03:26:00,
2013-05-21 23:27:00,53.5,53.2,29.94,NE,48,2.0,4.0,99,0.00,,---,0.17,VWS V14.01,2013-05-22 03:27:00,
2013-05-21 23:28:00,53.5,53.2,29.94,NE,48,0.0,4.0,99,0.00,,---,0.17,VWS V14.01,2013-05-22 03:28:00,
2013-05-21 23:29:00,53.5,53.2,29.94,NE,48,0.0,4.0,99,0.00,,---,0.17,VWS V14.01,2013-05-22 03:29:00,
2013-05-21 23:30:00,53.5,53.2,29.95,NE,48,3.0,4.0,99,0.00,,---,0.17,VWS V14.01,2013-05-22 03:30:00,
2013-05-21 23:31:00,53.5,53.2,29.95,NE,48,0.0,2.0,99,0.00,,---,0.17,VWS V14.01,2013-05-22 03:31:00,
2013-05-21 23:32:00,53.5,53.2,29.95,NE,48,0.0,2.0,99,0.00,,---,0.17,VWS V14.01,2013-05-22 03:32:00,
2013-05-21 23:33:00,53.5,53.2,29.95,NE,50,3.0,4.0,99,0.00,,---,0.17,VWS V14.01,2013-05-22 03:33:00,
2013-05-21 23:34:00,53.5,53.2,29.95,NE,42,1.0,5.0,99,0.00,,---,0.17,VWS V14.01,2013-05-22 03:34:00,
2013-05-21 23:35:00,53.5,53.2,29.95,NE,41,0.0,5.0,99,0.00,,---,0.17,VWS V14.01,2013-05-22 03:35:00,
2013-05-21 23:36:00,53.5,53.2,29.95,NE,42,0.0,5.0,99,0.00,,---,0.17,VWS V14.01,2013-05-22 03:36:00,
2013-05-21 23:37:00,53.5,53.2,29.95,NE,41,4.0,5.0,99,0.00,,---,0.17,VWS V14.01,2013-05-22 03:37:00,
2013-05-21 23:38:00,53.5,53.2,29.95,NE,41,2.0,5.0,99,0.00,,---,0.17,VWS V14.01,2013-05-22 03:38:00,
2013-05-21 23:39:00,53.5,53.2,29.95,NE,42,0.0,5.0,99,0.00,,---,0.17,VWS V14.01,2013-05-22 03:39:00,
2013-05-21 23:40:00,53.5,53.2,29.95,NE,41,2.0,5.0,99,0.00,,---,0.17,VWS V14.01,2013-05-22 03:40:00,
2013-05-21 23:41:00,53.5,53.2,29.95,NE,41,0.0,3.0,99,0.00,,---,0.17,VWS V14.01,2013-05-22 03:41:00,
2013-05-21 23:42:00,53.5,53.2,29.95,NE,41,1.0,3.0,99,0.00,,---,0.17,VWS V14.01,2013-05-22 03:42:00,
2013-05-21 23:43:00,53.5,53.2,29.95,North,360,0.0,3.0,99,0.00,,---,0.17,VWS V14.01,2013-05-22 03:43:00,
2013-05-21 23:44:00,53.5,53.2,29.95,NNW,339,4.0,6.0,99,0.00,,---,0.17,VWS V14.01,2013-05-22 03:44:00,
2013-05-21 23:45:00,53.5,53.2,29.98,NE,44,0.0,6.0,99,0.00,,---,0.17,VWS V14.01,2013-05-22 03:45:00,
2013-05-21 23:46:00,53.5,53.2,29.98,East,97,0.0,6.0,99,0.00,,---,0.17,VWS V14.01,2013-05-22 03:46:00,
2013-05-21 23:47:00,53.5,53.2,29.98,NE,34,4.0,6.0,99,0.00,,---,0.17,VWS V14.01,2013-05-22 03:47:00,
2013-05-21 23:48:00,53.5,53.2,29.98,NE,34,0.0,6.0,99,0.00,,---,0.17,VWS V14.01,2013-05-22 03:48:00,
2013-05-21 23:49:00,53.3,53.0,29.98,NE,34,1.0,6.0,99,0.00,,---,0.17,VWS V14.01,2013-05-22 03:49:00,
2013-05-21 23:50:00,53.3,53.0,29.98,NE,34,2.0,6.0,99,0.00,,---,0.17,VWS V14.01,2013-05-22 03:50:00,
2013-05-21 23:51:00,53.3,53.0,29.98,NNE,14,3.0,3.0,99,0.00,,---,0.17,VWS V14.01,2013-05-22 03:51:00,
2013-05-21 23:52:00,53.3,53.0,29.98,NW,325,2.0,11.0,99,0.00,,---,0.17,VWS V14.01,2013-05-22 03:52:00,
2013-05-21 23:53:00,53.3,53.0,29.98,NE,42,4.0,11.0,99,0.00,,---,0.17,VWS V14.01,2013-05-22 03:53:00,
2013-05-21 23:54:00,53.3,53.0,29.98,NNE,25,3.0,11.0,99,0.00,,---,0.17,VWS V14.01,2013-05-22 03:54:00,
2013-05-21 23:55:00,53.3,53.0,29.98,NNE,25,0.0,11.0,99,0.00,,---,0.17,VWS V14.01,2013-05-22 03:55:00,
2013-05-21 23:56:00,53.3,53.0,29.98,NNE,24,5.0,11.0,99,0.00,,---,0.17,VWS V14.01,2013-05-22 03:56:00,
2013-05-21 23:57:00,53.2,52.9,29.98,NE,35,3.0,11.0,99,0.00,,---,0.17,VWS V14.01,2013-05-22 03:57:00,
2013-05-21 23:58:00,53.2,52.9,29.98,NNE,31,0.0,11.0,99,0.00,,---,0.17,VWS V14.01,2013-05-22 03:58:00,
2013-05-21 23:59:00,53.2,52.9,29.98,NW,323,4.0,11.0,99,0.00,,---,0.17,VWS V14.01,2013-05-22 03:59:00,